     2              OBSERVATION DATA    GPS                 RINEX VERSION / TYPE
ASHTORIN IGPP/SIO/UCSD 26 - JUN - 98 09:44                  PGM / RUN BY / DATE
                                                            COMMENT
Original Marker Name: ANZA ROAD YARD                        COMMENT
Campaign Name: Anza Transect 1998                           COMMENT
4-Character Station Name: ANZR                              COMMENT
6-Character Antenna Code: DMRCHT                            COMMENT
Vertical Measurement Point: BCR                             COMMENT
Vertical Offset to Rinex Ref. Point: 0.0349                 COMMENT
Radial Measurement Point: ECF                               COMMENT
Radial Offset to Rinex Ref. Point: 0.1896                   COMMENT
Antenna Height from Field Measurement: 1.5140 m             COMMENT
Additional Antenna Identification Info.:                    COMMENT
Turborogue and Ashtech Choke Ring                           COMMENT
Original XYZ: -2369627.4323 -4760639.8828 3512208.5627      COMMENT
New XYZ position is based on association with SCEC monument COMMENT
E1D0K4B7+0011. Position of that monument is believed to be  COMMENT
valid to within 1 m horizontally; vertical accuracy         COMMENT
should be no worse than 3-times this value.                 COMMENT
                                                            COMMENT
Revised Rinex header created by UCSD GPS archive for        COMMENT
GSAC on 12-Apr-1999 (1999:102) 07:54:49 GMT                 COMMENT
For assistance contact dagnew@ucsd.edu or hjohnson@ucsd.edu COMMENT
                                                            COMMENT
ANZA ROAD YARD                                              MARKER NAME
ANZR                                                        MARKER NUMBER
Elliott/Anderson SCRIPPS INSTITUTION OF OCEANOGRAPHY        OBSERVER / AGENCY
317 ASHTECH Z12-XII3 1F501D0                                REC # / TYPE / VERS
408 DORNE-MARGOL. TYPE T                                    ANT # / TYPE
 -2387933.0000 -4755765.0000  3506156.0000                  APPROX POSITION XYZ
        1.4672        0.0000        0.0000                  ANTENNA: DELTA H/E/N
     1     1     0                                          WAVELENGTH FACT L1/2
     7    L1    L2    C1    P1    P2    D1    D2            # / TYPES OF OBSERV
    30                                                      INTERVAL
  1998     6    25     3    16    0.000000                  TIME OF FIRST OBS
  1998     6    25    23    59   30.000000                  TIME OF LAST OBS
     0                                                      # OF SATELLITES
                                                            END OF HEADER
 98  6 25  3 16  0.0000000  0  5  1 15 29 25 21                      0.000000000
    160033.731 9    117684.83447  23000925.981    23000925.8204   23000933.3354
        -0.000          -0.000
    -82995.579 9    -58073.86452         0.000           0.0004          0.0005
        -0.000          -0.000
     55071.507 9     39039.33649  21104133.546    21104133.3124   21104139.3744
        -0.000          -0.000
    -62087.084 9    -43826.52449  20766197.859    20766197.9604   20766203.5114
        -0.000          -0.000
    162358.286 9    114872.17546  23179753.761    23179753.5104   23179761.1744
        -0.000          -0.000
 98  6 25  3 16 30.0000000  0  6  1 15 29 25 21 14                   0.000555975
    216483.873 9    161671.95447  23011668.771    23011668.0344   23011675.5874
        -0.000          -0.000
   -112470.182 9     -9448.23452         0.000           0.0004          0.0005
        -0.000          -0.000
     75634.157 9     55062.19249  21108046.739    21108046.3234   21108052.2474
        -0.000          -0.000
    -83859.809 9    -60792.26649  20762054.425    20762054.7694   20762060.3184
        -0.000          -0.000
    222292.161 9    161573.89246  23191159.421    23191159.0754   23191166.2394
        -0.000          -0.000
   -315850.074 9   -222469.26246  23421076.972    23421076.0564   23421083.9394
        -0.000          -0.000
 98  6 25  3 17  0.0010000  0  6  1 15 29 25 21 14                   0.000999944
   -587735.029 9   -464992.14447  23158423.361    23158422.7784   23158430.2414
        -0.000          -0.000
  -1002022.397 9   -702875.11352         0.000           0.0004          0.0005
        -0.000          -0.000
   -764337.123 9   -599460.87549  21247997.887    21247997.6274   21248003.4704
        -0.000          -0.000
   -965797.225 9   -748016.21149  20894020.086    20894020.1314   20894025.6874
        -0.000          -0.000
   -578230.419 9   -462209.94346  23338617.828    23338617.0724   23338624.4494
        -0.000          -0.000
  -1275753.354 9   -970445.81146  23538205.168    23538205.0404   23538212.8074
        -0.000          -0.000
 98  6 25  3 17 30.0010000  0  6  1 15 29 25 21 14                   0.000999927
   -516046.922 9   -409131.28247  23172065.189    23172064.6534   23172071.9074
        -0.000          -0.000
  -1015065.828 9   -713522.22152         0.000           0.0004          0.0005
        -0.000          -0.000
   -728270.593 9   -571357.07449  21254861.160    21254860.9064   21254866.6954
        -0.000          -0.000
   -971294.211 9   -752299.55949  20892974.285    20892974.1754   20892979.7064
        -0.000          -0.000
   -502603.206 9   -403279.64346  23353008.968    23353008.3294   23353015.8054
        -0.000          -0.000
  -1359747.585 9  -1035895.80846  23522221.143    23522221.2754   23522229.2074
        -0.000          -0.000
 98  6 25  3 18  0.0010000  0  6  1 15 29 25 21 14                   0.000999926
   -444305.279 9   -353228.69847  23185717.267    23185716.7424   23185723.7424
        -0.000          -0.000
  -1027468.463 9   -654454.58447         0.000           0.0004   21008460.4414
        -0.000          -0.000
   -692040.923 9   -543126.15549  21261755.466    21261755.2234   21261761.0014
        -0.000          -0.000
   -976231.405 9   -756146.71249  20892034.785    20892034.6554   20892040.1924
        -0.000          -0.000
   -426682.309 9   -344120.51746  23367456.201    23367455.7074   23367463.0574
        -0.000          -0.000
  -1443699.906 9  -1101313.15746  23506245.697    23506245.7744   23506253.5774
        -0.000          -0.000
 98  6 25  3 18 30.0010000  0  6  1 15 29 25 21 14                   0.000999937
   -372544.420 9   -297311.14047  23199372.921    23199372.4884   23199379.3064
        -0.000          -0.000
  -1039260.651 9   -663643.30148  21006210.400    21006209.7544   21006216.5334
        -0.000          -0.000
   -655680.407 9   -514793.27949  21268674.641    21268674.4734   21268680.2514
        -0.000          -0.000
   -980660.865 9   -759598.21149  20891191.855    20891191.7694   20891197.2994
        -0.000          -0.000
   -350488.397 9   -284748.64046  23381955.547    23381954.9394   23381962.1804
        -0.000          -0.000
  -1527627.885 9  -1166711.52546  23490274.834    23490274.8714   23490282.5734
        -0.000          -0.000
 98  6 25  3 19  0.0010000  0  6  1 15 29 25 21 14                   0.000999954
   -300796.954 9   -241404.03347  23213026.080    23213025.6074   23213032.4614
        -0.000          -0.000
  -1050459.238 9   -672369.46849  21004079.313    21004078.7094   21004085.5914
        -0.000          -0.000
   -619210.077 9   -486374.82849  21275614.685    21275614.5794   21275620.3224
        -0.000          -0.000
   -984597.743 9   -762665.89449  20890442.724    20890442.6174   20890448.1214
        -0.000          -0.000
   -274031.199 9   -225171.61646  23396504.649    23396504.1674   23396511.5964
        -0.000          -0.000
  -1611541.653 9  -1232098.84846  23474306.444    23474306.6164   23474314.3054
        -0.000          -0.000
 98  6 25  3 19 30.0010000  0  6  1 15 29 25 21 14                   0.000999987
   -229031.724 9   -185483.08447  23226682.535    23226682.1124   23226688.9634
        -0.000          -0.000
  -1061035.782 9   -680610.93449  21002066.683    21002066.1024   21002072.9484
        -0.000          -0.000
   -582591.645 9   -457840.97049  21282582.841    21282582.7954   21282588.5404
        -0.000          -0.000
   -988037.015 9   -765345.82149  20889788.325    20889788.1614   20889793.6664
        -0.000          -0.000
   -197304.446 9   -165384.55446  23411105.245    23411104.8394   23411112.1824
        -0.000          -0.000
  -1695409.165 9  -1297450.11646  23458346.911    23458347.1744   23458354.8094
        -0.000          -0.000
 98  6 25  3 20  0.0010000  0  6  1 15 29 25 21 14                   0.001000007
   -157286.620 9   -129577.81447  23240335.117    23240334.7014   23240341.7404
        -0.000          -0.000
  -1071021.245 9   -688391.80449  21000166.559    21000165.9474   21000172.8094
        -0.000          -0.000
   -545855.302 9   -429215.23649  21289573.508    21289573.5054   21289579.2714
        -0.000          -0.000
   -991027.959 9   -767676.40549  20889219.105    20889219.0244   20889224.5164
        -0.000          -0.000
   -120354.234 9   -105423.37246  23425748.408    23425748.0724   23425755.3174
        -0.000          -0.000
  -1779273.045 9  -1362798.56346  23442388.465    23442388.5124   23442396.1384
        -0.000          -0.000
 98  6 25  3 20 30.0010000  0  6  1 15 29 25 21 14                   0.001000015
    -85547.976 9    -73677.57647  23253986.463    23253986.0514   23253993.2004
        -0.000          -0.000
  -1080389.274 9   -695691.56949  20998383.965    20998383.3024   20998390.1314
        -0.000          -0.000
   -508991.887 9   -400490.49049  21296588.444    21296588.4384   21296594.1814
        -0.000          -0.000
   -993526.697 9   -769623.45849  20888743.679    20888743.5544   20888749.0914
        -0.000          -0.000
    -43160.819 9    -45272.67046  23440437.860    23440437.4234   23440444.6904
        -0.000          -0.000
  -1863123.221 9  -1428136.30946  23426432.434    23426432.3294   23426440.0134
        -0.000          -0.000
 98  6 25  3 21  0.0010000  0  6  1 15 29 25 21 14                   0.001000018
    -13773.890 9    -17749.71047  23267644.780    23267644.1854   23267651.4364
        -0.000          -0.000
  -1089109.226 9   -702486.32849  20996724.631    20996723.9404   20996730.7984
        -0.000          -0.000
   -471974.605 9   -371645.83849  21303632.672    21303632.6224   21303638.3314
        -0.000          -0.000
   -995488.167 9   -771151.85249  20888370.391    20888370.3024   20888375.8064
        -0.000          -0.000
     34301.641 9     15087.68346  23455178.416    23455177.9484   23455185.2714
        -0.000          -0.000
  -1946943.177 9  -1493450.52346  23410481.936    23410481.8714   23410489.5554
        -0.000          -0.000
 98  6 25  3 21 30.0010000  0  6  1 15 29 25 21 14                   0.001000019
     58052.373 9     38218.79547  23281312.739    23281312.3234   23281319.6194
        -0.000          -0.000
  -1097177.583 9   -708773.35549  20995189.255    20995188.5634   20995195.4544
        -0.000          -0.000
   -434792.377 9   -342672.65649  21310708.198    21310708.1744   21310713.8704
        -0.000          -0.000
   -996915.622 9   -772264.12749  20888098.821    20888098.6704   20888104.1764
        -0.000          -0.000
    112035.853 9     75659.75846  23469970.767    23469970.4074   23469977.7544
        -0.000          -0.000
  -2030729.520 9  -1558738.53847  23394538.031    23394537.8984   23394545.4624
        -0.000          -0.000
 98  6 25  3 22  0.0010000  0  6  1 15 29 25 21 14                   0.001000017
    129928.691 9     94226.34047  23294990.400    23294989.9644   23294997.1854
        -0.000          -0.000
  -1104587.274 9   -714547.14349  20993779.261    20993778.5504   20993785.3984
        -0.000          -0.000
   -397449.618 9   -313574.40349  21317814.357    21317814.3244   21317819.9724
        -0.000          -0.000
   -997779.174 9   -772936.99849  20887934.451    20887934.3244   20887939.8354
        -0.000          -0.000
    190060.780 9    136458.38646  23484818.420    23484818.0694   23484825.4204
        -0.000          -0.000
  -2114489.451 9  -1624005.98247  23378599.174    23378598.8634   23378606.4844
        -0.000          -0.000
 98  6 25  3 22 30.0010000  0  6  1 15 29 25 21 14                   0.001000013
    201848.779 9    150267.95947  23308676.463    23308675.9994   23308683.0324
        -0.000          -0.000
  -1111347.617 9   -719814.93749  20992492.702    20992492.1004   20992499.0074
        -0.000          -0.000
   -359952.575 9   -284355.91949  21324949.759    21324949.7544   21324955.3974
        -0.000          -0.000
   -998081.174 9   -773172.29449  20887876.947    20887876.8344   20887882.3834
        -0.000          -0.000
    268375.693 9    197482.97346  23499721.165    23499720.8624   23499728.2264
        -0.000          -0.000
  -2198220.828 9  -1689251.16647  23362665.594    23362665.2834   23362672.9554
        -0.000          -0.000
 98  6 25  3 23  0.0010000  0  6  1 15 29 25 21 14                   0.001000011
    273822.438 9    206351.32347  23322372.629    23322372.2184   23322379.0014
        -0.000          -0.000
  -1117459.723 9   -724577.61349  20991329.565    20991328.9754   20991335.9014
        -0.000          -0.000
   -322279.949 9   -255000.61649  21332118.616    21332118.6024   21332124.2544
        -0.000          -0.000
   -997839.846 9   -772984.22349  20887922.810    20887922.7224   20887928.2854
        -0.000          -0.000
    346977.129 9    258730.82446  23514678.555    23514678.2874   23514685.6774
        -0.000          -0.000
  -2281909.428 9  -1754463.03547  23346740.130    23346739.8984   23346747.5084
        -0.000          -0.000
 98  6 25  3 23 30.0010000  0  6  1 15 29 25 21 14                   0.001000001
    345815.685 9    262449.96547  23336072.580    23336072.1144   23336078.6174
        -0.000          -0.000
  -1122946.385 9   -728852.92949  20990285.522    20990284.9284   20990291.8554
        -0.000          -0.000
   -284461.245 9   -225531.48149  21339315.254    21339315.2694   21339320.9654
        -0.000          -0.000
   -997089.348 9   -772399.39149  20888065.662    20888065.5634   20888071.0954
        -0.000          -0.000
    425841.417 9    320183.50346  23529685.928    23529685.7974   23529693.1314
        -0.000          -0.000
  -2365574.538 9  -1819656.59047  23330819.341    23330818.9804   23330826.4654
        -0.000          -0.000
 98  6 25  3 24  0.0010000  0  6  1 15 29 25 21 14                   0.001000006
    417849.119 9    318579.91047  23349779.957    23349779.5444   23349786.0274
        -0.000          -0.000
  -1127781.126 9   -732620.24349  20989365.514    20989364.8954   20989371.8224
        -0.000          -0.000
   -246479.902 9   -195935.63049  21346542.894    21346542.8964   21346548.6064
        -0.000          -0.000
   -995797.456 9   -771392.69149  20888311.490    20888311.3534   20888316.9134
        -0.000          -0.000
    504997.409 9    381863.47846  23544748.858    23544748.6904   23544756.0794
        -0.000          -0.000
  -2449181.835 9  -1884805.09047  23314909.511    23314909.0554   23314916.5104
        -0.000          -0.000
 98  6 25  3 24 30.0010000  0  6  1 15 29 25 21 14                   0.001000016
    489894.764 9    374719.38647  23363489.548    23363489.3734   23363495.8914
        -0.000          -0.000
  -1132002.185 9   -735909.37549  20988562.334    20988561.7114   20988568.6334
        -0.000          -0.000
   -208371.291 9   -166240.60649  21353794.720    21353794.7054   21353800.3964
        -0.000          -0.000
   -994023.855 9   -770010.63249  20888648.915    20888648.8294   20888654.3804
        -0.000          -0.000
    584402.369 9    443737.45246  23559859.037    23559858.9794   23559866.3204
        -0.000          -0.000
  -2532746.458 9  -1949920.34547  23299007.501    23299007.2034   23299014.7244
        -0.000          -0.000
 98  6 25  3 25  0.0010000  0  6  1 15 29 25 21 14                   0.001000031
    561963.146 9    430876.58547  23377203.786    23377203.5984   23377210.1884
        -0.000          -0.000
  -1135603.998 9   -738715.97049  20987876.948    20987876.2964   20987883.2214
        -0.000          -0.000
   -170131.803 9   -136443.59549  21361071.558    21361071.4784   21361077.1754
        -0.000          -0.000
   -991762.324 9   -768248.37549  20889079.270    20889079.1814   20889084.7734
        -0.000          -0.000
    664055.618 9    505804.90446  23575016.775    23575016.5954   23575023.9264
        -0.000          -0.000
  -2616264.888 9  -2014999.61447  23283114.304    23283114.1564   23283121.7214
        -0.000          -0.000
 98  6 25  3 25 30.0010000  0  6  1 15 29 25 21 14                   0.001000042
    634030.319 9    487032.82547  23390917.792    23390917.5344   23390924.2224
        -0.000          -0.000
  -1138601.367 9   -741051.57849  20987306.572    20987305.9304   20987312.8574
        -0.000          -0.000
   -131780.263 9   -106559.27449  21368369.662    21368369.5364   21368375.1844
        -0.000          -0.000
   -989004.993 9   -766099.78449  20889603.964    20889603.8884   20889609.4484
        -0.000          -0.000
    743952.014 9    568061.81646  23590220.750    23590220.4604   23590227.8014
        -0.000          -0.000
  -2699744.396 9  -2080048.53547  23267228.564    23267228.4544   23267236.0494
        -0.000          -0.000
 98  6 25  3 26  0.0010000  0  6  1 15 29 25 21 14                   0.001000052
    706112.699 9    543200.92247  23404634.750    23404634.4284   23404641.1864
        -0.000          -0.000
  -1140985.217 9   -742909.11249  20986852.931    20986852.3144   20986859.2394
        -0.000          -0.000
    -93296.545 9    -76571.96249  21375692.762    21375692.7464   21375698.3494
        -0.000          -0.000
   -985732.651 9   -763549.88249  20890226.712    20890226.5774   20890232.1504
        -0.000          -0.000
    824100.191 9    630514.92746  23605472.544    23605472.2114   23605479.5734
        -0.000          -0.000
  -2783171.951 9  -2145056.99047  23251352.800    23251352.6334   23251360.1684
        -0.000          -0.000
 98  6 25  3 26 30.0010000  0  6  1 15 29 25 21 14                   0.001000058
    778222.829 9    599390.65047  23418356.941    23418356.5594   23418363.5204
        -0.000          -0.000
  -1142742.627 9   -744278.51549  20986518.461    20986517.8964   20986524.8054
        -0.000          -0.000
    -54663.885 9    -46468.60349  21383044.310    21383044.3264   21383049.9204
        -0.000          -0.000
   -981939.540 9   -760594.18649  20890948.442    20890948.3474   20890953.9024
        -0.000          -0.000
    904505.919 9    693168.71646  23620773.397    23620773.0594   23620780.4194
        -0.000          -0.000
  -2866546.249 9  -2210023.93647  23235487.145    23235487.0574   23235494.6324
        -0.000          -0.000
 98  6 25  3 27  0.0010000  0  6  1 15 29 25 21 14                   0.001000056
    850362.204 9    655603.14447  23432084.508    23432084.1664   23432091.2464
        -0.000          -0.000
  -1143858.296 9   -745147.86149  20986306.158    20986305.6034   20986312.5014
        -0.000          -0.000
    -15865.730 9    -16236.26749  21390427.430    21390427.3854   21390432.9344
        -0.000          -0.000
   -977600.689 9   -757213.24049  20891774.095    20891774.0064   20891779.5254
        -0.000          -0.000
    985185.262 9    756035.72646  23636126.247    23636125.9504   23636133.2004
        -0.000          -0.000
  -2949870.250 9  -2274951.70047  23219631.270    23219631.0544   23219638.5854
        -0.000          -0.000
 98  6 25  3 27 30.0010000  0  6  1 15 29 25 21 14                   0.001000048
    922528.252 9    711836.44047  23445817.170    23445816.9094   23445824.0214
        -0.000          -0.000
  -1144324.905 9   -745511.44749  20986217.362    20986216.8344   20986223.6974
        -0.000          -0.000
     23094.704 9     14122.51948  21397841.283    21397841.2334   21397846.8744
        -0.000          -0.000
   -972716.062 9   -753407.01649  20892703.627    20892703.4834   20892709.0394
        -0.000          -0.000
   1066140.009 9    819117.34146  23651531.623    23651531.2254   23651538.4354
        -0.000          -0.000
  -3033140.544 9  -2339837.60447  23203785.268    23203785.2144   23203792.7344
        -0.000          -0.000
 98  6 25  3 28  0.0010000  0  6  1 15 29 25 21 14                   0.001000040
    994733.211 9    768100.03447  23459557.422    23459556.9774   23459564.3314
        -0.000          -0.000
  -1144129.357 9   -745359.05949  20986254.637    20986254.0394   20986260.8964
        -0.000          -0.000
     62213.591 9     44604.76848  21405285.306    21405285.2694   21405290.9954
        -0.000          -0.000
   -967296.166 9   -749183.69449  20893734.958    20893734.8484   20893740.3714
        -0.000          -0.000
   1147368.445 9    882412.22046  23666988.979    23666988.5644   23666995.7924
        -0.000          -0.000
  -3116358.630 9  -2404682.83147  23187949.308    23187949.2974   23187956.8254
        -0.000          -0.000
 98  6 25  3 28 30.0010000  0  6  1 15 29 25 21 14                   0.001000031
   1066957.191 9    824378.46147  23473301.119    23473300.7824   23473308.0304
        -0.000          -0.000
  -1143277.945 9   -744695.60949  20986416.703    20986416.1164   20986422.9514
        -0.000          -0.000
    101466.775 9     75191.67148  21412754.955    21412754.9584   21412760.6354
        -0.000          -0.000
   -961351.613 9   -744551.55349  20894866.133    20894866.0254   20894871.5444
        -0.000          -0.000
   1228862.269 9    945913.89746  23682496.863    23682496.3694   23682503.5664
        -0.000          -0.000
  -3199531.513 9  -2469492.81147  23172122.021    23172121.9934   23172129.5124
        -0.000          -0.000
 98  6 25  3 29  0.0010000  0  6  1 15 29 25 21 14                   0.001000030
   1139207.454 9    880677.37647  23487049.915    23487049.6044   23487056.7654
        -0.000          -0.000
  -1141765.019 9   -743516.70149  20986704.595    20986703.9674   20986710.8104
        -0.000          -0.000
    140854.296 9    105883.24748  21420250.245    21420250.2194   21420255.8574
        -0.000          -0.000
   -954877.942 9   -739507.11949  20896098.084    20896097.9624   20896103.4504
        -0.000          -0.000
   1310628.646 9   1009627.92946  23698056.580    23698055.9974   23698063.3624
        -0.000          -0.000
  -3282647.990 9  -2534258.85747  23156305.650    23156305.4444   23156312.9234
        -0.000          -0.000
 98  6 25  3 29 30.0010000  0  6  1 15 29 25 21 14                   0.001000032
   1211468.205 9    936984.44846  23500800.584    23500800.3644   23500807.4554
        -0.000          -0.000
  -1139611.249 9   -741838.42449  20987114.434    20987113.7844   20987120.6984
        -0.000          -0.000
    180347.608 9    136657.25848  21427765.632    21427765.6164   21427771.2284
        -0.000          -0.000
   -947900.101 9   -734069.82449  20897425.931    20897425.7934   20897431.2534
        -0.000          -0.000
   1392646.133 9   1073537.64746  23713664.079    23713663.5714   23713670.6914
        -0.000          -0.000
  -3365716.033 9  -2598987.15547  23140498.121    23140498.0964   23140505.5254
        -0.000          -0.000
 98  6 25  3 30  0.0010000  0  6  1 15 29 25 21 14                   0.001000040
   1283735.308 9    993296.47846  23514552.619    23514552.4444   23514559.3254
        -0.000          -0.000
  -1136822.344 9   -739665.24849  20987645.104    20987644.5064   20987651.4144
        -0.000          -0.000
    219956.024 9    167520.96548  21435302.953    21435302.8494   21435308.4364
        -0.000          -0.000
   -940420.689 9   -728241.68749  20898849.205    20898849.0984   20898854.5654
        -0.000          -0.000
   1474916.566 9   1137644.47546  23729319.722    23729319.2644   23729326.2784
        -0.000          -0.000
  -3448725.719 9  -2663669.96147  23124701.836    23124701.8324   23124709.2384
        -0.000          -0.000
 98  6 25  3 30 30.0010000  0  7  1 15 29 25 22 21 14                0.001000051
   1355999.318 9   1049606.09946  23528304.098    23528303.7854   23528310.5904
        -0.000          -0.000
  -1133415.515 9   -737010.57149  20988293.410    20988292.7874   20988299.7394
        -0.000          -0.000
    259676.829 9    198472.25848  21442861.547    21442861.4464   21442867.0274
        -0.000          -0.000
   -932452.929 9   -722033.02749  20900365.480    20900365.3284   20900370.7994
        -0.000          -0.000
   -560362.662 8   -414521.53242         0.000           0.0004          0.0004
        -0.000          -0.000
   1557436.717 9   1201945.89245  23745022.966    23745022.3424   23745029.1494
        -0.000          -0.000
  -3531683.186 9  -2728312.10847  23108915.707    23108915.5804   23108922.8594
        -0.000          -0.000
 98  6 25  3 31  0.0010000  0  7  1 15 29 25 22 21 14                0.001000059
   1428259.958 9   1105913.06746  23542054.691    23542054.4354   23542061.3534
        -0.000          -0.000
  -1129402.239 9   -733883.34049  20989057.181    20989056.5094   20989063.4344
        -0.000          -0.000
    299517.062 9    229516.59648  21450442.754    21450442.7084   21450448.3814
        -0.000          -0.000
   -924015.672 9   -715458.52849  20901971.025    20901970.8774   20901976.3504
        -0.000          -0.000
   -652720.706 8   -486488.07052         0.000           0.0004          0.0005
        -0.000          -0.000
   1640202.666 9   1266438.83045  23760772.695    23760772.1004   23760778.9774
        -0.000          -0.000
  -3614595.850 9  -2792919.32847  23093137.733    23093137.7544   23093144.9684
        -0.000          -0.000
 98  6 25  3 31 30.0010000  0  7  1 15 29 25 22 21 14                0.001000065
   1500523.390 9   1162222.25746  23555805.964    23555805.5764   23555812.6564
        -0.000          -0.000
  -1124773.150 9   -730276.25149  20989938.003    20989937.3894   20989944.3014
        -0.000          -0.000
    339495.677 9    260668.76748  21458050.349    21458050.3814   21458056.0824
        -0.000          -0.000
   -915085.806 9   -708500.16949  20903670.314    20903670.1604   20903675.6534
        -0.000          -0.000
   -745146.695 8   -558507.34852         0.000           0.0004          0.0005
        -0.000          -0.000
   1723219.965 9   1331127.63745  23776570.290    23776569.7644   23776576.6164
        -0.000          -0.000
  -3697450.476 9  -2857481.31747  23077371.211    23077371.0394   23077378.3114
        -0.000          -0.000
 98  6 25  3 32  0.0010000  0  7  1 15 29 25 22 21 14                0.001000015
   1572811.362 9   1218550.54646  23569561.640    23569561.2734   23569568.5404
        -0.000          -0.000
  -1119511.670 9   -726176.39349  20990939.319    20990938.6364   20990945.5204
        -0.000          -0.000
    379642.900 9    291952.33148  21465690.193    21465690.2224   21465695.8354
        -0.000          -0.000
   -905651.333 9   -701148.62349  20905465.573    20905465.4674   20905470.9884
        -0.000          -0.000
   -837624.439 8   -374457.46242         0.000           0.0004          0.0004
        -0.000          -0.000
   1806499.914 9   1396021.07645  23792417.879    23792417.2924   23792424.2124
        -0.000          -0.000
  -3780230.829 9  -2921985.42747  23061618.467    23061618.4544   23061625.7364
        -0.000          -0.000
 98  6 25  3 32 30.0010000  0  7  1 15 29 25 22 21 14                0.001000022
   1645138.579 9   1274909.44847  23583325.096    23583324.7244   23583332.0744
        -0.000          -0.000
  -1113603.183 9   -721572.37249  20992063.746    20992063.0174   20992069.8374
        -0.000          -0.000
    419962.137 9    323369.92748  21473362.792    21473362.7604   21473368.3474
        -0.000          -0.000
   -895692.434 9   -693388.42449  20907360.655    20907360.5854   20907366.0994
        -0.000          -0.000
   -930148.742 8   -446553.84552         0.000           0.0004          0.0005
        -0.000          -0.000
   1890044.013 9   1461120.36045  23808315.825    23808315.1474   23808321.9204
        -0.000          -0.000
  -3862928.652 9  -2986425.25447  23045881.925    23045881.5984   23045888.8034
        -0.000          -0.000
 98  6 25  3 33  0.0010000  0  7  1 15 29 25 22 21 14                0.001000024
   1717485.971 9   1331284.02547  23597092.446    23597092.0934   23597099.5344
        -0.000          -0.000
  -1107053.499 9   -716468.70649  20993310.084    20993309.4044   20993316.2134
        -0.000          -0.000
    460443.259 9    354913.67548  21481066.119    21481066.0484   21481071.6334
        -0.000          -0.000
   -885200.297 9   -685212.72149  20909357.231    20909357.1144   20909362.6884
        -0.000          -0.000
  -1022724.249 8   -518690.57944         0.000           0.0004   24670501.6634
        -0.000          -0.000
   1973825.379 9   1526404.53545  23824259.007    23824258.1194   23824264.9764
        -0.000          -0.000
  -3945547.759 9  -3050803.73247  23030159.758    23030159.6524   23030166.8684
        -0.000          -0.000
 98  6 25  3 33 30.0010000  0  7  1 15 29 25 22 21 14                0.001000018
   1789849.883 9   1387671.48346  23610862.908    23610862.6504   23610869.9834
        -0.000          -0.000
  -1099860.269 9   -710863.58449  20994678.881    20994678.2274   20994684.9664
        -0.000          -0.000
    501075.152 9    386574.90948  21488797.958    21488797.9754   21488803.5864
        -0.000          -0.000
   -874170.234 9   -676617.84549  20911456.133    20911456.0704   20911461.6394
        -0.000          -0.000
  -1115360.429 9   -590874.46345  24652864.197    24652862.8484   24652871.4854
        -0.000          -0.000
   2057832.052 9   1591864.27145  23840245.030    23840244.0934   23840250.7894
        -0.000          -0.000
  -4028087.227 9  -3115120.15947  23014453.138    23014452.9564   23014460.1144
        -0.000          -0.000
 98  6 25  3 34  0.0010000  0  7  1 15 29 25 22 21 14                0.001000004
   1862234.586 9   1444075.15346  23624637.414    23624637.1944   23624644.3594
        -0.000          -0.000
  -1092023.574 9   -704757.06449  20996170.050    20996169.4644   20996176.2464
        -0.000          -0.000
    541841.033 9    418340.54048  21496555.371    21496555.4444   21496561.0514
        -0.000          -0.000
   -862610.081 9   -667609.92049  20913655.950    20913655.8474   20913661.4844
        -0.000          -0.000
  -1208065.043 9   -663111.65245  24635223.173    24635222.5504   24635230.9894
        -0.000          -0.000
   2142073.425 9   1657506.87745  23856275.372    23856274.6054   23856281.4114
        -0.000          -0.000
  -4110548.326 9  -3179375.51347  22998761.418    22998761.1594   22998768.2694
        -0.000          -0.000
 98  6 25  3 34 30.0010000  0  7  1 15 29 25 22 21 14                0.001000000
   1934661.504 9   1500511.68746  23638420.006    23638419.6534   23638426.8774
        -0.000          -0.000
  -1083523.100 9   -698133.30949  20997787.673    20997787.0754   20997793.7934
        -0.000          -0.000
    582739.849 9    450209.76248  21504338.232    21504338.2364   21504343.8814
        -0.000          -0.000
   -850485.221 9   -658161.96249  20915963.167    20915963.1104   20915968.7094
        -0.000          -0.000
  -1300797.454 9   -735370.55146  24617576.485    24617575.5984   24617584.8474
        -0.000          -0.000
   2226584.088 9   1723359.33645  23872357.117    23872356.2824   23872363.3804
        -0.000          -0.000
  -4192909.038 9  -3243552.64147  22983088.738    22983088.4594   22983095.5224
        -0.000          -0.000
 98  6 25  3 35  0.0010000  0  7  1 15 29 25 22 21 14                0.001000004
   2007121.636 9   1556974.13846  23652208.654    23652208.3274   23652215.4824
        -0.000          -0.000
  -1074373.168 9   -691003.48049  20999528.859    20999528.2594   20999534.9584
        -0.000          -0.000
    623753.204 9    482168.23348  21512142.893    21512142.8434   21512148.4714
        -0.000          -0.000
   -837820.819 9   -648293.58049  20918373.125    20918373.0224   20918378.6804
        -0.000          -0.000
  -1393555.681 9   -807649.55446  24599925.128    24599924.2164   24599933.6984
        -0.000          -0.000
   2311362.237 9   1789420.21246  23888489.676    23888488.8734   23888496.2744
        -0.000          -0.000
  -4275188.279 9  -3307666.30247  22967431.538    22967431.1784   22967438.2654
        -0.000          -0.000
 98  6 25  3 35 30.0010000  0  7  1 15 29 25 22 21 14                0.001000019
   2079604.194 9   1613454.09646  23666001.474    23666001.1394   23666008.1704
        -0.000          -0.000
  -1064586.262 9   -683377.30549  21001391.269    21001390.6504   21001397.3324
        -0.000          -0.000
    664861.365 9    514200.57148  21519965.535    21519965.4584   21519971.0914
        -0.000          -0.000
   -824644.421 9   -638026.24649  20920880.423    20920880.3564   20920886.0764
        -0.000          -0.000
  -1486336.928 9   -879946.45946  24582269.654    24582268.6504   24582277.8434
        -0.000          -0.000
   2396428.462 9   1855705.57946  23904677.268    23904676.3574   23904683.8324
        -0.000          -0.000
  -4357404.435 9  -3371730.79747  22951786.115    22951785.8904   22951792.9774
        -0.000          -0.000
 98  6 25  3 36  0.0010000  0  7  1 15 29 25 22 21 14                0.001000035
   2152078.080 9   1669927.26946  23679792.514    23679792.1524   23679799.3514
        -0.000          -0.000
  -1054184.637 9   -675272.12249  21003370.713    21003370.0294   21003376.7064
        -0.000          -0.000
    706045.106 9    546291.80848  21527802.484    21527802.5024   21527808.1084
        -0.000          -0.000
   -810974.765 9   -627374.54949  20923481.668    20923481.5954   20923487.3304
        -0.000          -0.000
  -1579164.883 9   -952279.77146  24564604.746    24564603.9594   24564613.1054
        -0.000          -0.000
   2481765.571 9   1922201.99546  23920916.268    23920915.5444   23920922.8654
        -0.000          -0.000
  -4439559.815 9  -3435747.93847  22936152.150    22936152.1734   22936159.2994
        -0.000          -0.000
 98  6 25  3 36 30.0010000  0  7  1 15 29 25 22 21 14                0.001000051
   2224529.510 9   1726382.93446  23693579.330    23693579.1464   23693586.2574
        -0.000          -0.000
  -1043163.740 9   -666684.38949  21005468.006    21005467.2484   21005473.9704
        -0.000          -0.000
    747326.600 9    578459.22148  21535658.191    21535658.0744   21535663.6614
        -0.000          -0.000
   -796813.336 9   -616339.64749  20926176.496    20926176.4104   20926182.1514
        -0.000          -0.000
  -1672046.004 9  -1024654.48946  24546929.966    24546929.1754   24546938.3374
        -0.000          -0.000
   2567365.413 9   1988903.15346  23937205.525    23937204.6874   23937212.0094
        -0.000          -0.000
  -4521641.771 9  -3499707.85147  22920532.492    22920532.4364   22920539.6444
        -0.000          -0.000
 98  6 25  3 37  0.0010000  0  7  1 15 29 25 22 21 14                0.001000066
   2296957.590 9   1782820.42146  23707362.241    23707361.8744   23707368.6814
        -0.000          -0.000
  -1031511.936 9   -657605.04649  21007685.252    21007684.4834   21007691.2204
        -0.000          -0.000
    788733.346 9    610724.23048  21543537.622    21543537.5094   21543543.1224
        -0.000          -0.000
   -782172.279 9   -604931.01549  20928962.589    20928962.5014   20928968.2554
        -0.000          -0.000
  -1764984.906 8  -1097074.23145  24529244.142    24529243.2684   24529252.4154
        -0.000          -0.000
   2653226.769 9   2055808.07946  23953544.297    23953543.6574   23953551.0194
        -0.000          -0.000
  -4603645.771 9  -3563607.02447  22904927.553    22904927.5484   22904934.7954
        -0.000          -0.000
 98  6 25  3 37 30.0010000  0  7  1 15 29 25 22 21 14                0.001000072
   2369354.382 9   1839233.47946  23721139.102    23721138.7564   23721145.2394
        -0.000          -0.000
  -1019236.682 9   -648039.90449  21010021.105    21010020.3664   21010027.1404
        -0.000          -0.000
    830270.596 9    643090.92648  21551441.747    21551441.7484   21551447.4174
        -0.000          -0.000
   -767051.205 9   -593148.34549  20931840.040    20931839.9594   20931845.7134
        -0.000          -0.000
  -1857998.039 9  -1169551.83945  24511544.165    24511543.3334   24511552.2894
        -0.000          -0.000
   2739335.459 9   2122905.76646  23969930.124    23969929.5934   23969936.9834
        -0.000          -0.000
  -4685566.940 9  -3627441.64947  22889338.554    22889338.5504   22889345.7264
        -0.000          -0.000
 98  6 25  3 38  0.0010000  0  7  1 15 29 25 22 21 14                0.001000072
   2441755.578 9   1895650.00646  23734917.190    23734916.6394   23734922.7714
        -0.000          -0.000
  -1006318.520 9   -637973.79549  21012479.316    21012478.6044   21012485.3874
        -0.000          -0.000
    871965.901 9    675580.78248  21559376.030    21559376.0444   21559381.7394
        -0.000          -0.000
   -751423.374 9   -580970.79749  20934813.916    20934813.8304   20934819.5854
        -0.000          -0.000
  -1951076.972 8  -1242080.69245  24493831.754    24493830.6554   24493839.6724
        -0.000          -0.000
   2825683.851 9   2190190.18346  23986361.765    23986361.1974   23986368.6004
        -0.000          -0.000
  -4767383.691 9  -3691194.92047  22873769.320    22873769.3094   22873776.5034
        -0.000          -0.000
 98  6 25  3 38 30.0010000  0  7  1 15 29 25 22 21 14                0.001000068
   2514195.583 9   1952096.76646  23748701.853    23748701.5564   23748707.7474
        -0.000          -0.000
   -992749.107 9   -627400.20349  21015061.488    21015060.7964   21015067.5824
        -0.000          -0.000
    913823.818 9    708197.35348  21567341.516    21567341.4304   21567347.0344
        -0.000          -0.000
   -735292.535 9   -568401.29449  20937883.595    20937883.4554   20937889.1364
        -0.000          -0.000
  -2044201.360 8  -1314644.97545  24476110.285    24476109.3134   24476118.5034
        -0.000          -0.000
   2912285.209 9   2257671.76546  24002841.456    24002840.8894   24002848.4324
        -0.000          -0.000
  -4849118.127 9  -3754884.02947  22858215.794    22858215.7274   22858222.9284
        -0.000          -0.000
 98  6 25  3 39  0.0010000  0  7  1 15 29 25 22 21 14                0.001000060
   2586684.726 9   2008581.82346  23762495.980    23762495.7574   23762502.0754
        -0.000          -0.000
   -978544.598 9   -616331.74849  21017764.503    21017763.8554   21017770.6264
        -0.000          -0.000
    955817.387 9    740919.62348  21575332.551    21575332.5784   21575338.1604
        -0.000          -0.000
   -718671.020 9   -555449.44649  20941046.487    20941046.3954   20941052.0944
        -0.000          -0.000
  -2137371.695 8  -1387245.09145  24458380.082    24458379.5564   24458388.6144
        -0.000          -0.000
   2999130.961 8   2325343.77446  24019367.561    24019366.9384   24019374.7894
        -0.000          -0.000
  -4930790.089 9  -3818524.47347  22842674.173    22842674.0264   22842681.1654
        -0.000          -0.000
 98  6 25  3 39 30.0010000  0  7  1 15 29 25 22 21 14                0.001000049
   2659222.393 9   2065104.71546  23776299.264    23776299.0414   23776305.5754
        -0.000          -0.000
   -963707.333 9   -604770.23549  21020587.909    21020587.2504   21020594.0284
        -0.000          -0.000
    997942.311 9    773744.23048  21583348.634    21583348.6194   21583354.1914
        -0.000          -0.000
   -701544.981 9   -542104.46349  20944305.506    20944305.4194   20944311.0694
        -0.000          -0.000
  -2230570.194 8  -1459867.12745  24440644.780    24440644.2354   24440653.1604
        -0.000          -0.000
   3086221.399 9   2393206.41145  24035940.359    24035939.6854   24035947.6664
        -0.000          -0.000
  -5012392.925 9  -3882111.04447  22827145.474    22827145.4374   22827152.5754
        -0.000          -0.000
 98  6 25  3 40  0.0010000  0  7  1 15 29 25 22 21 14                0.001000038
   2731799.911 9   2121658.66346  23790110.164    23790109.8214   23790116.7214
        -0.000          -0.000
   -948238.218 9   -592716.36949  21023531.616    21023530.9124   21023537.6954
        -0.000          -0.000
   1040185.668 9    806661.14448  21591387.352    21591387.3044   21591392.7884
        -0.000          -0.000
   -683921.176 9   -528371.60849  20947659.197    20947659.0674   20947664.6804
        -0.000          -0.000
  -2323793.883 8  -1532508.81945  24422904.887    24422904.5054   24422912.8714
        -0.000          -0.000
   3173560.305 8   2461262.69845  24052560.428    24052559.7594   24052567.6324
        -0.000          -0.000
  -5093924.543 9  -3945642.12147  22811630.602    22811630.4274   22811637.5904
        -0.000          -0.000
 98  6 25  3 40 30.0010000  0  7  1 15 29 25 22 21 14                0.001000034
   2804398.581 9   2178229.06946  23803925.087    23803924.6064   23803931.8544
        -0.000          -0.000
   -932138.438 9   -580171.07849  21026595.348    21026594.6414   21026601.3774
        -0.000          -0.000
   1082552.256 9    839674.08348  21599449.455    21599449.4224   21599454.9034
        -0.000          -0.000
   -665804.182 9   -514254.44449  20951106.787    20951106.6614   20951112.2454
        -0.000          -0.000
  -2417026.235 8  -1605157.24845  24405163.697    24405163.0174   24405171.2634
        -0.000          -0.000
   3261148.628 9   2529513.30545  24069227.699    24069227.2304   24069235.3244
        -0.000          -0.000
  -5175369.893 9  -4009105.98647  22796132.109    22796131.8274   22796138.9614
        -0.000          -0.000
 98  6 25  3 41  0.0010000  0  7  1 15 29 25 22 21 14                0.001000030
   2876988.641 9   2234792.76946  23817738.570    23817738.0324   23817745.3104
        -0.000          -0.000
   -915422.257 9   -567145.47549  21029776.326    21029775.6394   21029782.3494
        -0.000          -0.000
   1125038.738 9    872780.43648  21607534.356    21607534.3054   21607539.8604
        -0.000          -0.000
   -647190.015 9   -499749.88349  20954648.914    20954648.7694   20954654.3714
        -0.000          -0.000
  -2510276.467 8  -1677819.59745  24387419.302    24387418.3024   24387426.3214
        -0.000          -0.000
   3348967.164 8   2597943.34945  24085939.321    24085938.8214   24085946.6324
        -0.000          -0.000
  -5256710.520 9  -4072488.24147  22780653.250    22780653.1324   22780660.3154
        -0.000          -0.000
 98  6 25  3 41 30.0010000  0  7  1 15 29 25 22 21 14                0.001000030
   2949557.508 9   2291339.94246  23831548.304    23831547.5734   23831554.7204
        -0.000          -0.000
   -898090.979 9   -553640.57949  21033074.320    21033073.6764   21033080.3424
        -0.000          -0.000
   1167646.600 9    905981.36848  21615642.394    21615642.3424   21615647.9104
        -0.000          -0.000
   -628083.216 9   -484861.44749  20958284.744    20958284.6714   20958290.2644
        -0.000          -0.000
  -2603546.454 8  -1750497.38145  24369670.404    24369669.4694   24369677.4384
        -0.000          -0.000
   3437013.785 8   2666551.08845  24102694.056    24102693.5134   24102701.6234
        -0.000          -0.000
  -5337931.041 9  -4135776.91847  22765197.503    22765197.4024   22765204.5274
        -0.000          -0.000
 98  6 25  3 42  0.0010000  0  7  1 15 29 25 22 21 14                0.001000039
   3022114.470 9   2347877.82846  23845355.574    23845354.7444   23845361.8614
        -0.000          -0.000
   -880146.984 9   -539658.24049  21036488.801    21036488.2324   21036494.9734
        -0.000          -0.000
   1210372.204 9    939274.05448  21623772.819    21623772.7544   21623778.2814
        -0.000          -0.000
   -608491.375 9   -469595.05549  20962012.947    20962012.8314   20962018.4844
        -0.000          -0.000
  -2696838.674 8  -1823192.48845  24351917.480    24351916.4204   24351924.6124
        -0.000          -0.000
   3525285.138 8   2735333.94745  24119491.516    24119490.9544   24119499.1064
        -0.000          -0.000
  -5419028.314 9  -4198969.55547  22749765.583    22749765.1464   22749772.1714
        -0.000          -0.000
 98  6 25  3 42 30.0010000  0  7  1 15 29 25 22 21 14                0.001000043
   3094642.562 9   2404393.26246  23859157.306    23859156.5194   23859163.4904
        -0.000          -0.000
   -861606.199 9   -525210.87049  21040016.952    21040016.4304   21040023.1374
        -0.000          -0.000
   1253203.482 9    972649.08548  21631923.310    21631923.3014   21631928.8264
        -0.000          -0.000
   -588431.862 9   -453964.24849  20965830.077    20965830.0084   20965835.6684
        -0.000          -0.000
  -2790145.649 8  -1895899.08245  24334161.219    24334160.5114   24334168.7604
        -0.000          -0.000
   3613766.268 8   2804280.27145  24136329.192    24136328.4784   24136336.6204
        -0.000          -0.000
  -5500026.815 9  -4262085.22547  22734351.924    22734351.6064   22734358.6604
        -0.000          -0.000
 98  6 25  3 43  0.0010000  0  7  1 15 29 25 22 21 14                0.001000045
   3167157.172 9   2460898.18746  23872956.238    23872955.7274   23872962.6594
        -0.000          -0.000
   -842455.554 9   -510288.27549  21043661.208    21043660.6974   21043667.3874
        -0.000          -0.000
   1296135.445 9   1006102.57448  21640092.999    21640092.9754   21640098.5524
        -0.000          -0.000
   -567884.250 9   -437953.10049  20969740.160    20969740.0414   20969745.7204
        -0.000          -0.000
  -2883462.229 8  -1968613.21245  24316403.649    24316402.8964   24316411.1304
        -0.000          -0.000
   3702486.524 8   2873412.93345  24153211.889    24153211.4004   24153219.6074
        -0.000          -0.000
  -5580926.105 9  -4325123.58847  22718957.261    22718956.9334   22718964.0034
        -0.000          -0.000
 98  6 25  3 43 30.0010000  0  7  1 15 29 25 22 21 14                0.001000052
   3239669.709 9   2517401.45646  23886754.819    23886754.3944   23886761.3204
        -0.000          -0.000
   -822674.593 9   -494874.53449  21047425.464    21047424.9114   21047431.5854
        -0.000          -0.000
   1339182.945 9   1039646.09548  21648284.591    21648284.5754   21648290.1904
        -0.000          -0.000
   -546838.169 9   -421553.54749  20973744.992    20973744.9094   20973750.6224
        -0.000          -0.000
  -2976767.666 9  -2041318.59545  24298648.058    24298647.1574   24298655.6474
        -0.000          -0.000
   3791463.661 8   2942745.77145  24170143.854    24170143.2084   24170151.4484
        -0.000          -0.000
  -5661719.888 9  -4388079.75647  22703582.638    22703582.3374   22703589.4004
        -0.000          -0.000
 98  6 25  3 44  0.0010000  0  7  1 15 29 25 22 21 14                0.001000051
   3312172.248 9   2573896.93046  23900551.548    23900550.9934   23900558.0804
        -0.000          -0.000
   -802268.819 9   -478973.92449  21051308.642    21051307.9734   21051314.6524
        -0.000          -0.000
   1382340.468 9   1073275.35048  21656497.113    21656497.1494   21656502.6854
        -0.000          -0.000
   -525297.918 9   -404768.91949  20977843.957    20977843.8814   20977849.5294
        -0.000          -0.000
  -3070061.876 8  -2114015.24346  24280894.711    24280893.8174   24280902.5124
        -0.000          -0.000
   3880692.959 8   3012275.08445  24187123.524    24187122.9544   24187131.2314
        -0.000          -0.000
  -5742427.692 9  -4450968.91847  22688224.506    22688224.1704   22688231.1514
        -0.000          -0.000
 98  6 25  3 44 30.0010000  0  7  1 15 29 25 22 21 14                0.001000041
   3384666.049 9   2630385.61746  23914346.728    23914346.1924   23914353.1104
        -0.000          -0.000
   -781237.703 9   -462586.03749  21055310.768    21055310.0424   21055316.7154
        -0.000          -0.000
   1425605.549 9   1106988.41748  21664730.279    21664730.2794   21664735.7434
        -0.000          -0.000
   -503269.417 9   -387603.84149  20982035.813    20982035.7294   20982041.3884
        -0.000          -0.000
  -3163352.286 9  -2186708.93146  24263141.577    24263140.9784   24263149.8324
        -0.000          -0.000
   3970170.524 9   3081997.87345  24204150.411    24204150.0354   24204158.3454
        -0.000          -0.000
  -5823047.096 9  -4513789.19647  22672883.054    22672882.7404   22672889.7444
        -0.000          -0.000
 98  6 25  3 45  0.0010000  0  7  1 15 29 25 22 21 14                0.001000034
   3457180.008 9   2686890.00246  23928145.952    23928145.2094   23928151.9184
        -0.000          -0.000
   -759567.267 9   -445699.98149  21059434.529    21059433.7974   21059440.4704
        -0.000          -0.000
   1469002.738 9   1140804.42148  21672988.491    21672988.4724   21672994.0014
        -0.000          -0.000
   -480742.100 9   -370050.07249  20986322.643    20986322.5814   20986328.1804
        -0.000          -0.000
  -3256639.449 9  -2259400.12946  24245389.523    24245388.9474   24245397.8294
        -0.000          -0.000
   4059902.908 9   3151919.19445  24221226.005    24221225.5244   24221233.8874
        -0.000          -0.000
  -5903553.094 9  -4576521.10047  22657562.923    22657562.8464   22657569.8654
        -0.000          -0.000
 98  6 25  3 45 30.0010000  0  7  1 15 29 25 22 21 14                0.001000038
   3529720.337 9   2743414.93846  23941949.921    23941949.2044   23941955.8234
        -0.000          -0.000
   -737261.695 9   -428319.00449  21063679.105    21063678.3894   21063685.1164
        -0.000          -0.000
   1512538.799 9   1174728.64248  21681273.126    21681273.1174   21681278.6684
        -0.000          -0.000
   -457737.320 9   -352124.25949  20990700.397    20990700.2714   20990705.8144
        -0.000          -0.000
  -3349917.573 9  -2332084.24346  24227639.302    24227638.6654   24227647.6184
        -0.000          -0.000
   4149872.149 8   3222025.10245  24238346.680    24238346.0824   24238354.3844
        -0.000          -0.000
  -5983941.486 9  -4639161.37947  22642265.296    22642265.3364   22642272.3334
        -0.000          -0.000
 98  6 25  3 46  0.0010000  0  7  1 15 29 25 22 21 14                0.001000044
   3602265.467 9   2799943.60946  23955754.704    23955754.0374   23955760.7504
        -0.000          -0.000
   -714345.931 9   -410462.56449  21068039.790    21068039.1104   21068045.7994
        -0.000          -0.000
   1556189.397 9   1208742.11948  21689579.617    21689579.5474   21689585.1034
        -0.000          -0.000
   -434278.493 9   -333844.64449  20995164.505    20995164.3904   20995169.7864
        -0.000          -0.000
  -3443204.443 9  -2404775.19546  24209887.626    24209886.7544   24209895.4664
        -0.000          -0.000
   4240064.393 9   3292304.77145  24255509.515    24255509.0704   24255517.4424
        -0.000          -0.000
  -6064228.385 9  -4701722.56147  22626987.193    22626987.2624   22626994.2604
        -0.000          -0.000
 98  6 25  3 46 30.0010000  0  7  1 15 29 25 22 21 14                0.001000045
   3674810.339 9   2856472.07246  23969559.253    23969558.8104   23969565.5504
        -0.000          -0.000
   -690833.235 9   -392140.97149  21072514.042    21072513.4524   21072520.1264
        -0.000          -0.000
   1599946.510 9   1242838.58948  21697906.163    21697906.2024   21697911.8404
        -0.000          -0.000
   -410371.976 9   -315216.17549  20999713.789    20999713.6614   20999719.0224
        -0.000          -0.000
  -3536508.095 9  -2477479.20346  24192132.275    24192131.4264   24192140.2824
        -0.000          -0.000
   4330457.133 9   3362740.66345  24272711.189    24272710.5114   24272718.5984
        -0.000          -0.000
  -6144419.401 9  -4764209.03247  22611727.732    22611727.4674   22611734.5014
        -0.000          -0.000
 98  6 25  3 47  0.0010000  0  7  1 15 29 25 22 21 14                0.001000035
   3747346.525 9   2912993.77046  23983362.354    23983361.9044   23983368.6904
        -0.000          -0.000
   -666715.889 9   -373348.24149  21077103.452    21077102.8554   21077109.5254
        -0.000          -0.000
   1643813.667 9   1277020.80448  21706253.857    21706253.8234   21706259.4594
        -0.000          -0.000
   -385987.983 9   -296215.65849  21004353.909    21004353.8184   21004359.0774
        -0.000          -0.000
  -3629808.803 9  -2550180.94846  24174377.894    24174376.9374   24174385.4544
        -0.000          -0.000
   4421062.724 9   3433342.42645  24289952.957    24289952.2664   24289960.2294
        -0.000          -0.000
  -6224498.414 9  -4826608.22147  22596489.263    22596488.9364   22596496.0064
        -0.000          -0.000
 98  6 25  3 47 30.0010000  0  7  1 15 29 25 22 21 14                0.001000024
   3819878.628 9   2969512.29646  23997164.762    23997164.2694   23997171.0754
        -0.000          -0.000
   -641976.284 9   -354070.62849  21081811.318    21081810.6764   21081817.3334
        -0.000          -0.000
   1687797.797 9   1311294.16048  21714623.819    21714623.7994   21714629.2744
        -0.000          -0.000
   -361102.526 9   -276824.37849  21009089.476    21009089.3704   21009094.6024
        -0.000          -0.000
  -3723084.169 9  -2622862.96746  24156628.199    24156627.2254   24156635.4614
        -0.000          -0.000
   4511902.578 9   3504126.72945  24307239.574    24307238.5994   24307246.4034
        -0.000          -0.000
  -6304447.175 9  -4888905.92547  22581275.480    22581275.1494   22581282.2044
        -0.000          -0.000
 98  6 25  3 48  0.0010000  0  7  1 15 29 25 22 21 14                0.001000005
   3892407.941 9   3026028.64146  24010966.731    24010966.1544   24010972.9854
        -0.000          -0.000
   -616612.798 9   -334306.87849  21086637.827    21086637.2054   21086643.8594
        -0.000          -0.000
   1731904.847 9   1345663.30648  21723017.158    21723017.0784   21723022.5114
        -0.000          -0.000
   -335702.665 9   -257032.26949  21013922.914    21013922.8244   21013927.9734
        -0.000          -0.000
  -3816326.547 9  -2695519.25146  24138884.703    24138883.7994   24138891.7274
        -0.000          -0.000
   4602973.162 9   3575090.80845  24324570.119    24324569.0414   24324576.5274
        -0.000          -0.000
  -6384260.889 9  -4951098.39047  22566087.189    22566087.0134   22566094.0954
        -0.000          -0.000
 98  6 25  3 48 30.0010000  0  7  1 15 29 25 22 21 14                0.000999990
   3964962.544 9   3082564.68146  24024773.443    24024772.8264   24024779.7444
        -0.000          -0.000
   -590609.529 9   -314044.59649  21091586.079    21091585.4194   21091592.0874
        -0.000          -0.000
   1776144.029 9   1380135.41548  21731435.467    21731435.4704   21731440.9364
        -0.000          -0.000
   -309775.880 9   -236829.56849  21018856.568    21018856.4694   21018861.6214
        -0.000          -0.000
  -3909517.635 9  -2768135.56546  24121150.837    24121149.9664   24121157.6504
        -0.000          -0.000
   4694285.572 8   3646243.33845  24341945.982    24341945.2324   24341952.7524
        -0.000          -0.000
  -6463925.435 9  -5013174.62647  22550927.452    22550927.3284   22550934.3304
        -0.000          -0.000
 98  6 25  3 49  0.0010000  0  7  1 15 29 25 22 21 14                0.000999981
   4037523.765 9   3139105.90146  24038581.424    24038580.8074   24038587.7794
        -0.000          -0.000
   -563974.306 9   -293289.89549  21096654.652    21096653.9404   21096660.5934
        -0.000          -0.000
   1820496.000 9   1414695.41448  21739875.457    21739875.3774   21739880.8054
        -0.000          -0.000
   -283339.264 9   -216229.59749  21023887.296    21023887.2064   21023892.3444
        -0.000          -0.000
  -4002662.766 8  -2840716.05545  24103425.489    24103424.7774   24103432.5674
        -0.000          -0.000
   4785843.632 8   3717587.27745  24359368.669    24359368.0404   24359375.6834
        -0.000          -0.000
  -6543444.764 9  -5075137.70247  22535795.560    22535795.3644   22535802.3164
        -0.000          -0.000
 98  6 25  3 49 30.0010000  0  7  1 15 29 25 22 21 14                0.000999982
   4110105.039 9   3195662.75146  24052392.966    24052392.5454   24052399.6304
        -0.000          -0.000
   -536713.681 9   -272047.87649  21101842.197    21101841.4794   21101848.1604
        -0.000          -0.000
   1864962.472 9   1449344.63648  21748337.184    21748337.0804   21748342.5024
        -0.000          -0.000
   -256417.699 9   -195251.74849  21029010.273    21029010.1594   21029015.3034
        -0.000          -0.000
  -4095759.692 9  -2913259.00445  24085709.963    24085709.0004   24085716.6564
        -0.000          -0.000
   4877639.570 8   3789116.55145  24376837.021    24376836.1774   24376843.8714
        -0.000          -0.000
  -6622832.913 9  -5136998.56447  22520688.420    22520688.2824   22520695.1964
        -0.000          -0.000
 98  6 25  3 50  0.0010000  0  7  1 15 29 25 22 21 14                0.000999988
   4182691.907 9   3252223.96546  24066205.593    24066205.3034   24066212.4174
        -0.000          -0.000
   -508842.083 9   -250329.75949  21107146.004    21107145.2974   21107152.0154
        -0.000          -0.000
   1909527.231 9   1484070.44048  21756817.520    21756817.4394   21756822.9944
        -0.000          -0.000
   -229025.253 9   -173906.97249  21034222.805    21034222.7314   21034227.9264
        -0.000          -0.000
  -4188813.188 8  -2985768.11745  24068002.331    24068001.3204   24068008.8794
        -0.000          -0.000
   4969664.083 8   3860823.97545  24394348.912    24394347.9254   24394355.5254
        -0.000          -0.000
  -6702096.590 9  -5198762.43447  22505605.091    22505604.8444   22505611.7854
        -0.000          -0.000
 98  6 25  3 50 30.0010000  0  7  1 15 29 25 22 21 14                0.001000002
   4255276.349 9   3308783.27946  24080017.793    24080017.4824   24080024.6884
        -0.000          -0.000
   -480367.035 9   -228141.42049  21112564.633    21112563.9464   21112570.6534
        -0.000          -0.000
   1954167.853 9   1518855.34348  21765312.370    21765312.3084   21765317.9124
        -0.000          -0.000
   -201173.574 9   -152204.35149  21039522.760    21039522.6824   21039527.9344
        -0.000          -0.000
  -4281825.653 8  -3058245.26145  24050302.201    24050301.3534   24050308.9804
        -0.000          -0.000
   5061912.481 8   3932705.83345  24411902.594    24411901.7634   24411909.8194
        -0.000          -0.000
  -6781233.987 9  -5260427.89947  22490545.697    22490545.4494   22490552.4424
        -0.000          -0.000
 98  6 25  3 51  0.0010000  0  7  1 15 29 25 22 21 14                0.001000016
   4327847.721 9   3365332.40546  24093827.737    24093827.3404   24093834.5274
        -0.000          -0.000
   -451307.296 9   -205497.47049  21118094.495    21118093.8484   21118100.5304
        -0.000          -0.000
   1998883.604 9   1553698.80648  21773821.507    21773821.3874   21773826.9914
        -0.000          -0.000
   -172880.987 9   -130158.16749  21044906.715    21044906.5944   21044911.8354
        -0.000          -0.000
  -4374814.576 9  -3130704.04745  24032607.062    24032606.0934   24032613.8444
        -0.000          -0.000
   5154363.236 8   4004745.36045  24429495.066    24429494.5434   24429502.2884
        -0.000          -0.000
  -6860253.784 9  -5322001.73747  22475508.764    22475508.4594   22475515.3484
        -0.000          -0.000
 98  6 25  3 51 30.0010000  0  7  1 15 29 25 22 21 14                0.001000031
   4400423.464 9   3421884.95446  24107638.787    24107638.1194   24107645.1914
        -0.000          -0.000
   -421660.895 9   -182396.38649  21123736.105    21123735.4324   21123742.0934
        -0.000          -0.000
   2043692.620 9   1588614.93848  21782348.253    21782348.2544   21782353.7384
        -0.000          -0.000
   -144145.404 9   -107766.78849  21050374.872    21050374.7394   21050380.0504
        -0.000          -0.000
  -4467776.523 9  -3203141.83745  24014916.858    24014915.9504   24014923.7244
        -0.000          -0.000
   5247012.770 8   4076939.77245  24447125.557    24447125.1584   24447132.7574
        -0.000          -0.000
  -6939152.763 9  -5383481.42147  22460494.845    22460494.5034   22460501.3544
        -0.000          -0.000
 98  6 25  3 52  0.0010000  0  7  1 15 29 25 22 21 14                0.001000047
   4473001.894 9   3478439.55146  24121450.221    24121449.4084   24121456.2954
        -0.000          -0.000
   -391426.945 9   -158837.46649  21129489.464    21129488.7594   21129495.4254
        -0.000          -0.000
   2088595.281 9   1623604.04248  21790893.019    21790892.9984   21790898.3204
        -0.000          -0.000
   -114962.818 9    -85027.09249  21055928.037    21055927.9744   21055933.2734
        -0.000          -0.000
  -4560714.306 9  -3275560.79245  23997231.328    23997230.5334   23997238.3614
        -0.000          -0.000
   5339866.110 8   4149293.05045  24464794.620    24464794.2454   24464802.1124
        -0.000          -0.000
  -7017924.219 9  -5444861.74347  22445505.191    22445504.8604   22445511.6224
        -0.000          -0.000
 98  6 25  3 52 30.0010000  0  7  1 15 29 25 22 21 14                0.001000060
   4545593.039 9   3535004.08746  24135263.972    24135263.1354   24135269.9184
        -0.000          -0.000
   -360608.265 9   -134822.91049  21135354.065    21135353.3394   21135360.0184
        -0.000          -0.000
   2133601.807 9   1658674.07048  21799457.542    21799457.4404   21799462.6894
        -0.000          -0.000
    -85332.284 9    -61938.34049  21061566.582    21061566.4614   21061571.7894
        -0.000          -0.000
  -4653633.833 9  -3347965.51645  23979549.495    23979548.5144   23979556.2914
        -0.000          -0.000
   5432933.827 8   4221813.34245  24482504.623    24482504.2554   24482512.5244
        -0.000          -0.000
  -7096573.168 9  -5506146.60747  22430538.638    22430538.3914   22430545.2544
        -0.000          -0.000
 98  6 25  3 53  0.0010000  0  7  1 15 29 25 22 21 14                0.001000063
   4618179.748 9   3591565.18746  24149076.689    24149076.0124   24149082.8194
        -0.000          -0.000
   -329210.081 9   -110356.78849  21141328.962    21141328.2234   21141334.9024
        -0.000          -0.000
   2178715.430 9   1693827.54848  21808042.259    21808042.2174   21808047.5344
        -0.000          -0.000
    -55263.865 9    -38508.39449  21067288.392    21067288.2904   21067293.5924
        -0.000          -0.000
  -4746555.922 9  -3420372.27046  23961867.203    23961866.2054   23961873.9454
        -0.000          -0.000
   5526221.815 8   4294505.27345  24500256.610    24500256.4844   24500264.3264
        -0.000          -0.000
  -7175109.694 9  -5567343.86347  22415593.625    22415593.3184   22415600.1684
        -0.000          -0.000
 98  6 25  3 53 30.0010000  0  7  1 15 29 25 22 21 14                0.001000068
   4690767.912 9   3648127.41246  24162889.733    24162889.2304   24162895.9284
        -0.000          -0.000
   -297205.010 9    -85417.77949  21147419.323    21147418.5674   21147425.2634
        -0.000          -0.000
   2223952.368 9   1729077.11348  21816650.559    21816650.4874   21816655.9184
        -0.000          -0.000
    -24728.788 9    -14714.80949  21073099.050    21073098.9074   21073104.2184
        -0.000          -0.000
  -4839448.744 9  -3492756.20746  23944190.117    23944189.3124   23944197.1764
        -0.000          -0.000
   5619761.303 8   4367393.18645  24518056.809    24518056.5324   24518064.4304
        -0.000          -0.000
  -7253508.775 9  -5628434.01547  22400674.778    22400674.4664   22400681.3404
        -0.000          -0.000
 98  6 25  3 54  0.0010000  0  7  1 15 29 25 22 21 14                0.001000082
   4763355.714 9   3704689.32046  24176702.582    24176702.0484   24176708.9784
        -0.000          -0.000
   -264586.230 9    -60000.55249  21153626.450    21153625.7504   21153632.3804
        -0.000          -0.000
   2269308.519 9   1764419.59048  21825281.379    21825281.4024   21825286.9494
        -0.000          -0.000
      6276.082 9      9444.84249  21078999.029    21078998.9034   21079004.2314
        -0.000          -0.000
  -4932289.952 9  -3565099.91446  23926523.425    23926522.2644   23926530.0704
        -0.000          -0.000
   5713557.834 8   4440481.39345  24535905.409    24535905.5074   24535913.4214
        -0.000          -0.000
  -7331758.140 9  -5689407.50747  22385784.427    22385784.1244   22385790.9184
        -0.000          -0.000
 98  6 25  3 54 30.0010000  0  7  1 15 29 25 22 21 14                0.001000095
   4835914.887 9   3761228.96446  24190510.129    24190509.6084   24190516.5304
        -0.000          -0.000
   -231370.117 9    -34117.87649  21159947.256    21159946.5844   21159953.1994
        -0.000          -0.000
   2314771.288 9   1799845.15048  21833932.615    21833932.6534   21833938.2304
        -0.000          -0.000
     37722.461 9     33948.52949  21084983.173    21084982.9904   21084988.3094
        -0.000          -0.000
  -5025088.999 9  -3637410.76946  23908863.832    23908862.9584   23908870.9204
        -0.000          -0.000
   5807579.532 9   4513745.08345  24553797.269    24553797.2394   24553804.9114
        -0.000          -0.000
  -7409871.092 9  -5750274.70348  22370919.945    22370919.7144   22370926.4244
        -0.000          -0.000
 98  6 25  3 55  0.0010000  0  7  1 15 29 25 22 21 14                0.001000107
   4908449.033 9   3817749.10446  24204312.884    24204312.4334   24204319.3734
        -0.000          -0.000
   -197552.114 9     -7766.19449  21166382.541    21166381.8794   21166388.5444
        -0.000          -0.000
   2360335.976 9   1835350.10648  21842603.288    21842603.3804   21842608.9644
        -0.000          -0.000
     69607.620 9     58794.11849  21091050.703    21091050.5204   21091055.8974
        -0.000          -0.000
  -5117822.898 9  -3709670.85446  23891217.188    23891216.3154   23891224.2714
        -0.000          -0.000
   5901803.077 8   4587166.03245  24571727.818    24571727.6074   24571735.1154
        -0.000          -0.000
  -7487845.430 9  -5811033.89448  22356081.900    22356081.7074   22356088.3734
        -0.000          -0.000
 98  6 25  3 55 30.0010000  0  7  1 15 29 25 22 21 14                0.001000112
   4980971.093 9   3874259.81146  24218113.566    24218113.0794   24218119.8694
        -0.000          -0.000
   -163133.594 9     19053.42449  21172932.118    21172931.5254   21172938.2374
        -0.000          -0.000
   2406003.431 9   1870935.13048  21851293.720    21851293.6744   21851299.1714
        -0.000          -0.000
    101951.438 9     83997.11449  21097205.462    21097205.3094   21097210.6934
        -0.000          -0.000
  -5210455.026 9  -3781851.65846  23873589.538    23873588.7794   23873596.9104
        -0.000          -0.000
   5996216.769 8   4660735.14345  24589694.173    24589693.6504   24589701.3524
        -0.000          -0.000
  -7565678.848 9  -5871683.27948  22341270.658    22341270.4804   22341277.1074
        -0.000          -0.000
 98  6 25  3 56  0.0010000  0  6  1 15 29 25 22 14                   0.001000018
   5053531.439 9   3930800.35345  24231921.366    24231920.9014   24231927.5814
        -0.000          -0.000
   -128075.054 9     46371.75349  21179603.504    21179602.9264   21179609.6484
        -0.000          -0.000
   2451816.793 9   1906633.86148  21860011.822    21860011.7294   21860017.1284
        -0.000          -0.000
    134792.186 9    109587.31149  21103454.756    21103454.6124   21103460.0834
        -0.000          -0.000
  -5302931.812 9  -3853911.41546  23855991.530    23855990.8924   23855999.0004
        -0.000          -0.000
  -7643325.347 9  -5932187.00548  22326495.114    22326494.8194   22326501.4504
        -0.000          -0.000
 98  6 25  3 56 30.0010000  0  6  1 15 29 25 22 14                   0.001000041
   5126090.879 9   3987340.18845  24245728.860    24245728.4414   24245735.2254
        -0.000          -0.000
    -92420.999 9     74154.12149  21186388.296    21186387.7094   21186394.4164
        -0.000          -0.000
   2497736.642 9   1942415.58648  21868750.100    21868750.0104   21868755.3094
        -0.000          -0.000
    168102.495 9    135543.41149  21109793.490    21109793.4044   21109798.8504
        -0.000          -0.000
  -5395302.315 9  -3925888.32446  23838413.866    23838413.0904   23838421.3134
        -0.000          -0.000
  -7720819.047 9  -5992571.65848  22311748.534    22311748.2684   22311754.9514
        -0.000          -0.000
 98  6 25  3 57  0.0010000  0  6  1 15 29 25 22 14                   0.001000050
   5198634.845 9   4043867.96145  24259533.199    24259532.9644   24259539.9104
        -0.000          -0.000
    -56195.757 9    102381.57449  21193281.792    21193281.1474   21193287.8554
        -0.000          -0.000
   2543734.412 9   1978258.01048  21877503.079    21877502.9704   21877508.3034
        -0.000          -0.000
    201875.573 9    161860.10249  21116220.298    21116220.1554   21116225.7024
        -0.000          -0.000
  -5487580.325 9  -3997793.18946  23820853.681    23820853.0174   23820861.1884
        -0.000          -0.000
  -7798181.577 9  -6052854.10648  22297026.815    22297026.5404   22297033.2984
        -0.000          -0.000
 98  6 25  3 57 30.0010000  0  6  1 15 29 25 22 14                   0.001000052
   5271168.111 9   4100387.39346  24273335.793    24273335.5804   24273342.4624
        -0.000          -0.000
    -19392.909 9    131059.10648  21200285.176    21200284.4884   21200291.2104
        -0.000          -0.000
   2589824.112 9   2014172.06748  21886273.491    21886273.4584   21886278.8894
        -0.000          -0.000
    236118.061 9    188542.56849  21122736.387    21122736.3044   21122741.8294
        -0.000          -0.000
  -5579761.393 9  -4069622.47046  23803312.002    23803311.2114   23803319.3694
        -0.000          -0.000
  -7875390.657 9  -6113016.99148  22282334.252    22282334.1214   22282340.8434
        -0.000          -0.000
 98  6 25  3 58  0.0010000  0  6  1 15 29 25 22 14                   0.001000058
   5343695.294 9   4156902.08946  24287137.189    24287137.0254   24287143.9054
        -0.000          -0.000
     17994.431 9    160192.08348  21207399.804    21207399.0734   21207405.7944
        -0.000          -0.000
   2636014.642 9   2050164.69048  21895063.212    21895063.2334   21895068.7194
        -0.000          -0.000
    270807.046 9    215572.94849  21129337.538    21129337.4144   21129342.9184
        -0.000          -0.000
  -5671861.766 9  -4141388.91146  23785785.882    23785785.0434   23785793.1954
        -0.000          -0.000
  -7952431.737 9  -6173048.95248  22267673.811    22267673.6614   22267680.3234
        -0.000          -0.000
 98  6 25  3 58 30.0010000  0  6  1 15 29 25 22 14                   0.001000058
   5416212.529 9   4213409.04146  24300936.734    24300936.5924   24300943.5004
        -0.000          -0.000
     55960.600 9    189776.10948  21214624.594    21214623.7924   21214630.5544
        -0.000          -0.000
   2682305.306 9   2086235.33748  21903872.040    21903872.0854   21903877.6094
        -0.000          -0.000
    305946.292 9    242954.18949  21136024.337    21136024.2354   21136029.7184
        -0.000          -0.000
  -5763884.981 9  -4213095.22446  23768274.462    23768273.6174   23768281.5274
        -0.000          -0.000
  -8029309.596 9  -6232953.72948  22253044.341    22253044.2184   22253050.8394
        -0.000          -0.000
 98  6 25  3 59  0.0010000  0  6  1 15 29 25 22 14                   0.001000063
   5488726.786 9   4269913.65146  24314735.865    24314735.6394   24314742.4284
        -0.000          -0.000
     94514.155 9    219817.82448  21221961.126    21221960.3124   21221967.0794
        -0.000          -0.000
   2728707.271 9   2122392.72048  21912702.213    21912702.1924   21912707.6064
        -0.000          -0.000
    341531.108 9    270682.62149  21142795.921    21142795.8174   21142801.3354
        -0.000          -0.000
  -5855808.836 9  -4284724.11846  23750781.834    23750781.0764   23750788.7264
        -0.000          -0.000
  -8106019.862 9  -6292727.91748  22238446.833    22238446.6644   22238453.3654
        -0.000          -0.000
 98  6 25  3 59 30.0010000  0  6  1 15 29 25 22 14                   0.001000067
   5561233.606 9   4326412.48846  24328533.499    24328533.1584   24328539.9424
        -0.000          -0.000
    133645.082 9    250309.44648  21229407.448    21229406.6884   21229413.4544
        -0.000          -0.000
   2775211.709 9   2158629.94548  21921551.757    21921551.6364   21921557.0024
        -0.000          -0.000
    377549.189 9    298748.66649  21149650.034    21149649.8824   21149655.3104
        -0.000          -0.000
  -5947649.569 9  -4356288.23646  23733305.175    23733304.3454   23733311.7974
        -0.000          -0.000
  -8182567.730 9  -6352375.57248  22223880.293    22223880.0684   22223886.8454
        -0.000          -0.000
 98  6 25  4  0  0.0010000  0  6  1 15 29 25 22 14                   0.001000068
   5633736.476 9   4382908.23846  24342330.479    24342329.8764   24342336.7194
        -0.000          -0.000
    173349.802 9    281248.17248  21236962.970    21236962.2774   21236969.0254
        -0.000          -0.000
   2821813.337 9   2194942.89948  21930419.582    21930419.5364   21930424.8704
        -0.000          -0.000
    414005.312 9    327156.03649  21156587.352    21156587.2094   21156592.6614
        -0.000          -0.000
  -6039405.562 9  -4427786.33746  23715844.857    23715843.8734   23715851.0494
        -0.000          -0.000
  -8258957.380 9  -6411899.95048  22209343.948    22209343.6814   22209350.3944
        -0.000          -0.000
 98  6 25  4  0 30.0010000  0  6  1 15 29 25 22 14                   0.001000061
   5706256.573 9   4439417.40746  24356130.645    24356129.9524   24356136.8744
        -0.000          -0.000
    213646.397 9    312648.10048  21244631.115    21244630.4884   21244637.2154
        -0.000          -0.000
   2868532.558 9   2231347.49148  21939310.020    21939309.9714   21939315.1894
        -0.000          -0.000
    450940.330 9    355936.56949  21163615.919    21163615.7244   21163621.1834
        -0.000          -0.000
  -6131045.048 9  -4499193.63446  23698406.480    23698405.4754   23698412.6194
        -0.000          -0.000
  -8335174.482 9  -6471289.86848  22194840.293    22194840.0024   22194846.7884
        -0.000          -0.000
 98  6 25  4  1  0.0010000  0  6  1 15 29 25 22 14                   0.001000066
   5778805.715 9   4495949.21446  24369936.217    24369935.5944   24369942.5534
        -0.000          -0.000
    254540.304 9    344513.47148  21252413.004    21252412.3614   21252419.0744
        -0.000          -0.000
   2915370.115 9   2267844.30048  21948223.015    21948222.9414   21948228.1664
        -0.000          -0.000
    488341.361 9    385080.24449  21170733.042    21170732.8974   21170738.3234
        -0.000          -0.000
  -6222566.493 9  -4570508.97046  23680990.536    23680989.4924   23680996.6864
        -0.000          -0.000
  -8411206.106 9  -6530535.27048  22180371.828    22180371.6584   22180378.3364
        -0.000          -0.000
 98  6 25  4  1 30.0010000  0  6  1 15 29 25 22 14                   0.001000081
   5851379.456 9   4552500.17846  24383746.640    24383745.9944   24383753.0174
        -0.000          -0.000
    296021.838 9    376836.73848  21260306.638    21260305.9864   21260312.7344
        -0.000          -0.000
   2962314.942 9   2304424.68048  21957156.142    21957156.1474   21957161.5994
        -0.000          -0.000
    526195.553 9    414577.02349  21177936.525    21177936.3304   21177941.7714
        -0.000          -0.000
  -6313979.469 9  -4641739.77446  23663594.978    23663594.0554   23663601.3834
        -0.000          -0.000
  -8487056.501 9  -6589639.44748  22165937.842    22165937.7414   22165944.3404
        -0.000          -0.000
 98  6 25  4  2  0.0010000  0  6  1 15 29 25 22 14                   0.001000092
   5923928.749 9   4609032.11846  24397552.194    24397551.6174   24397558.7384
        -0.000          -0.000
    338056.838 9    409591.26748  21268305.668    21268305.0194   21268311.7384
        -0.000          -0.000
   3009341.285 9   2341068.58748  21966104.790    21966104.8724   21966110.4354
        -0.000          -0.000
    564454.547 9    444389.23449  21185216.915    21185216.7804   21185222.1974
        -0.000          -0.000
  -6405303.651 9  -4712901.40646  23646216.214    23646215.6454   23646223.0114
        -0.000          -0.000
  -8562747.320 9  -6648619.27648  22151534.408    22151534.2824   22151540.7724
        -0.000          -0.000
 98  6 25  4  2 30.0010000  0  6  1 15 29 25 22 14                   0.001000108
   5996460.697 9   4665550.52746  24411354.739    24411354.0624   24411361.1674
        -0.000          -0.000
    380660.159 9    442788.64648  21276412.837    21276412.1764   21276418.8844
        -0.000          -0.000
   3056471.666 9   2377793.56748  21975073.565    21975073.5434   21975079.0154
        -0.000          -0.000
    603123.279 9    474520.72249  21192575.318    21192575.1664   21192580.5704
        -0.000          -0.000
  -6496512.811 9  -4783973.39346  23628859.928    23628859.2124   23628866.5144
        -0.000          -0.000
  -8638271.963 9  -6707469.62348  22137162.642    22137162.4114   22137168.8394
        -0.000          -0.000
 98  6 25  4  3  0.0010000  0  6  1 15 29 25 22 14                   0.001000121
   6068960.905 9   4722044.20546  24425150.975    24425150.4104   24425157.5484
        -0.000          -0.000
    423810.281 9    476412.11048  21284624.060    21284623.3924   21284630.0864
        -0.000          -0.000
   3103677.556 9   2414577.37448  21984056.706    21984056.5544   21984061.9034
        -0.000          -0.000
    642172.160 9    504948.43249  21200006.037    21200005.9314   21200011.3804
        -0.000          -0.000
  -6587624.492 9  -4854969.42246  23611521.582    23611520.9244   23611528.6474
        -0.000          -0.000
  -8713647.413 9  -6766203.71448  22122819.233    22122818.9714   22122825.3914
        -0.000          -0.000
 98  6 25  4  3 30.0010000  0  6  1 15 29 25 22 14                   0.001000125
   6141439.003 9   4778520.65346  24438943.097    24438942.5224   24438949.6284
        -0.000          -0.000
    467520.872 9    510472.30048  21292942.008    21292941.2344   21292947.9824
        -0.000          -0.000
   3150984.783 9   2451440.14848  21993058.811    21993058.7824   21993064.1534
        -0.000          -0.000
    681630.032 9    535694.82649  21207514.744    21207514.5834   21207519.9324
        -0.000          -0.000
  -6678625.311 9  -4925879.09846  23594204.603    23594203.9634   23594211.6594
        -0.000          -0.000
  -8788862.274 9  -6824812.67448  22108506.189    22108505.9904   22108512.4544
        -0.000          -0.000
 98  6 25  4  4  0.0010000  0  6  1 15 29 25 22 14                   0.001000109
   6213901.229 9   4834984.72746  24452732.389    24452731.7264   24452738.6994
        -0.000          -0.000
    511802.191 9    544977.21348  21301368.402    21301367.6704   21301374.4564
        -0.000          -0.000
   3198411.140 9   2488395.74548  22002083.709    22002083.7244   22002089.0954
        -0.000          -0.000
    721516.858 9    566775.48149  21215104.980    21215104.8484   21215110.1854
        -0.000          -0.000
  -6769508.931 9  -4996697.42646  23576910.139    23576909.2264   23576916.9744
        -0.000          -0.000
  -8863912.557 9  -6883293.38748  22094224.615    22094224.3674   22094230.8584
        -0.000          -0.000
 98  6 25  4  4 30.0010000  0  6  1 15 29 25 22 14                   0.001000086
   6286382.351 9   4891463.50946  24466525.168    24466524.5574   24466531.2184
        -0.000          -0.000
    556666.157 9    579936.12748  21309905.761    21309905.0204   21309911.8604
        -0.000          -0.000
   3245957.924 9   2525445.20048  22011131.607    22011131.6114   22011136.8594
        -0.000          -0.000
    761862.050 9    598213.29449  21222782.420    21222782.2844   21222787.5904
        -0.000          -0.000
  -6860261.874 9  -5067413.94446  23559640.268    23559639.4514   23559647.2904
        -0.000          -0.000
  -8938779.698 9  -6941631.38948  22079977.907    22079977.5404   22079984.2054
        -0.000          -0.000
 98  6 25  4  5  0.0010000  0  6  1 15 29 25 22 14                   0.001000074
   6358898.291 9   4947969.43046  24480324.346    24480323.8954   24480330.3734
        -0.000          -0.000
    602128.088 9    615360.99948  21318556.866    21318556.1314   21318562.9734
        -0.000          -0.000
   3293641.241 9   2562601.04748  22020205.523    22020205.4794   22020210.6874
        -0.000          -0.000
    802684.858 9    630023.28749  21230550.773    21230550.6654   21230555.9284
        -0.000          -0.000
  -6950873.469 9  -5138020.29446  23542397.586    23542396.5894   23542404.3704
        -0.000          -0.000
  -9013419.419 9  -6999792.20548  22065774.413    22065774.0924   22065780.7094
        -0.000          -0.000
 98  6 25  4  5 30.0010000  0  6  1 15 29 25 22 14                   0.001000065
   6431420.768 9   5004480.43845  24494124.914    24494124.4214   24494130.6844
        -0.000          -0.000
    648176.542 9    651242.90948  21327319.572    21327318.8944   21327325.7354
        -0.000          -0.000
   3341458.876 9   2599861.55248  22029304.869    22029304.8104   22029310.1504
        -0.000          -0.000
    843976.622 9    662198.69349  21238408.399    21238408.2364   21238413.4724
        -0.000          -0.000
  -7041332.720 9  -5208507.94646  23525183.629    23525182.6554   23525190.3784
        -0.000          -0.000
  -9087826.196 9  -7057771.48648  22051615.279    22051614.9754   22051621.5524
        -0.000          -0.000
 98  6 25  4  6  0.0010000  0  6  1 15 29 25 22 14                   0.001000064
   6503925.271 9   5060977.43045  24507922.054    24507921.5104   24507927.6444
        -0.000          -0.000
    694779.171 9    687556.63548  21336187.747    21336187.0854   21336193.9294
        -0.000          -0.000
   3389358.183 9   2637185.68748  22038419.799    22038419.7394   22038425.2134
        -0.000          -0.000
    885699.799 9    694710.26649  21246348.055    21246347.9194   21246353.1164
        -0.000          -0.000
  -7131644.265 9  -5278880.51846  23507998.105    23507996.9524   23508004.4944
        -0.000          -0.000
  -9162015.878 9  -7115581.59948  22037497.462    22037497.1884   22037503.6864
        -0.000          -0.000
 98  6 25  4  6 30.0010000  0  6  1 15 29 25 22 14                   0.001000079
   6576406.201 8   5117456.08545  24521714.721    24521714.0314   24521720.1234
        -0.000          -0.000
    741921.713 9    724291.06948  21345158.677    21345158.0344   21345164.8684
        -0.000          -0.000
   3437326.199 9   2674563.35348  22047547.823    22047547.7604   22047553.2744
        -0.000          -0.000
    927834.713 9    727542.67449  21254366.109    21254365.9194   21254371.1254
        -0.000          -0.000
  -7221800.531 9  -5349132.10446  23490841.794    23490840.8394   23490848.1634
        -0.000          -0.000
  -9235985.149 9  -7173219.97448  22023421.441    22023421.2434   22023427.7004
        -0.000          -0.000
 98  6 25  4  7  0.0010000  0  6  1 15 29 25 22 14                   0.001000092
   6648840.335 8   5173898.28945  24535498.132    24535497.5784   24535503.8114
        -0.000          -0.000
    789584.532 9    761430.92248  21354228.638    21354228.0154   21354234.8154
        -0.000          -0.000
   3485354.227 9   2711987.79148  22056687.242    22056687.1834   22056692.6354
        -0.000          -0.000
    970352.620 9    760673.51849  21262456.865    21262456.7284   21262461.9854
        -0.000          -0.000
  -7311814.491 9  -5419272.80346  23473712.748    23473711.7284   23473718.9554
        -0.000          -0.000
  -9309764.053 9  -7230710.00348  22009381.638    22009381.5224   22009388.0564
        -0.000          -0.000
 98  6 25  4  7 30.0010000  0  6  1 15 29 25 22 14                   0.001000106
   6721233.559 8   5230308.61845  24549273.805    24549273.3724   24549279.9654
        -0.000          -0.000
    837760.245 9    798970.43448  21363396.140    21363395.5194   21363402.2874
        -0.000          -0.000
   3533428.542 9   2749448.31448  22065835.407    22065835.3304   22065840.7504
        -0.000          -0.000
   1013242.479 9    794094.19149  21270618.636    21270618.4374   21270623.6894
        -0.000          -0.000
  -7401686.912 9  -5489303.19246  23456610.509    23456609.5874   23456616.7604
        -0.000          -0.000
  -9383364.825 9  -7288061.22648  21995375.813    21995375.7384   21995382.2814
        -0.000          -0.000
 98  6 25  4  8  0.0010000  0  6  1 15 29 25 22 14                   0.001000127
   6793593.571 8   5286693.04745  24563043.096    24563042.7904   24563049.8484
        -0.000          -0.000
    886436.597 9    836900.03948  21372658.922    21372658.2874   21372665.1464
        -0.000          -0.000
   3581542.468 9   2786939.69548  22074991.102    22074991.0124   22074996.4114
        -0.000          -0.000
   1056476.224 9    827782.83349  21278845.664    21278845.4824   21278850.7794
        -0.000          -0.000
  -7491442.536 9  -5559242.58646  23439530.686    23439529.7214   23439536.7954
        -0.000          -0.000
  -9456806.447 9  -7345288.44048  21981400.475    21981400.3234   21981406.8264
        -0.000          -0.000
 98  6 25  4  8 30.0010000  0  6  1 15 29 25 22 14                   0.001000130
   6865909.479 8   5343043.08245  24576804.116    24576803.8834   24576811.4834
        -0.000          -0.000
    935598.228 9    875207.79048  21382014.114    21382013.4404   21382020.2894
        -0.000          -0.000
   3629704.260 9   2824468.37648  22084155.994    22084155.8874   22084161.2914
        -0.000          -0.000
   1100042.103 9    861730.27749  21287136.059    21287135.7934   21287141.0574
        -0.000          -0.000
  -7581109.224 9  -5629112.69646  23422467.625    23422466.6744   23422473.6954
        -0.000          -0.000
  -9530109.809 9  -7402407.91048  21967451.385    21967451.2104   21967457.6784
        -0.000          -0.000
 98  6 25  4  9  0.0010000  0  7  1 15 29 25 22 16 14                0.001000116
   6938192.208 8   5399367.27345  24590558.824    24590558.7104   24590566.6474
        -0.000          -0.000
    985263.615 9    913908.07648  21391465.065    21391464.4274   21391471.2814
        -0.000          -0.000
   3677924.509 9   2862042.59548  22093332.064    22093331.9644   22093337.3484
        -0.000          -0.000
   1143959.609 9    895951.71649  21295493.133    21295492.9274   21295498.2534
        -0.000          -0.000
  -7670676.390 9  -5698905.19346  23405423.431    23405422.5244   23405429.7234
        -0.000          -0.000
  -2769082.214 8  -2132877.59145  24924034.330    24924033.1424   24924041.5484
        -0.000          -0.000
  -9603253.970 9  -7459403.32748  21953532.533    21953532.3364   21953538.7604
        -0.000          -0.000
 98  6 25  4  9 30.0010000  0  7  1 15 29 25 22 16 14                0.001000057
   7010491.187 9   5455704.15445  24604317.005    24604316.8154   24604324.9834
        -0.000          -0.000
   1035492.395 9    953047.38048  21401023.343    21401022.6404   21401029.4414
        -0.000          -0.000
   3726264.610 9   2899710.21248  22102530.965    22102530.9264   22102536.2694
        -0.000          -0.000
   1188289.832 9    930494.75049  21303928.964    21303928.7174   21303933.9974
        -0.000          -0.000
  -7760079.239 9  -5768569.70846  23388410.219    23388409.6024   23388416.9044
        -0.000          -0.000
  -2865379.391 8  -2207914.29145  24905708.921    24905707.9584   24905716.5294
        -0.000          -0.000
  -9676179.346 9  -7516228.26548  21939655.279    21939655.0134   21939661.4524
        -0.000          -0.000
 98  6 25  4 10  0.0010000  0  7  1 15 29 25 22 16 14                0.001000018
   7082827.837 9   5512070.38045  24618082.349    24618082.0764   24618090.5324
        -0.000          -0.000
   1086314.769 9    992649.22148  21410694.572    21410693.8654   21410700.6604
        -0.000          -0.000
   3774761.021 9   2937499.63048  22111759.547    22111759.5084   22111764.9054
        -0.000          -0.000
   1233080.333 9    965396.44449  21312452.254    21312452.0374   21312457.3194
        -0.000          -0.000
  -7849284.181 9  -5838079.99346  23371435.261    23371434.5134   23371441.8164
        -0.000          -0.000
  -2961665.308 8  -2282942.27145  24887385.794    24887385.0424   24887393.5624
        -0.000          -0.000
  -9748862.393 9  -7572864.37748  21925824.013    21925823.8084   21925830.2564
        -0.000          -0.000
 98  6 25  4 10 30.0010000  0  7  1 15 29 25 22 16 14                0.000999984
   7155171.833 9   5568442.35745  24631849.171    24631848.9954   24631857.2694
        -0.000          -0.000
   1137700.954 9   1032690.38748  21420473.035    21420472.3254   21420479.1034
        -0.000          -0.000
   3823385.140 9   2975388.55348  22121012.232    22121012.2824   22121017.7674
        -0.000          -0.000
   1278325.719 9   1000652.59549  21321062.146    21321061.9964   21321067.2464
        -0.000          -0.000
  -7938311.559 9  -5907451.91146  23354493.855    23354493.0524   23354500.4524
        -0.000          -0.000
  -3057949.311 8  -2357968.72645  24869063.906    24869062.7664   24869071.3764
        -0.000          -0.000
  -9821330.757 9  -7629333.20248  21912033.762    21912033.5254   21912039.9444
        -0.000          -0.000
 98  6 25  4 11  0.0010000  0  7  1 15 29 25 22 16 14                0.000999962
   7227516.336 9   5624814.71745  24645616.088    24645615.7954   24645623.9884
        -0.000          -0.000
   1189650.742 9   1073170.72548  21430358.815    21430358.0824   21430364.7594
        -0.000          -0.000
   3872134.644 9   3013375.19448  22130288.952    22130288.9604   22130294.4664
        -0.000          -0.000
   1324020.556 9   1036258.96649  21329757.595    21329757.3764   21329762.5894
        -0.000          -0.000
  -8027148.970 9  -5976675.82646  23337588.400    23337587.6944   23337595.2114
        -0.000          -0.000
  -3154208.941 8  -2432976.13545  24850746.301    24850745.1274   24850753.8234
        -0.000          -0.000
  -9893578.662 9  -7685630.24048  21898285.531    21898285.2034   21898291.6154
        -0.000          -0.000
 98  6 25  4 11 30.0010000  0  7  1 15 29 25 22 16 14                0.000999958
   7299872.605 9   5681196.23545  24659385.123    24659384.6444   24659392.8714
        -0.000          -0.000
   1242159.980 9   1114087.00948  21440351.049    21440350.2944   21440356.9804
        -0.000          -0.000
   3921014.975 9   3051463.78548  22139590.477    22139590.5514   22139596.0924
        -0.000          -0.000
   1370162.402 9   1072213.66849  21338538.008    21338537.8684   21338543.0354
        -0.000          -0.000
  -8115794.538 9  -6045750.20646  23320719.747    23320718.9134   23320726.3504
        -0.000          -0.000
  -3250436.604 8  -2507958.70845  24832434.688    24832433.6544   24832442.2394
        -0.000          -0.000
  -9965613.011 9  -7741760.86548  21884577.743    21884577.5024   21884583.8964
        -0.000          -0.000
 98  6 25  4 12  0.0010000  0  7  1 15 29 25 22 16 14                0.000999969
   7372252.268 9   5737595.97445  24673158.449    24673158.2084   24673166.1314
        -0.000          -0.000
   1295209.579 9   1155424.33948  21450446.065    21450445.2964   21450451.9794
        -0.000          -0.000
   3970000.129 9   3089634.03548  22148911.930    22148912.0174   22148917.6244
        -0.000          -0.000
   1416735.600 9   1108504.47849  21347400.605    21347400.4224   21347405.6024
        -0.000          -0.000
  -8204266.040 9  -6114688.98946  23303884.135    23303883.3274   23303890.6314
        -0.000          -0.000
  -3346646.608 8  -2582927.52645  24814126.812    24814125.5084   24814134.0394
        -0.000          -0.000
 -10037433.319 9  -7797724.70448  21870910.789    21870910.5444   21870916.9664
        -0.000          -0.000
 98  6 25  4 12 30.0010000  0  7  1 15 29 25 22 16 14                0.000999980
   7444637.805 9   5794000.28245  24686933.195    24686932.8024   24686940.4004
        -0.000          -0.000
   1348778.656 9   1197166.45148  21460639.924    21460639.1194   21460645.8564
        -0.000          -0.000
   4019066.965 9   3127867.92848  22158249.105    22158249.1434   22158254.7364
        -0.000          -0.000
   1463701.427 9   1145101.22949  21356337.902    21356337.7454   21356342.9154
        -0.000          -0.000
  -8292571.199 9  -6183498.14947  23287080.234    23287079.5204   23287086.6434
        -0.000          -0.000
  -3442874.201 8  -2657910.00545  24795815.252    24795814.1454   24795822.6424
        -0.000          -0.000
 -10109045.636 9  -7853526.47348  21857283.447    21857283.2084   21857289.6304
        -0.000          -0.000
 98  6 25  4 13  0.0010000  0  7  1 15 29 25 22 16 14                0.000999992
   7517029.877 9   5850409.68045  24700708.957    24700708.5364   24700715.7784
        -0.000          -0.000
   1402876.512 9   1239320.60648  21470934.351    21470933.6024   21470940.3394
        -0.000          -0.000
   4068221.510 9   3166170.17748  22167603.076    22167603.0584   22167608.4064
        -0.000          -0.000
   1511057.724 9   1182002.25249  21365349.519    21365349.3564   21365354.4664
        -0.000          -0.000
  -8380695.823 9  -6252166.62247  23270310.771    23270310.0104   23270316.9624
        -0.000          -0.000
  -3539123.490 9  -2732909.41745  24777499.614    24777498.4844   24777507.0554
        -0.000          -0.000
 -10180430.024 9  -7909150.64448  21843699.444    21843699.1624   21843705.5464
        -0.000          -0.000
 98  6 25  4 13 30.0010000  0  7  1 15 29 25 22 16 14                0.001000007
   7589432.457 9   5906827.28645  24714486.988    24714486.4364   24714493.1834
        -0.000          -0.000
   1457502.798 9   1281886.52148  21481329.338    21481328.6754   21481335.4244
        -0.000          -0.000
   4117453.459 9   3204532.74348  22176971.817    22176971.6924   22176976.8364
        -0.000          -0.000
   1558810.363 9   1219212.10649  21374436.563    21374436.3864   21374441.5024
        -0.000          -0.000
  -8468634.039 9  -6320689.84747  23253576.783    23253575.9344   23253582.7504
        -0.000          -0.000
  -3635395.857 8  -2807926.84445  24759179.688    24759178.5484   24759186.9944
        -0.000          -0.000
 -10251581.193 9  -7964593.07848  21830159.786    21830159.4954   21830165.9174
        -0.000          -0.000
 98  6 25  4 14  0.0010000  0  7  1 15 29 25 22 16 14                0.001000008
   7661811.660 9   5963226.66145  24728260.523    24728259.9214   24728266.0574
        -0.000          -0.000
   1512636.900 9   1324848.15148  21491821.051    21491820.4024   21491827.1124
        -0.000          -0.000
   4166748.161 9   3242944.19748  22186352.250    22186352.1184   22186357.2724
        -0.000          -0.000
   1606942.154 9   1256717.39749  21383595.753    21383595.5854   21383600.6874
        -0.000          -0.000
  -8556380.277 9  -6389063.48047  23236879.100    23236878.3634   23236885.1314
        -0.000          -0.000
  -3731706.831 8  -2882974.30945  24740851.736    24740850.9254   24740859.6384
        -0.000          -0.000
 -10322502.339 9  -8019856.28948  21816663.909    21816663.6684   21816670.0384
        -0.000          -0.000
 98  6 25  4 14 30.0010000  0  7  1 15 29 25 22 16 14                0.001000012
   7734166.243 9   6019606.86045  24742029.350    24742028.7194   24742034.5534
        -0.000          -0.000
   1568297.663 9   1368220.15848  21502412.951    21502412.3304   21502419.0124
        -0.000          -0.000
   4216139.380 9   3281430.86548  22195750.911    22195750.8524   22195756.1844
        -0.000          -0.000
   1655470.968 9   1294532.06649  21392830.487    21392830.3424   21392835.4134
        -0.000          -0.000
  -8643904.943 9  -6457264.45847  23220223.839    23220223.0844   23220229.7024
        -0.000          -0.000
  -3828021.066 9  -2958024.33745  24722523.476    24722523.0234   24722531.5674
        -0.000          -0.000
 -10393167.363 9  -8074919.91348  21803216.792    21803216.5574   21803222.9264
        -0.000          -0.000
 98  6 25  4 15  0.0010000  0  7  1 15 29 25 22 16 14                0.001000012
   7806484.354 9   6075958.61345  24755791.136    24755790.6124   24755796.0294
        -0.000          -0.000
   1624468.976 9   1411989.99848  21513102.045    21513101.3504   21513108.0694
        -0.000          -0.000
   4265614.164 9   3319982.64148  22205165.471    22205165.4644   22205170.9884
        -0.000          -0.000
   1704388.728 9   1332649.80449  21402139.264    21402139.1074   21402144.1944
        -0.000          -0.000
  -8731226.295 9  -6525307.01847  23203607.145    23203606.3984   23203612.9454
        -0.000          -0.000
  -3924336.598 8  -3033075.37645  24704195.500    24704194.9424   24704203.3324
        -0.000          -0.000
 -10463589.811 9  -8129794.51948  21789815.735    21789815.5154   21789822.0124
        -0.000          -0.000
 98  6 25  4 15 30.0010000  0  7  1 15 29 25 22 16 14                0.001000020
   7878789.698 9   6132300.42246  24769550.808    24769549.8984   24769555.3054
        -0.000          -0.000
   1681156.092 9   1456161.76148  21523889.204    21523888.5824   21523895.2584
        -0.000          -0.000
   4315180.285 9   3358605.59348  22214597.519    22214597.5944   22214603.2284
        -0.000          -0.000
   1753706.471 9   1371079.22249  21411524.058    21411523.9504   21411529.0104
        -0.000          -0.000
  -8818335.249 9  -6593184.06447  23187030.710    23187030.0234   23187036.6374
        -0.000          -0.000
  -4020627.716 8  -3108107.35145  24685871.653    24685871.3174   24685879.6814
        -0.000          -0.000
 -10533759.471 9  -8184472.14548  21776462.802    21776462.5894   21776469.1444
        -0.000          -0.000
 98  6 25  4 16  0.0010000  0  7  1 15 29 25 22 16 14                0.001000020
   7951065.478 9   6188619.22046  24783304.289    24783303.4964   24783309.2074
        -0.000          -0.000
   1738338.046 9   1500719.10648  21534770.517    21534769.9294   21534776.6454
        -0.000          -0.000
   4364830.865 9   3397294.36248  22224045.772    22224045.8534   22224051.4674
        -0.000          -0.000
   1803400.123 9   1409801.55749  21420980.460    21420980.3344   21420985.3754
        -0.000          -0.000
  -8905259.051 9  -6660916.84647  23170489.665    23170488.8954   23170495.5284
        -0.000          -0.000
  -4116915.962 8  -3183137.14845  24667548.437    24667548.1714   24667556.5044
        -0.000          -0.000
 -10603701.345 9  -8238972.27648  21763153.332    21763153.1124   21763159.6354
        -0.000          -0.000
 98  6 25  4 16 30.0010000  0  7  1 15 29 25 22 16 14                0.001000024
   8023337.154 9   6244934.81046  24797056.941    24797056.1264   24797062.3864
        -0.000          -0.000
   1796035.148 9   1545677.86148  21545749.992    21545749.3484   21545756.0454
        -0.000          -0.000
   4414578.737 9   3436058.94648  22233512.652    22233512.6794   22233518.1744
        -0.000          -0.000
   1853480.235 9   1448825.02249  21430510.437    21430510.2574   21430515.3274
        -0.000          -0.000
  -8991996.727 9  -6728504.58547  23153983.975    23153983.1814   23153989.9534
        -0.000          -0.000
  -4213183.198 8  -3258150.56745  24649229.621    24649229.2444   24649237.2864
        -0.000          -0.000
 -10673408.928 9  -8293289.83948  21749888.484    21749888.2064   21749894.6564
        -0.000          -0.000
 98  6 25  4 17  0.0010000  0  7  1 15 29 25 22 16 14                0.001000033
   8095613.887 9   6301254.32646  24810810.336    24810809.6644   24810816.4424
        -0.000          -0.000
   1854249.745 9   1591039.86648  21556827.958    21556827.2594   21556833.9884
        -0.000          -0.000
   4464430.488 9   3474904.47648  22242999.221    22242999.2224   22243004.5664
        -0.000          -0.000
   1903944.397 9   1488147.75549  21440113.296    21440113.2094   21440118.3114
        -0.000          -0.000
  -9078532.261 9  -6795934.82147  23137516.862    23137515.9124   23137522.8064
        -0.000          -0.000
  -4309442.616 8  -3333157.85745  24630911.956    24630911.7454   24630919.6634
        -0.000          -0.000
 -10742889.372 9  -8347430.41948  21736666.813    21736666.5194   21736672.8874
        -0.000          -0.000
 98  6 25  4 17 30.0010000  0  7  1 15 29 25 22 16 14                0.001000039
   8167891.048 8   6357574.21246  24824563.734    24824563.2334   24824570.5474
        -0.000          -0.000
   1912962.164 9   1636789.79148  21568000.685    21567999.9344   21568006.6124
        -0.000          -0.000
   4514375.083 9   3513822.33648  22252503.354    22252503.3434   22252508.6364
        -0.000          -0.000
   1954766.356 9   1527749.29249  21449784.282    21449784.2044   21449789.3684
        -0.000          -0.000
  -9164872.080 9  -6863212.54647  23121086.723    23121085.8664   23121092.9704
        -0.000          -0.000
  -4405716.924 9  -3408176.73746  24612591.540    24612591.2274   24612599.2704
        -0.000          -0.000
 -10812160.755 9  -8401408.08948  21723484.884    21723484.5944   21723490.9384
        -0.000          -0.000
 98  6 25  4 18  0.0010000  0  7  1 15 29 25 22 16 14                0.001000047
   8240170.832 8   6413896.13446  24838317.833    24838317.3714   24838325.2204
        -0.000          -0.000
   1972175.900 9   1682930.35248  21579268.677    21579267.9444   21579274.6054
        -0.000          -0.000
   4564422.513 9   3552820.33548  22262027.028    22262027.0194   22262032.2514
        -0.000          -0.000
   2005939.560 9   1567624.51049  21459522.262    21459522.1124   21459527.3014
        -0.000          -0.000
  -9250995.781 9  -6930321.86847  23104697.837    23104696.9914   23104704.1664
        -0.000          -0.000
  -4502011.292 9  -3483211.25746  24594267.484    24594266.8734   24594275.2144
        -0.000          -0.000
 -10881209.697 9  -8455212.43748  21710345.279    21710345.0114   21710351.2964
        -0.000          -0.000
 98  6 25  4 18 30.0010000  0  7  1 15 29 25 22 16 14                0.001000054
   8312453.758 8   6470220.49345  24852072.144    24852072.0994   24852080.3164
        -0.000          -0.000
   2031879.880 9   1729452.90748  21590629.935    21590629.2584   21590635.8884
        -0.000          -0.000
   4614559.947 9   3591888.45748  22271567.891    22271567.8744   22271573.0904
        -0.000          -0.000
   2057452.690 9   1607764.63049  21469324.888    21469324.7264   21469329.8944
        -0.000          -0.000
  -9336893.587 9  -6997255.16747  23088351.912    23088351.0274   23088358.3464
        -0.000          -0.000
  -4598336.554 9  -3558269.84846  24575937.545    24575936.8534   24575945.3364
        -0.000          -0.000
 -10950021.786 9  -8508832.22048  21697250.748    21697250.4364   21697256.7514
        -0.000          -0.000
 98  6 25  4 19  0.0010000  0  7  1 15 29 25 22 16 14                0.001000055
   8384734.314 8   6526543.00445  24865826.386    24865826.4974   24865834.9054
        -0.000          -0.000
   2092056.909 9   1776344.08048  21602081.260    21602080.5614   21602087.1984
        -0.000          -0.000
   4664780.172 9   3631021.09348  22281124.558    22281124.4894   22281129.5814
        -0.000          -0.000
   2109302.050 9   1648166.73748  21479191.377    21479191.2554   21479196.5034
        -0.000          -0.000
  -9422573.592 9  -7064018.75947  23072047.565    23072046.6454   23072053.9334
        -0.000          -0.000
  -4694692.457 9  -3633352.30846  24557601.638    24557601.0274   24557609.3814
        -0.000          -0.000
 -11018595.757 9  -8562266.45348  21684201.512    21684201.2104   21684207.5424
        -0.000          -0.000
 98  6 25  4 19 30.0010000  0  7  1 15 29 25 22 16 14                0.001000057
   8457019.555 8   6582869.17145  24879582.002    24879581.8544   24879590.1604
        -0.000          -0.000
   2152707.731 9   1823604.44048  21613622.800    21613622.0614   21613628.6704
        -0.000          -0.000
   4715076.275 9   3670212.86048  22290695.472    22290695.4534   22290700.6004
        -0.000          -0.000
   2161502.699 9   1688842.57149  21489124.865    21489124.7284   21489129.9594
        -0.000          -0.000
  -9508044.621 9  -7130619.52147  23055782.940    23055782.0644   23055789.2844
        -0.000          -0.000
  -4791049.998 9  -3708436.03345  24539265.308    24539264.6914   24539272.9984
        -0.000          -0.000
 -11086921.280 9  -8615507.09448  21671199.511    21671199.2614   21671205.6394
        -0.000          -0.000
 98  6 25  4 20  0.0010000  0  7  1 15 29 25 22 16 14                0.001000050
   8529283.932 8   6639179.05845  24893333.907    24893333.3434   24893341.4954
        -0.000          -0.000
   2213825.694 9   1871228.80348  21625253.220    21625252.4194   21625259.0634
        -0.000          -0.000
   4765435.106 9   3709453.50248  22300278.292    22300278.3094   22300283.6484
        -0.000          -0.000
   2214058.075 9   1729794.82349  21499125.918    21499125.6954   21499130.9084
        -0.000          -0.000
  -9593312.028 9  -7197061.61647  23039556.914    23039556.1184   23039563.3564
        -0.000          -0.000
  -4887405.203 9  -3783517.96445  24520929.353    24520928.7754   24520937.1964
        -0.000          -0.000
 -11154993.078 9  -8668550.03048  21658245.846    21658245.6294   21658251.9754
        -0.000          -0.000
 98  6 25  4 20 30.0010000  0  7  1 15 29 25 22 16 14                0.001000045
   8601532.750 8   6695476.85145  24907082.498    24907082.0854   24907089.8384
        -0.000          -0.000
   2275430.683 9   1919232.67648  21636976.329    21636975.5244   21636982.1294
        -0.000          -0.000
   4815872.634 9   3748755.47648  22309876.221    22309876.2744   22309881.7204
        -0.000          -0.000
   2267004.758 9   1771051.98749  21509201.214    21509201.1004   21509206.3464
        -0.000          -0.000
  -9678352.002 9  -7263326.48647  23023374.491    23023373.6104   23023380.6124
        -0.000          -0.000
  -4983724.022 9  -3858571.54945  24502600.219    24502599.7134   24502608.1174
        -0.000          -0.000
 -11222807.229 9  -8721392.19348  21645341.231    21645341.0124   21645347.3724
        -0.000          -0.000
 98  6 25  4 21  0.0010000  0  7  1 15 29 25 22 16 14                0.001000044
   8673757.301 8   6751755.69945  24920827.001    24920826.3514   24920833.5994
        -0.000          -0.000
   2337524.973 9   1967617.81848  21648792.478    21648791.6934   21648798.3124
        -0.000          -0.000
   4866393.764 9   3788122.58148  22319490.236    22319490.2184   22319495.7004
        -0.000          -0.000
   2320346.689 9   1812617.13348  21519351.877    21519351.7634   21519357.0214
        -0.000          -0.000
  -9763154.614 9  -7329406.40047  23007237.213    23007236.2724   23007243.1344
        -0.000          -0.000
  -5079995.326 9  -3933588.10045  24484280.070    24484279.8564   24484288.2364
        -0.000          -0.000
 -11290377.273 9  -8774044.14748  21632483.123    21632482.8444   21632489.1844
        -0.000          -0.000
 98  6 25  4 21 30.0010000  0  7  1 15 29 25 22 16 14                0.001000045
   8745953.278 8   6808012.31945  24934565.915    24934565.1594   24934571.7894
        -0.000          -0.000
   2400109.965 9   2016385.32548  21660702.041    21660701.2294   21660707.8574
        -0.000          -0.000
   4917000.993 9   3827556.78348  22329120.674    22329120.5614   22329125.9744
        -0.000          -0.000
   2374075.325 9   1854483.61248  21529576.091    21529576.0154   21529581.2414
        -0.000          -0.000
  -9847697.083 9  -7395283.60647  22991149.232    22991148.3094   22991155.1084
        -0.000          -0.000
  -5176232.901 9  -4008578.37645  24465966.618    24465966.4344   24465974.6874
        -0.000          -0.000
 -11357696.618 9  -8826500.74248  21619672.620    21619672.3724   21619678.7324
        -0.000          -0.000
 98  6 25  4 22  0.0010000  0  7  1 15 29 25 22 16 14                0.001000037
   8818099.341 8   6864230.00245  24948295.046    24948294.5344   24948300.5914
        -0.000          -0.000
   2463180.260 9   2065530.99148  21672703.885    21672703.1304   21672709.7394
        -0.000          -0.000
   4967691.123 9   3867055.57548  22338766.717    22338766.5844   22338771.9404
        -0.000          -0.000
   2428170.584 9   1896635.76848  21539870.060    21539869.9684   21539875.2464
        -0.000          -0.000
  -9931962.433 9  -7460944.85947  22975114.130    22975113.1004   22975119.8624
        -0.000          -0.000
  -5272464.143 9  -4083563.69545  24447654.749    24447654.1714   24447662.2354
        -0.000          -0.000
 -11424763.715 9  -8878760.78848  21606910.106    21606909.8984   21606916.2514
        -0.000          -0.000
 98  6 25  4 22 30.0010000  0  7  1 15 29 25 22 16 14                0.001000036
   8890231.905 8   6920437.18245  24962021.708    24962021.3414   24962026.7684
        -0.000          -0.000
   2526757.763 9   2115071.88048  21684802.173    21684801.4844   21684808.1964
        -0.000          -0.000
   5018497.080 9   3906644.61648  22348434.702    22348434.5614   22348439.9294
        -0.000          -0.000
   2482642.345 9   1939081.30848  21550235.688    21550235.6424   21550240.9394
        -0.000          -0.000
 -10015920.259 9  -7526366.49647  22959137.346    22959136.3614   22959143.1024
        -0.000          -0.000
  -5368673.706 9  -4158532.16345  24429346.836    24429346.1664   24429353.9804
        -0.000          -0.000
 -11491552.091 9  -8930803.64848  21594200.599    21594200.4664   21594206.8414
        -0.000          -0.000
 98  6 25  4 23  0.0010000  0  7  1 15 29 25 22 16 14                0.001000025
   8962343.604 8   6976628.10445  24975744.327    24975743.9924   24975749.1834
        -0.000          -0.000
   2590811.404 9   2164983.79748  21696991.256    21696990.5064   21696997.2424
        -0.000          -0.000
   5069395.374 9   3946305.63048  22358120.230    22358120.1364   22358125.5194
        -0.000          -0.000
   2537445.925 9   1981785.40248  21560664.619    21560664.4634   21560669.7284
        -0.000          -0.000
 -10099612.245 9  -7591580.97347  22943211.299    22943210.2564   22943216.9844
        -0.000          -0.000
  -5464893.720 9  -4233508.75145  24411036.894    24411036.1914   24411043.8144
        -0.000          -0.000
 -11558069.377 9  -8982635.26948  21581542.730    21581542.5694   21581548.9524
        -0.000          -0.000
 98  6 25  4 23 30.0010000  0  7  1 15 29 25 22 16 14                0.001000009
   9034455.871 9   7032819.46745  24989466.964    24989466.5624   24989471.6874
        -0.000          -0.000
   2655351.772 9   2215274.97048  21709272.853    21709272.1544   21709278.9724
        -0.000          -0.000
   5120402.666 9   3986051.56648  22367826.513    22367826.4264   22367831.8884
        -0.000          -0.000
   2592590.970 9   2024755.56948  21571158.373    21571158.2184   21571163.4444
        -0.000          -0.000
 -10183035.512 9  -7656586.07747  22927336.204    22927335.1774   22927341.8544
        -0.000          -0.000
  -5561115.788 9  -4308486.93546  24392726.368    24392725.6974   24392733.5294
        -0.000          -0.000
 -11624291.158 9  -9034236.63248  21568941.148    21568940.9934   21568947.3904
        -0.000          -0.000
 98  6 25  4 24  0.0010000  0  7  1 15 29 25 22 16 14                0.000999993
   9106582.720 9   7089022.21945  25003192.561    25003191.8204   25003196.9154
        -0.000          -0.000
   2720371.682 9   2265939.81948  21721645.763    21721645.0084   21721651.8734
        -0.000          -0.000
   5171510.243 9   4025875.64748  22377551.925    22377551.8634   22377557.3284
        -0.000          -0.000
   2648087.219 9   2067999.41148  21581718.925    21581718.7874   21581723.9984
        -0.000          -0.000
 -10266201.680 9  -7721390.83147  22911510.016    22911509.0334   22911515.7084
        -0.000          -0.000
  -5657326.198 9  -4383456.00946  24374417.992    24374417.4134   24374425.5794
        -0.000          -0.000
 -11690225.254 9  -9085613.82548  21556394.352    21556394.1494   21556400.5244
        -0.000          -0.000
 98  6 25  4 24 30.0010000  0  7  1 15 29 25 22 16 14                0.000999980
   9178736.037 9   7145245.58345  25016922.614    25016921.9164   25016927.3564
        -0.000          -0.000
   2785853.825 9   2316964.85048  21734106.593    21734105.8524   21734112.7224
        -0.000          -0.000
   5222718.679 9   4065778.31747  22387296.660    22387296.5574   22387301.9304
        -0.000          -0.000
   2703930.770 9   2111513.86248  21592345.599    21592345.4904   21592350.6864
        -0.000          -0.000
 -10349137.893 9  -7786016.40647  22895727.797    22895726.7484   22895733.4274
        -0.000          -0.000
  -5753511.823 9  -4458405.77146  24356114.498    24356113.9034   24356122.1404
        -0.000          -0.000
 -11755885.540 9  -9136777.66048  21543899.646    21543899.4194   21543905.7824
        -0.000          -0.000
 98  6 25  4 25  0.0010000  0  7  1 15 29 25 22 16 14                0.000999977
   9250922.295 9   7201494.65145  25030658.687    25030658.1774   25030663.7774
        -0.000          -0.000
   2851799.143 9   2368350.79148  21746655.491    21746654.8444   21746661.6984
        -0.000          -0.000
   5274029.938 9   4105761.11347  22397061.033    22397060.8574   22397066.1314
        -0.000          -0.000
   2760138.874 9   2155312.39048  21603041.782    21603041.5854   21603046.7104
        -0.000          -0.000
 -10431837.962 9  -7850457.95847  22879990.210    22879989.3924   22879996.0234
        -0.000          -0.000
  -5849652.820 9  -4533320.77246  24337819.556    24337818.9984   24337826.8794
        -0.000          -0.000
 -11821275.525 9  -9187730.86748  21531456.324    21531456.0834   21531462.4374
        -0.000          -0.000
 98  6 25  4 25 30.0010000  0  6 15 29 25 22 16 14                   0.001000085
   2918129.627 9   2420036.85948  21759277.829    21759277.1664   21759284.0094
        -0.000          -0.000
   5325364.821 9   4145762.32047  22406829.715    22406829.6144   22406834.7294
        -0.000          -0.000
   2816637.579 9   2199337.35748  21613793.113    21613792.9524   21613798.0564
        -0.000          -0.000
 -10514364.409 9  -7914764.23847  22864286.115    22864285.1154   22864291.6464
        -0.000          -0.000
  -5945817.435 9  -4608254.19246  24319520.057    24319519.3784   24319527.1554
        -0.000          -0.000
 -11886474.058 9  -9238534.89148  21519049.387    21519049.1824   21519055.5494
        -0.000          -0.000
 98  6 25  4 26  0.0010000  0  6 15 29 25 22 16 14                   0.001000046
   2984882.553 9   2472052.10848  21771980.403    21771979.8224   21771986.6644
        -0.000          -0.000
   5376752.406 9   4185804.61347  22416608.537    22416608.3554   22416613.4554
        -0.000          -0.000
   2873461.189 9   2243615.49548  21624606.254    21624606.1374   21624611.2524
        -0.000          -0.000
 -10596673.767 9  -7978901.35747  22848623.059    22848622.1084   22848628.6444
        -0.000          -0.000
  -6041944.532 9  -4683158.37346  24301227.455    24301226.7914   24301234.6834
        -0.000          -0.000
 -11951436.077 9  -9289154.62048  21506687.528    21506687.3104   21506693.6844
        -0.000          -0.000
 98  6 25  4 26 30.0010000  0  6 15 29 25 22 16 14                   0.001000035
   3052128.181 9   2524451.26848  21784776.754    21784776.1934   21784783.0954
        -0.000          -0.000
   5428265.660 9   4225944.81047  22426411.072    22426410.9794   22426416.2024
        -0.000          -0.000
   2930654.126 9   2288181.41048  21635489.706    21635489.5624   21635494.7374
        -0.000          -0.000
 -10678695.921 9  -8042814.67147  22833014.686    22833013.7744   22833020.2614
        -0.000          -0.000
  -6137982.935 9  -4757993.46346  24282951.831    24282951.2534   24282959.2154
        -0.000          -0.000
 -12016077.174 9  -9339524.28648  21494386.775    21494386.5264   21494392.8884
        -0.000          -0.000
 98  6 25  4 27  0.0010000  0  6 15 29 25 22 16 14                   0.001000023
   3119839.712 9   2577213.48148  21797661.931    21797661.3234   21797668.2214
        -0.000          -0.000
   5479860.606 9   4266148.65147  22436229.285    22436229.1124   22436234.4694
        -0.000          -0.000
   2988179.752 9   2333006.56648  21646436.501    21646436.3444   21646441.4684
        -0.000          -0.000
 -10760446.229 9  -8106516.17547  22817458.118    22817457.2934   22817463.6184
        -0.000          -0.000
  -6233978.805 9  -4832795.38246  24264684.200    24264683.7094   24264691.8854
        -0.000          -0.000
 -12080413.893 9  -9389656.76848  21482143.779    21482143.5924   21482149.9974
        -0.000          -0.000
 98  6 25  4 27 30.0010000  0  6 15 29 25 22 16 14                   0.001000004
   3188027.468 9   2630346.76848  21810637.661    21810637.0004   21810643.9054
        -0.000          -0.000
   5531546.854 9   4306423.64347  22446064.902    22446064.6934   22446070.0884
        -0.000          -0.000
   3046035.623 9   2378089.06748  21657446.118    21657445.9524   21657451.1064
        -0.000          -0.000
 -10841913.130 9  -8169996.82747  22801955.479    22801954.6454   22801960.8934
        -0.000          -0.000
  -6329932.770 9  -4907564.65646  24246424.882    24246424.2204   24246432.4654
        -0.000          -0.000
 -12144422.236 9  -9439533.37848  21469963.306    21469963.1644   21469969.5514
        -0.000          -0.000
 98  6 25  4 28  0.0010000  0  6 15 29 25 22 16 14                   0.000999979
   3256695.637 9   2683854.40548  21823704.859    21823704.1944   21823711.0744
        -0.000          -0.000
   5583332.164 9   4346775.83847  22455919.284    22455919.1414   22455924.5404
        -0.000          -0.000
   3104239.152 9   2423442.45948  21668521.667    21668521.5954   21668526.9244
        -0.000          -0.000
 -10923074.894 9  -8233239.72347  22786510.913    22786510.1574   22786516.3354
        -0.000          -0.000
  -6425845.126 9  -4982301.47946  24228173.399    24228172.6654   24228180.9484
        -0.000          -0.000
 -12208095.274 9  -9489148.71148  21457846.616    21457846.4924   21457852.8984
        -0.000          -0.000
 98  6 25  4 28 30.0010000  0  6 15 29 25 22 16 14                   0.000999958
   3325854.388 9   2737744.31948  21836865.249    21836864.6534   21836871.5664
        -0.000          -0.000
   5635242.405 9   4387225.39247  22465797.431    22465797.3724   22465802.7284
        -0.000          -0.000
   3162815.367 9   2469086.25748  21679668.351    21679668.2284   21679673.5944
        -0.000          -0.000
 -11003903.097 9  -8296222.69247  22771129.879    22771129.1154   22771135.2114
        -0.000          -0.000
  -6521709.895 8  -5057001.24546  24209931.089    24209930.1944   24209938.3854
        -0.000          -0.000
 -12271430.595 9  -9538500.88848  21445794.353    21445794.1964   21445800.5474
        -0.000          -0.000
 98  6 25  4 29  0.0010000  0  6 15 29 25 22 16 14                   0.000999955
   3395473.329 9   2791992.81648  21850113.397    21850112.7814   21850119.6824
        -0.000          -0.000
   5687260.823 9   4427759.24047  22475696.227    22475696.1194   22475701.4894
        -0.000          -0.000
   3221764.746 9   2515020.83948  21690886.101    21690885.8924   21690891.2224
        -0.000          -0.000
 -11084409.193 9  -8358954.66447  22755810.017    22755809.2814   22755815.3304
        -0.000          -0.000
  -6617514.236 9  -5131653.92646  24191699.835    24191699.2064   24191707.2924
        -0.000          -0.000
 -12334473.229 9  -9587624.99948  21433797.773    21433797.5714   21433803.9254
        -0.000          -0.000
 98  6 25  4 29 30.0010000  0  6 15 29 25 22 16 14                   0.000999968
   3465518.681 9   2846573.58248  21863442.742    21863442.0044   21863448.8514
        -0.000          -0.000
   5739371.126 9   4468364.68047  22485612.383    22485612.2854   22485617.7664
        -0.000          -0.000
   3281062.193 9   2561226.63748  21702169.878    21702169.7414   21702175.1214
        -0.000          -0.000
 -11164617.809 9  -8421454.84247  22740546.777    22740546.1074   22740552.1864
        -0.000          -0.000
  -6713271.824 9  -5206270.16346  24173477.356    24173476.9804   24173485.0314
        -0.000          -0.000
 -12397256.676 9  -9636547.14148  21421850.550    21421850.3224   21421856.6514
        -0.000          -0.000
 98  6 25  4 30  0.0010000  0  6 15 29 25 22 16 14                   0.000999993
   3535952.610 9   2901457.14948  21876845.846    21876845.1754   21876851.9924
        -0.000          -0.000
   5791546.816 9   4509021.05547  22495541.002    22495540.9414   22495546.4594
        -0.000          -0.000
   3340670.413 9   2607674.59448  21713512.935    21713512.7884   21713518.1444
        -0.000          -0.000
 -11244551.367 9  -8483740.69247  22725336.007    22725335.2984   22725341.3434
        -0.000          -0.000
  -6809003.695 9  -5280866.35746  24155260.173    24155259.6224   24155267.8404
        -0.000          -0.000
 -12459814.166 9  -9685293.22748  21409946.250    21409946.0434   21409952.3494
        -0.000          -0.000
 98  6 25  4 30 30.0010000  0  6 15 29 25 22 16 14                   0.001000026
   3606772.254 9   2956641.25748  21890322.345    21890321.6864   21890328.5394
        -0.000          -0.000
   5843791.224 9   4549730.98247  22505482.937    22505482.7784   22505488.1924
        -0.000          -0.000
   3400569.322 9   2654349.06648  21724911.349    21724911.1974   21724916.4264
        -0.000          -0.000
 -11324211.393 9  -8545813.39347  22710177.206    22710176.4724   22710182.6294
        -0.000          -0.000
  -6904712.583 9  -5355444.66346  24137047.637    24137046.9004   24137055.0534
        -0.000          -0.000
 -12522137.041 9  -9733856.48148  21398086.563    21398086.3234   21398092.7394
        -0.000          -0.000
 98  6 25  4 31  0.0010000  0  6 15 29 25 22 16 14                   0.001000045
   3677964.499 9   3012115.70448  21903869.906    21903869.1574   21903875.9714
        -0.000          -0.000
   5896082.965 9   4590477.77447  22515433.836    22515433.6404   22515438.9104
        -0.000          -0.000
   3460729.108 9   2701226.81748  21736359.373    21736359.2514   21736364.3714
        -0.000          -0.000
 -11403612.224 9  -8607684.13647  22695067.751    22695066.9524   22695073.1524
        -0.000          -0.000
  -7000416.464 9  -5430019.02946  24118835.894    24118835.0684   24118843.3084
        -0.000          -0.000
 -12584212.718 9  -9782227.12548  21386273.947    21386273.7514   21386280.1004
        -0.000          -0.000
 98  6 25  4 31 30.0010000  0  6 15 29 25 22 16 14                   0.001000051
   3749571.567 9   3067913.40448  21917496.274    21917495.5244   21917502.3634
        -0.000          -0.000
   5948449.549 9   4631282.91147  22525398.747    22525398.7114   22525403.8444
        -0.000          -0.000
   3521170.155 9   2748323.73648  21747861.058    21747860.8494   21747865.8854
        -0.000          -0.000
 -11482711.170 9  -8669319.63847  22680015.817    22680014.9324   22680021.0754
        -0.000          -0.000
  -7096092.009 9  -5504571.32646  24100629.491    24100628.5924   24100636.9054
        -0.000          -0.000
 -12645971.303 9  -9830350.67048  21374521.649    21374521.4874   21374527.8334
        -0.000          -0.000
 98  6 25  4 32  0.0010000  0  6 15 29 25 22 16 14                   0.001000041
   3821596.512 9   3124036.70848  21931202.189    21931201.4854   21931208.2744
        -0.000          -0.000
   6000885.984 9   4672142.47847  22535377.101    22535376.9644   22535382.0514
        -0.000          -0.000
   3581899.618 9   2795645.39448  21759417.516    21759417.3294   21759422.2084
        -0.000          -0.000
 -11561503.177 9  -8730715.97347  22665022.153    22665021.2434   22665027.4694
        -0.000          -0.000
  -7191733.850 9  -5579097.38046  24082429.452    24082428.5524   24082436.8174
        -0.000          -0.000
 -12707408.173 9  -9878223.53948  21362830.610    21362830.4504   21362836.7864
        -0.000          -0.000
 98  6 25  4 32 30.0010000  0  6 15 29 25 22 16 14                   0.001000027
   3894072.229 9   3180511.27448  21944993.880    21944993.1574   21944999.9724
        -0.000          -0.000
   6053419.012 9   4713077.30547  22545373.711    22545373.6334   22545378.8074
        -0.000          -0.000
   3642962.695 9   2843227.01048  21771037.473    21771037.3044   21771042.0344
        -0.000          -0.000
 -11639963.140 9  -8791853.57647  22650091.553    22650090.7384   22650097.1134
        -0.000          -0.000
  -7287305.303 9  -5653568.62146  24064242.542    24064241.8724   24064250.0904
        -0.000          -0.000
 -12768487.858 9  -9925818.08548  21351207.447    21351207.3774   21351213.7304
        -0.000          -0.000
 98  6 25  4 33  0.0010000  0  6 15 29 25 22 16 14                   0.001000017
   3966985.992 9   3237327.16448  21958868.779    21958868.1724   21958874.9744
        -0.000          -0.000
   6106042.420 9   4754082.56047  22555387.578    22555387.4704   22555392.8284
        -0.000          -0.000
   3704351.981 9   2891062.80648  21782719.522    21782719.3374   21782724.0564
        -0.000          -0.000
 -11718110.806 9  -8852747.81747  22635220.393    22635219.6144   22635226.0614
        -0.000          -0.000
  -7382788.065 9  -5727970.68446  24046072.481    24046072.0314   24046080.3184
        -0.000          -0.000
 -12829224.942 9  -9973145.65848  21339649.554    21339649.4084   21339655.8064
        -0.000          -0.000
 98  6 25  4 33 30.0010000  0  6 15 29 25 22 16 14                   0.001000021
   4040329.253 9   3294477.72648  21972825.586    21972824.9304   21972831.7514
        -0.000          -0.000
   6158760.097 9   4795161.27247  22565419.443    22565419.3654   22565424.7904
        -0.000          -0.000
   3766069.290 9   2939154.21348  21794463.981    21794463.7774   21794468.4504
        -0.000          -0.000
 -11795946.446 9  -8913398.94247  22620408.704    22620408.0074   22620414.3544
        -0.000          -0.000
  -7478185.799 9  -5802306.50346  24027918.837    24027918.3784   24027926.5744
        -0.000          -0.000
 -12889644.784 9 -10020226.03548  21328152.057    21328151.8484   21328158.2164
        -0.000          -0.000
 98  6 25  4 34  0.0010000  0  6 15 29 25 22 16 14                   0.001000024
   4114070.069 9   3351938.07548  21986858.002    21986857.3754   21986864.2344
        -0.000          -0.000
   6211563.571 9   4836306.83647  22575467.799    22575467.5794   22575473.0864
        -0.000          -0.000
   3828088.532 9   2987480.90248  21806265.829    21806265.6764   21806270.3874
        -0.000          -0.000
 -11873495.628 9  -8973826.84847  22605651.452    22605650.8144   22605657.1804
        -0.000          -0.000
  -7573535.316 9  -5876604.78046  24009774.814    24009774.0494   24009782.0394
        -0.000          -0.000
 -12949784.559 9 -10067088.17848  21316707.862    21316707.6104   21316713.9394
        -0.000          -0.000
 98  6 25  4 34 30.0010000  0  6 15 29 25 22 16 14                   0.001000028
   4188220.728 9   3409717.77248  22000968.438    22000967.7674   22000974.6834
        -0.000          -0.000
   6264471.542 9   4877533.81647  22585535.868    22585535.6594   22585541.1694
        -0.000          -0.000
   3890407.894 9   3036041.44248  21818124.814    21818124.6074   21818129.4334
        -0.000          -0.000
 -11950728.591 9  -9034008.35447  22590954.361    22590953.7484   22590960.1594
        -0.000          -0.000
  -7668829.635 9  -5950860.02346  23991641.252    23991640.1034   23991648.0154
        -0.000          -0.000
 -13009612.481 9 -10113707.32549  21305322.983    21305322.7324   21305328.9744
        -0.000          -0.000
 98  6 25  4 35  0.0010000  0  6 15 29 25 22 16 14                   0.001000024
   4262774.538 9   3467811.62348  22015155.590    22015154.8864   22015161.8014
        -0.000          -0.000
   6317477.729 9   4918837.34047  22595622.378    22595622.3074   22595627.8964
        -0.000          -0.000
   3953024.218 9   3084833.39148  21830040.346    21830040.1284   21830045.0854
        -0.000          -0.000
 -12027628.011 9  -9093929.94247  22576320.856    22576320.2294   22576326.7594
        -0.000          -0.000
  -7764086.221 9  -6025085.90446  23973514.520    23973513.5014   23973521.1744
        -0.000          -0.000
 -13069126.913 9 -10160082.19049  21293997.691    21293997.4624   21294003.7104
        -0.000          -0.000
 98  6 25  4 35 30.0010000  0  6 15 29 25 22 16 14                   0.001000005
   4337755.664 9   3526238.44548  22029424.063    22029423.3674   22029430.2724
        -0.000          -0.000
   6370589.471 9   4960223.09447  22605729.082    22605729.1194   22605734.6804
        -0.000          -0.000
   4015975.246 9   3133886.15248  21842019.471    21842019.2454   21842024.3924
        -0.000          -0.000
 -12104156.839 9  -9153562.75247  22561758.039    22561757.1914   22561763.8104
        -0.000          -0.000
  -7859298.770 9  -6099277.44646  23955395.819    23955395.1554   23955402.7564
        -0.000          -0.000
 -13128290.901 9 -10206183.98449  21282739.133    21282738.9464   21282745.1374
        -0.000          -0.000
 98  6 25  4 36  0.0010000  0  6 15 29 25 22 16 14                   0.000999973
   4413172.706 9   3585004.95148  22043775.468    22043774.7824   22043781.7144
        -0.000          -0.000
   6423810.497 9   5001694.03147  22615856.862    22615856.8184   22615862.2274
        -0.000          -0.000
   4079281.553 9   3183215.75548  21854066.094    21854065.9954   21854071.2944
        -0.000          -0.000
 -12180297.864 9  -9212893.39747  22547268.827    22547268.0614   22547274.6684
        -0.000          -0.000
  -7954441.230 9  -6173414.37946  23937290.357    23937290.0294   23937297.7944
        -0.000          -0.000
 -13187075.854 9 -10251990.41049  21271552.662    21271552.5304   21271558.7664
        -0.000          -0.000
 98  6 25  4 36 30.0010000  0  6 15 29 25 22 16 14                   0.000999949
   4489042.613 9   3644124.33448  22058212.979    22058212.3574   22058219.2634
        -0.000          -0.000
   6477146.389 9   5043254.47347  22626006.322    22626006.2724   22626011.6404
        -0.000          -0.000
   4142969.004 9   3232842.34348  21866185.425    21866185.3154   21866190.7544
        -0.000          -0.000
 -12256030.272 9  -9271905.61947  22532857.465    22532856.6584   22532863.2174
        -0.000          -0.000
  -8049476.137 9  -6247467.49546  23919205.847    23919205.4594   23919213.3584
        -0.000          -0.000
 -13245463.966 9 -10297487.61649  21260441.801    21260441.5934   21260447.8904
        -0.000          -0.000
 98  6 25  4 37  0.0010000  0  6 15 29 25 22 16 14                   0.000999938
   4565353.962 9   3703587.68348  22072734.709    22072733.9144   22072740.9194
        -0.000          -0.000
   6530592.518 9   5084900.80747  22636176.806    22636176.7814   22636182.0864
        -0.000          -0.000
   4207038.597 9   3282766.70048  21878377.439    21878377.3454   21878382.8784
        -0.000          -0.000
 -12331380.531 9  -9330620.07947  22518518.842    22518517.9354   22518524.5074
        -0.000          -0.000
  -8144395.562 9  -6321430.65446  23901143.698    23901142.8334   23901150.7754
        -0.000          -0.000
 -13303479.246 9 -10342694.30649  21249401.874    21249401.6754   21249407.9764
        -0.000          -0.000
 98  6 25  4 37 30.0010000  0  6 15 29 25 22 16 14                   0.000999947
   4642080.683 9   3763374.71448  22087335.339    22087334.5864   22087341.5044
        -0.000          -0.000
   6584135.691 9   5126622.75047  22646365.708    22646365.6974   22646370.9974
        -0.000          -0.000
   4271445.145 9   3332953.63348  21890633.570    21890633.4604   21890639.0244
        -0.000          -0.000
 -12406378.991 9  -9389060.39947  22504247.035    22504246.1944   22504252.8154
        -0.000          -0.000
  -8239192.772 9  -6395298.57746  23883104.485    23883103.5214   23883111.4574
        -0.000          -0.000
 -13361144.548 9 -10387628.28149  21238428.561    21238428.3424   21238434.6434
        -0.000          -0.000
 98  6 25  4 38  0.0010000  0  6 15 29 25 22 16 14                   0.000999964
   4719170.265 9   3823444.49248  22102004.955    22102004.2214   22102011.1804
        -0.000          -0.000
   6637753.909 9   5168403.16747  22656568.927    22656568.9044   22656574.2564
        -0.000          -0.000
   4336123.144 9   3383352.07648  21902941.332    21902941.2494   21902946.8124
        -0.000          -0.000
 -12481070.796 9  -9447261.77047  22490033.699    22490032.7844   22490039.4024
        -0.000          -0.000
  -8333904.111 9  -6469099.57646  23865081.152    23865080.5194   23865088.4434
        -0.000          -0.000
 -13418505.915 9 -10432325.42749  21227513.112    21227512.8994   21227519.1054
        -0.000          -0.000
 98  6 25  4 38 30.0010000  0  6 15 29 25 22 16 14                   0.000999988
   4796604.134 9   3883782.55648  22116740.094    22116739.4404   22116746.3914
        -0.000          -0.000
   6691437.018 9   5210234.15147  22666784.532    22666784.5024   22666789.8284
        -0.000          -0.000
   4401033.393 9   3433931.48648  21915293.427    21915293.3184   21915298.7654
        -0.000          -0.000
 -12555477.567 9  -9505241.03247  22475874.411    22475873.5374   22475880.2674
        -0.000          -0.000
  -8428544.854 9  -6542845.57646  23847071.126    23847070.9064   23847078.7774
        -0.000          -0.000
 -13475583.445 9 -10476801.40349  21216651.617    21216651.3784   21216657.6154
        -0.000          -0.000
 98  6 25  4 39  0.0010000  0  6 15 29 25 22 16 14                   0.001000009
   4874367.373 9   3944377.25748  22131537.992    22131537.3054   22131544.2824
        -0.000          -0.000
   6745178.328 9   5252110.50147  22677011.286    22677011.1924   22677016.3924
        -0.000          -0.000
   4466160.454 9   3484679.84848  21927686.695    21927686.5884   21927691.8684
        -0.000          -0.000
 -12629599.147 9  -9562998.06547  22461769.483    22461768.6714   22461775.3954
        -0.000          -0.000
  -8523131.746 9  -6616549.59546  23829071.539    23829071.4974   23829079.5204
        -0.000          -0.000
 -13532378.899 9 -10521057.57649  21205843.757    21205843.5304   21205849.7234
        -0.000          -0.000
 98  6 25  4 39 30.0010000  0  6 15 29 25 22 16 14                   0.001000018
   4952467.484 9   4005234.47148  22146400.002    22146399.2974   22146406.3064
        -0.000          -0.000
   6798989.594 9   5294041.34647  22687251.289    22687251.1134   22687256.2204
        -0.000          -0.000
   4531519.634 9   3535609.08348  21940124.170    21940124.0184   21940129.1774
        -0.000          -0.000
 -12703405.280 9  -9620509.31547  22447724.676    22447723.8744   22447730.4864
        -0.000          -0.000
  -8617670.604 9  -6690216.20446  23811081.629    23811081.2824   23811089.1724
        -0.000          -0.000
 -13588862.703 9 -10565070.90849  21195095.134    21195094.9314   21195101.2204
        -0.000          -0.000
 98  6 25  4 40  0.0010000  0  6 15 29 25 22 16 14                   0.001000009
   5030932.114 9   4066375.71348  22161331.276    22161330.6204   22161337.6494
        -0.000          -0.000
   6852895.200 9   5336045.70747  22697509.054    22697508.9014   22697513.9974
        -0.000          -0.000
   4597149.569 9   3586749.29448  21952613.191    21952613.0424   21952618.0574
        -0.000          -0.000
 -12776867.908 9  -9677752.89147  22433745.125    22433744.3724   22433751.0234
        -0.000          -0.000
  -8712155.459 9  -6763840.70946  23793101.921    23793101.4584   23793109.2524
        -0.000          -0.000
 -13645012.206 9 -10608823.74649  21184410.162    21184410.0084   21184416.3164
        -0.000          -0.000
 98  6 25  4 40 30.0010000  0  6 15 29 25 22 16 14                   0.000999996
   5109780.787 9   4127816.21448  22176335.664    22176335.0334   22176342.1134
        -0.000          -0.000
   6906903.023 9   5378129.72447  22707786.267    22707786.0974   22707791.3554
        -0.000          -0.000
   4663071.342 9   3638116.90748  21965157.825    21965157.6084   21965162.5254
        -0.000          -0.000
 -12849950.261 9  -9734700.14947  22419837.954    22419837.2504   22419843.8334
        -0.000          -0.000
  -8806577.056 9  -6837415.92946  23775134.343    23775133.6974   23775141.4774
        -0.000          -0.000
 -13700817.696 9 -10652308.51549  21173790.777    21173790.6004   21173796.8964
        -0.000          -0.000
 98  6 25  4 41  0.0010000  0  6 15 29 25 22 16 14                   0.000999983
   5189010.219 9   4189553.40848  22191412.608    22191411.9354   22191418.9804
        -0.000          -0.000
   6961014.514 9   5420294.53047  22718083.137    22718083.0994   22718088.4714
        -0.000          -0.000
   4729286.707 9   3689713.29148  21977758.186    21977757.9554   21977762.9104
        -0.000          -0.000
 -12922633.253 9  -9791336.22247  22406006.925    22406006.1454   22406012.7654
        -0.000          -0.000
  -8900931.621 9  -6910938.91546  23757179.326    23757178.5474   23757186.3384
        -0.000          -0.000
 -13756274.179 9 -10695521.33049  21163237.799    21163237.5864   21163243.8504
        -0.000          -0.000
 98  6 25  4 41 30.0010000  0  6 15 29 25 22 16 14                   0.000999978
   5268609.590 9   4251578.89048  22206559.917    22206559.2294   22206566.2894
        -0.000          -0.000
   7015223.260 9   5462535.11747  22728398.729    22728398.6974   22728404.2474
        -0.000          -0.000
   4795776.773 9   3741523.73448  21990410.778    21990410.5854   21990415.6234
        -0.000          -0.000
 -12994925.062 9  -9847667.47947  22392250.386    22392249.5684   22392256.0444
        -0.000          -0.000
  -8995213.000 9  -6984404.86746  23739238.001    23739237.2984   23739245.1054
        -0.000          -0.000
 -13811393.511 9 -10738471.43049  21152748.981    21152748.7474   21152754.9714
        -0.000          -0.000
 98  6 25  4 42  0.0010000  0  6 15 29 25 22 16 14                   0.000999999
   5348554.618 9   4313873.68248  22221772.871    22221772.2374   22221779.3624
        -0.000          -0.000
   7069506.344 9   5504833.64247  22738728.459    22738728.4664   22738734.1384
        -0.000          -0.000
   4862498.419 9   3793514.62748  22003107.371    22003107.2464   22003112.4324
        -0.000          -0.000
 -13066840.773 9  -9903705.67147  22378565.453    22378564.4924   22378570.8514
        -0.000          -0.000
  -9089415.985 9  -7057809.71246  23721311.403    23721310.9084   23721318.8164
        -0.000          -0.000
 -13866204.825 9 -10781181.51649  21142318.765    21142318.4984   21142324.7004
        -0.000          -0.000
 98  6 25  4 42 30.0010000  0  6 15 29 25 22 16 14                   0.001000031
   5428807.014 9   4376408.01048  22237044.563    22237043.8354   22237050.8944
        -0.000          -0.000
   7123836.190 9   5547168.57947  22749067.315    22749067.2084   22749072.9634
        -0.000          -0.000
   4929417.514 9   3845659.37148  22015841.657    22015841.5404   22015846.8104
        -0.000          -0.000
 -13138393.536 9  -9959461.05747  22364949.419    22364948.5084   22364954.7634
        -0.000          -0.000
  -9183556.086 9  -7131165.58246  23703396.892    23703396.5404   23703404.4524
        -0.000          -0.000
 -13920723.775 9 -10823663.79949  21131944.200    21131943.9304   21131950.0434
        -0.000          -0.000
 98  6 25  4 43  0.0010000  0  6 15 29 25 22 16 14                   0.001000065
   5509355.731 9   4439173.20747  22252372.353    22252371.7234   22252378.7744
        -0.000          -0.000
   7178208.518 9   5589536.60547  22759414.024    22759413.9264   22759419.8244
        -0.000          -0.000
   4996528.818 9   3897953.89748  22028612.499    22028612.3894   22028617.7434
        -0.000          -0.000
 -13209614.028 9 -10014957.52047  22351396.601    22351395.6914   22351401.8994
        -0.000          -0.000
  -9277622.429 9  -7204463.95446  23685496.699    23685496.3024   23685504.1524
        -0.000          -0.000
 -13974941.033 9 -10865910.99049  21121627.025    21121626.7224   21121632.8484
        -0.000          -0.000
 98  6 25  4 43 30.0010000  0  6 15 29 25 22 16 14                   0.001000086
   5590223.565 9   4502187.10047  22267761.138    22267760.4314   22267767.4454
        -0.000          -0.000
   7232639.457 9   5631950.32147  22769772.003    22769771.9254   22769777.7034
        -0.000          -0.000
   5063867.914 9   3950425.92748  22041426.671    22041426.5284   22041431.9484
        -0.000          -0.000
 -13280496.717 9 -10070190.76047  22337908.094    22337907.1994   22337913.3844
        -0.000          -0.000
  -9371600.205 9  -7277693.31546  23667613.425    23667612.8134   23667620.6994
        -0.000          -0.000
 -14028817.939 9 -10907892.97349  21111374.564    21111374.2704   21111380.3304
        -0.000          -0.000
 98  6 25  4 44  0.0010000  0  6 15 29 25 22 16 14                   0.001000092
   5671434.683 9   4565468.45147  22283215.124    22283214.3914   22283221.4664
        -0.000          -0.000
   7287146.478 9   5674423.31347  22780144.376    22780144.2644   22780150.0114
        -0.000          -0.000
   5131470.130 9   4003102.98348  22054290.912    22054290.8124   22054296.2294
        -0.000          -0.000
 -13351021.310 9 -10125144.97647  22324487.719    22324486.8294   22324492.9374
        -0.000          -0.000
  -9465467.182 9  -7350836.34446  23649751.413    23649750.5184   23649758.3114
        -0.000          -0.000
 -14082316.066 9 -10949579.80449  21101194.182    21101193.9274   21101199.9424
        -0.000          -0.000
 98  6 25  4 44 30.0010000  0  6 15 29 25 22 16 14                   0.001000073
   5753031.573 9   4629050.43347  22298742.482    22298741.8424   22298748.8424
        -0.000          -0.000
   7341768.990 9   5716986.30047  22790538.513    22790538.4694   22790544.1684
        -0.000          -0.000
   5199397.936 9   4056033.75148  22067217.249    22067217.0644   22067222.4474
        -0.000          -0.000
 -13421159.170 9 -10179797.83147  22311140.754    22311139.9604   22311146.0334
        -0.000          -0.000
  -9559196.365 9  -7423872.00746  23631915.046    23631914.4264   23631922.1144
        -0.000          -0.000
 -14135374.806 9 -10990924.25249  21091097.441    21091097.1374   21091103.1044
        -0.000          -0.000
 98  6 25  4 45  0.0010000  0  6 15 29 25 22 16 14                   0.001000036
   5835031.508 9   4692946.45247  22314346.545    22314345.8404   22314352.9004
        -0.000          -0.000
   7396511.663 9   5759642.94147  22800955.584    22800955.5874   22800961.0784
        -0.000          -0.000
   5267669.603 9   4109232.45648  22080208.829    22080208.7004   22080214.0694
        -0.000          -0.000
 -13490898.043 9 -10234139.79647  22297869.784    22297869.0464   22297875.1324
        -0.000          -0.000
  -9652772.996 9  -7496788.80046  23614107.907    23614107.3944   23614114.8994
        -0.000          -0.000
 -14187976.118 9 -11031912.26449  21081087.741    21081087.4474   21081093.3644
        -0.000          -0.000
 98  6 25  4 45 30.0010000  0  6 15 29 25 22 16 14                   0.000999993
   5917452.953 9   4757170.93847  22330030.861    22330030.2124   22330037.2004
        -0.000          -0.000
   7451392.145 9   5802406.95347  22811398.875    22811398.9174   22811404.3384
        -0.000          -0.000
   5336306.550 9   4162715.80048  22093269.975    22093269.8784   22093275.1964
        -0.000          -0.000
 -13560183.079 9 -10288128.11447  22284685.121    22284684.4444   22284690.6694
        -0.000          -0.000
  -9746186.686 9  -7569578.61346  23596331.923    23596331.2904   23596338.8844
        -0.000          -0.000
 -14240101.725 9 -11072529.59849  21071168.502    21071168.2344   21071174.1764
        -0.000          -0.000
 98  6 25  4 46  0.0010000  0  6 15 29 25 22 16 14                   0.000999961
   6000273.112 9   4821706.10147  22345790.939    22345790.2814   22345797.3594
        -0.000          -0.000
   7506410.746 9   5845278.58847  22821868.601    22821868.6594   22821873.9274
        -0.000          -0.000
   5405274.832 9   4216457.31248  22106394.255    22106394.0624   22106399.3674
        -0.000          -0.000
 -13629006.146 9 -10341756.45347  22271588.433    22271587.7614   22271594.0544
        -0.000          -0.000
  -9839451.958 9  -7642252.77646  23578583.941    23578583.3764   23578591.0044
        -0.000          -0.000
 -14291785.976 9 -11112803.02349  21061333.271    21061333.0034   21061338.9604
        -0.000          -0.000
 98  6 25  4 46 30.0010000  0  6 15 29 25 22 16 14                   0.000999944
   6083477.285 9   4886540.52047  22361624.117    22361623.6104   22361630.5974
        -0.000          -0.000
   7561568.905 9   5888258.96847  22832365.127    22832365.0534   22832370.2064
        -0.000          -0.000
   5474545.985 9   4270434.82848  22119576.034    22119575.9364   22119581.1924
        -0.000          -0.000
 -13697357.763 9 -10395017.43147  22258581.434    22258580.7254   22258587.1074
        -0.000          -0.000
  -9932594.090 9  -7714831.00446  23560859.358    23560859.0474   23560866.5564
        -0.000          -0.000
 -14343051.876 9 -11152750.47049  21051577.703    21051577.4364   21051583.3734
        -0.000          -0.000
 98  6 25  4 47  0.0010000  0  6 15 29 25 22 16 14                   0.000999946
   6167034.421 9   4951649.95247  22377524.542    22377523.9624   22377531.0324
        -0.000          -0.000
   7616847.329 9   5931333.04847  22842884.481    22842884.3504   22842889.4674
        -0.000          -0.000
   5544076.830 9   4324614.71048  22132807.408    22132807.2474   22132812.3924
        -0.000          -0.000
 -13765243.799 9 -10447915.63547  22245663.027    22245662.3594   22245668.8514
        -0.000          -0.000
 -10025637.130 9  -7787332.01846  23543154.085    23543153.5944   23543161.0124
        -0.000          -0.000
 -14393939.927 9 -11192403.49049  21041894.044    21041893.7704   21041899.6834
        -0.000          -0.000
 98  6 25  4 47 30.0010000  0  6 15 29 25 22 16 14                   0.000999954
   6250915.492 9   5017011.82047  22393486.632    22393486.0724   22393493.0754
        -0.000          -0.000
   7672234.755 9   5974492.07347  22853424.556    22853424.3644   22853429.4664
        -0.000          -0.000
   5613841.533 9   4378976.82548  22146083.133    22146083.0064   22146088.1194
        -0.000          -0.000
 -13832688.648 9 -10500470.02247  22232828.587    22232827.9144   22232834.5184
        -0.000          -0.000
 -10118608.356 9  -7859777.04646  23525462.286    23525461.6224   23525469.1444
        -0.000          -0.000
 -14444477.333 9 -11231783.26649  21032277.083    21032276.8284   21032282.7284
        -0.000          -0.000
 98  6 25  4 48  0.0010000  0  6 15 29 25 22 16 14                   0.000999970
   6335103.917 9   5082613.16147  22409507.225    22409506.5914   22409513.5964
        -0.000          -0.000
   7727723.574 9   6017730.11447  22863983.718    22863983.5544   22863988.7504
        -0.000          -0.000
   5683821.856 9   4433506.95648  22159399.954    22159399.8174   22159404.9234
        -0.000          -0.000
 -13899720.815 9 -10552702.85847  22220072.849    22220072.0344   22220078.6524
        -0.000          -0.000
 -10211501.345 9  -7932161.12846  23507785.522    23507784.6294   23507792.1474
        -0.000          -0.000
 -14494675.593 9 -11270898.77349  21022724.629    21022724.3814   21022730.2734
        -0.000          -0.000
 98  6 25  4 48 30.0010000  0  6 15 29 25 22 16 14                   0.000999984
   6419600.778 9   5148454.86247  22425586.460    22425585.8204   22425592.7734
        -0.000          -0.000
   7783301.557 9   6061037.62747  22874559.531    22874559.5224   22874564.9464
        -0.000          -0.000
   5754028.305 9   4488213.28248  22172759.864    22172759.6684   22172764.7884
        -0.000          -0.000
 -13966355.367 9 -10604625.86147  22207392.712    22207391.8724   22207398.5044
        -0.000          -0.000
 -10304299.950 9  -8004471.68346  23490126.115    23490125.5654   23490133.0874
        -0.000          -0.000
 -14544520.956 9 -11309739.30249  21013239.289    21013239.0574   21013244.9684
        -0.000          -0.000
 98  6 25  4 49  0.0010000  0  6 15 29 25 22 16 14                   0.001000009
   6504399.980 9   5214532.13547  22441723.392    22441722.6294   22441729.5764
        -0.000          -0.000
   7838954.718 9   6104403.74247  22885149.722    22885149.8004   22885155.4194
        -0.000          -0.000
   5824475.689 9   4543107.35448  22186165.566    22186165.3974   22186170.4514
        -0.000          -0.000
 -14032612.011 9 -10656254.37547  22194784.486    22194783.6814   22194790.2974
        -0.000          -0.000
 -10396970.421 9  -8076682.38246  23472491.654    23472490.9134   23472498.4694
        -0.000          -0.000
 -14594007.107 9 -11348299.92949  21003822.322    21003822.1074   21003828.0474
        -0.000          -0.000
 98  6 25  4 49 30.0010000  0  6 15 29 25 22 16 14                   0.001000036
   6589468.817 9   5280819.52247  22457911.536    22457910.7224   22457917.6774
        -0.000          -0.000
   7894650.895 9   6147803.37247  22895748.399    22895748.3834   22895754.1564
        -0.000          -0.000
   5895141.978 9   4598171.99848  22199612.939    22199612.7684   22199617.7284
        -0.000          -0.000
 -14098527.909 9 -10707617.39947  22182241.029    22182240.2654   22182246.8664
        -0.000          -0.000
 -10489519.759 9  -8148798.67947  23454880.150    23454879.3554   23454886.8844
        -0.000          -0.000
 -14643164.246 9 -11386604.18049  20994468.059    20994467.8024   20994473.7734
        -0.000          -0.000
 98  6 25  4 50  0.0010000  0  6 15 29 25 22 16 14                   0.001000055
   6674792.088 9   5347305.17147  22474148.214    22474147.2314   22474154.1054
        -0.000          -0.000
   7950371.310 9   6191221.87647  22906351.665    22906351.5434   22906357.3734
        -0.000          -0.000
   5966003.139 9   4653388.48648  22213097.288    22213097.2034   22213102.1644
        -0.000          -0.000
 -14164115.295 9 -10758724.42847  22169760.269    22169759.5154   22169765.9594
        -0.000          -0.000
 -10581957.893 9  -8220828.34447  23437289.595    23437288.9834   23437296.3964
        -0.000          -0.000
 -14692002.033 9 -11424659.59049  20985174.570    20985174.2964   20985180.2644
        -0.000          -0.000
 98  6 25  4 50 30.0010000  0  6 15 29 25 22 16 14                   0.001000067
   6760390.359 9   5414005.10447  22490436.967    22490436.0854   22490443.0264
        -0.000          -0.000
   8006126.705 9   6234667.64047  22916961.684    22916961.4984   22916967.2704
        -0.000          -0.000
   6037086.543 9   4708778.14948  22226624.024    22226623.9584   22226628.9464
        -0.000          -0.000
 -14229345.356 9 -10809553.01848  22157347.513    22157346.6684   22157353.0764
        -0.000          -0.000
 -10674273.495 9  -8292762.53847  23419722.504    23419721.9344   23419729.2574
        -0.000          -0.000
 -14740493.138 9 -11462444.86249  20975946.986    20975946.7344   20975952.7254
        -0.000          -0.000
 98  6 25  4 51  0.0010000  0  6 15 29 25 22 16 14                   0.001000070
   6846262.651 9   5480918.55247  22506777.854    22506776.9934   22506784.0054
        -0.000          -0.000
   8061929.026 9   6278149.96947  22927580.542    22927580.3864   22927586.0424
        -0.000          -0.000
   6108387.656 9   4764337.46148  22240192.331    22240192.1754   22240197.1164
        -0.000          -0.000
 -14294198.335 9 -10860087.78348  22145006.340    22145005.5724   22145011.8934
        -0.000          -0.000
 -10766470.944 9  -8364604.63947  23402177.812    23402177.2604   23402184.6484
        -0.000          -0.000
 -14788630.188 9 -11499954.23549  20966786.733    20966786.5664   20966792.5574
        -0.000          -0.000
 98  6 25  4 51 30.0010000  0  6 15 29 25 22 16 14                   0.001000057
   6932432.122 9   5548063.58947  22523175.354    22523174.5314   22523181.5244
        -0.000          -0.000
   8117817.746 9   6321699.60547  22938215.910    22938215.6944   22938221.2784
        -0.000          -0.000
   6179918.028 9   4820075.42548  22253804.187    22253803.9724   22253808.8934
        -0.000          -0.000
 -14358632.172 9 -10910295.93948  22132745.007    22132744.2704   22132750.5184
        -0.000          -0.000
 -10858560.126 9  -8436362.37447  23384653.684    23384653.2324   23384660.5974
        -0.000          -0.000
 -14836373.362 9 -11537156.69349  20957701.487    20957701.3154   20957707.3504
        -0.000          -0.000
 98  6 25  4 52  0.0010000  0  6 15 29 25 22 16 14                   0.001000027
   7018925.707 9   5615461.16547  22539634.431    22539633.6764   22539640.7694
        -0.000          -0.000
   8173823.515 9   6365340.45347  22948873.347    22948873.2254   22948878.7454
        -0.000          -0.000
   6251697.878 9   4876007.78148  22267463.443    22267463.2564   22267468.2124
        -0.000          -0.000
 -14422606.115 9 -10960145.74248  22120571.091    22120570.3884   22120576.6314
        -0.000          -0.000
 -10950523.054 9  -8508021.75647  23367153.736    23367153.2164   23367160.5564
        -0.000          -0.000
 -14883675.405 9 -11574015.42149  20948700.240    20948700.0774   20948706.0854
        -0.000          -0.000
 98  6 25  4 52 30.0010000  0  6 15 29 25 22 16 14                   0.001000004
   7105761.909 9   5683125.71547  22556158.813    22556158.0574   22556165.1874
        -0.000          -0.000
   8229977.320 9   6409096.66747  22959559.155    22959558.9784   22959564.3564
        -0.000          -0.000
   6323750.428 9   4932152.63048  22281174.446    22281174.3644   22281179.4034
        -0.000          -0.000
 -14486088.823 9 -11009612.76348  22108490.728    22108490.0714   22108496.2784
        -0.000          -0.000
 -11042324.455 9  -8579555.26647  23349684.669    23349684.0104   23349691.2384
        -0.000          -0.000
 -14930507.275 9 -11610507.77749  20939788.486    20939788.2864   20939794.3324
        -0.000          -0.000
 98  6 25  4 53  0.0010000  0  6 15 29 25 22 16 14                   0.000999987
   7192916.235 9   5751038.18047  22572743.555    22572742.9464   22572750.0674
        -0.000          -0.000
   8286279.162 9   6452968.23647  22970273.027    22970272.8114   22970278.2034
        -0.000          -0.000
   6396043.566 9   4988484.94048  22294931.488    22294931.3104   22294936.3594
        -0.000          -0.000
 -14549092.234 9 -11058706.30648  22096501.661    22096500.8714   22096507.0864
        -0.000          -0.000
 -11133969.540 9  -8650966.94347  23332244.996    23332244.4244   23332251.7004
        -0.000          -0.000
 -14976884.510 9 -11646645.87549  20930963.209    20930962.9864   20930969.0444
        -0.000          -0.000
 98  6 25  4 53 30.0010000  0  6 15 29 25 22 16 14                   0.000999982
   7280377.515 9   5819189.81147  22589386.728    22589386.2534   22589393.4334
        -0.000          -0.000
   8342711.925 9   6496941.82947  22981011.771    22981011.6164   22981017.0474
        -0.000          -0.000
   6468574.772 9   5045002.75648  22308733.745    22308733.5154   22308738.6754
        -0.000          -0.000
 -14611618.719 9 -11107428.22048  22084603.154    22084602.3684   22084608.6034
        -0.000          -0.000
 -11225457.707 9  -8722256.35747  23314835.226    23314834.7264   23314842.0444
        -0.000          -0.000
 -15022823.685 9 -11682442.62849  20922221.207    20922220.9984   20922227.0494
        -0.000          -0.000
 98  6 25  4 54  0.0010000  0  6 15 29 25 22 16 14                   0.000999996
   7368114.933 9   5887556.59447  22606082.643    22606082.1054   22606089.3604
        -0.000          -0.000
   8399236.228 9   6540986.73547  22991767.812    22991767.8304   22991773.4384
        -0.000          -0.000
   6541318.406 9   5101686.11348  22322576.314    22322576.1724   22322581.4504
        -0.000          -0.000
 -14673690.948 9 -11155796.15248  22072791.216    22072790.3854   22072796.6314
        -0.000          -0.000
 -11316787.995 9  -8793422.76247  23297455.657    23297455.0584   23297462.3454
        -0.000          -0.000
 -15068369.610 9 -11717932.94349  20913554.061    20913553.8584   20913559.9574
        -0.000          -0.000
 98  6 25  4 54 30.0010000  0  6 15 29 25 22 16 14                   0.001000027
   7456111.767 9   5956125.54147  22622828.043    22622827.3534   22622834.5774
        -0.000          -0.000
   8455839.274 9   6585093.01447  23002539.113    23002539.1734   23002544.7604
        -0.000          -0.000
   6614270.630 9   5158531.99948  22336458.651    22336458.4624   22336463.7584
        -0.000          -0.000
 -14735316.698 9 -11203816.19148  22061064.217    22061063.3344   22061069.5924
        -0.000          -0.000
 -11407975.148 9  -8864477.63847  23280103.278    23280102.6914   23280109.9054
        -0.000          -0.000
 -15113547.416 9 -11753136.42049  20904956.970    20904956.7904   20904962.8814
        -0.000          -0.000
 98  6 25  4 55  0.0010000  0  6 15 29 25 22 16 14                   0.001000050
   7544344.584 9   6024878.36747  22639618.259    22639617.5194   22639624.7474
        -0.000          -0.000
   8512483.339 9   6629231.25347  23013318.242    23013318.2614   23013323.8394
        -0.000          -0.000
   6687417.067 9   5215529.21848  22350378.022    22350377.7154   22350382.9614
        -0.000          -0.000
 -14796512.663 9 -11251501.33548  22049418.882    22049418.0864   22049424.3744
        -0.000          -0.000
 -11499049.492 9  -8935444.60647  23262772.252    23262771.8184   23262779.0124
        -0.000          -0.000
 -15158382.938 9 -11788073.16449  20896425.032    20896424.8664   20896430.9454
        -0.000          -0.000
 98  6 25  4 55 30.0010000  0  6 15 29 25 22 16 14                   0.001000054
   7632816.312 9   6093817.36547  22656453.915    22656453.1544   22656460.4334
        -0.000          -0.000
   8569159.275 9   6673394.31347  23024103.253    23024103.2254   23024108.9754
        -0.000          -0.000
   6760765.193 9   5272683.60748  22364335.745    22364335.4134   22364340.5574
        -0.000          -0.000
 -14857272.970 9 -11298847.00448  22037856.628    22037855.7104   22037862.0554
        -0.000          -0.000
 -11590018.959 9  -9006329.85947  23245461.504    23245460.8924   23245468.0824
        -0.000          -0.000
 -15202868.635 9 -11822737.32349  20887959.780    20887959.5464   20887965.6084
        -0.000          -0.000
 98  6 25  4 56  0.0010000  0  6 15 29 25 22 16 14                   0.001000047
   7721556.152 9   6162965.27147  22673340.569    22673339.8144   22673347.1034
        -0.000          -0.000
   8625907.646 9   6717613.81147  23034901.938    23034901.9894   23034907.7844
        -0.000          -0.000
   6834331.899 9   5330008.31548  22378334.828    22378334.6324   22378339.8384
        -0.000          -0.000
 -14917578.307 9 -11345838.14648  22026380.810    22026379.9644   22026386.3004
        -0.000          -0.000
 -11680849.988 9  -9077107.23747  23228176.787    23228176.2694   23228183.3634
        -0.000          -0.000
 -15246954.154 9 -11857089.65349  20879570.644    20879570.3644   20879576.3724
        -0.000          -0.000
 98  6 25  4 56 30.0010000  0  6 15 29 25 22 16 14                   0.001000025
   7810577.535 9   6232332.56747  22690280.841    22690279.9864   22690287.2954
        -0.000          -0.000
   8682741.785 9   6761900.15847  23045717.100    23045717.1224   23045722.7894
        -0.000          -0.000
   6908130.257 9   5387513.52048  22392378.062    22392377.9194   22392383.1134
        -0.000          -0.000
 -14977425.511 9 -11392472.30448  22014992.321    22014991.3994   22014997.7384
        -0.000          -0.000
 -11771530.427 9  -9147767.26947  23210920.647    23210920.1944   23210927.4514
        -0.000          -0.000
 -15290602.857 9 -11891101.61549  20871264.558    20871264.2654   20871270.2604
        -0.000          -0.000
 98  6 25  4 57  0.0010000  0  6 15 29 25 22 16 14                   0.000999996
   7899896.410 9   6301931.68447  22707277.733    22707276.8794   22707284.0874
        -0.000          -0.000
   8739680.563 9   6806268.04147  23056552.108    23056551.9624   23056557.6534
        -0.000          -0.000
   6982161.400 9   5445200.13448  22406465.831    22406465.6774   22406470.6804
        -0.000          -0.000
 -15036808.042 9 -11438744.37948  22003692.130    22003691.1724   22003697.6254
        -0.000          -0.000
 -11862034.591 9  -9218289.96647  23193698.213    23193697.7984   23193705.0964
        -0.000          -0.000
 -15333786.567 9 -11924751.25049  20863046.920    20863046.6434   20863052.6204
        -0.000          -0.000
 98  6 25  4 57 30.0010000  0  6 15 29 25 22 16 14                   0.000999974
   7989508.236 9   6371759.07247  22724330.128    22724329.4154   22724336.7494
        -0.000          -0.000
   8796745.137 9   6850733.90047  23067411.038    23067410.9744   23067416.4794
        -0.000          -0.000
   7056417.286 9   5503061.85648  22420596.262    22420596.0454   22420601.0814
        -0.000          -0.000
 -15095732.526 9 -11484659.54548  21992479.225    21992478.2644   21992484.6764
        -0.000          -0.000
 -11952349.331 9  -9288665.06847  23176511.986    23176511.3854   23176518.7094
        -0.000          -0.000
 -15376497.968 9 -11958032.84949  20854919.203    20854918.9004   20854924.8774
        -0.000          -0.000
 98  6 25  4 58  0.0010000  0  6 15 29 25 22 16 14                   0.000999968
   8079399.200 9   6441803.96947  22741435.613    22741435.0724   22741442.4524
        -0.000          -0.000
   8853937.863 9   6895299.66647  23078294.846    23078294.6684   23078299.7854
        -0.000          -0.000
   7130889.083 9   5561091.82348  22434767.839    22434767.6144   22434772.6734
        -0.000          -0.000
 -15154200.449 9 -11530218.94148  21981353.153    21981352.1874   21981358.5804
        -0.000          -0.000
 -12042475.314 9  -9358893.06147  23159361.422    23159360.8884   23159368.2394
        -0.000          -0.000
 -15418755.639 9 -11990960.89849  20846877.881    20846877.5674   20846883.5074
        -0.000          -0.000
 98  6 25  4 58 30.0010000  0  6 15 29 25 22 16 14                   0.000999979
   8169555.921 9   6512055.94747  22758592.022    22758591.3554   22758598.6504
        -0.000          -0.000
   8911250.045 9   6939958.51447  23089201.134    23089200.9894   23089205.8994
        -0.000          -0.000
   7205573.869 9   5619287.76348  22448979.963    22448979.7054   22448984.7944
        -0.000          -0.000
 -15212198.210 9 -11575411.97748  21970316.453    21970315.5774   21970321.9464
        -0.000          -0.000
 -12132427.438 9  -9428985.57947  23142244.045    23142243.5584   23142250.8624
        -0.000          -0.000
 -15460578.635 9 -12023550.23449  20838919.281    20838918.9274   20838924.8614
        -0.000          -0.000
 98  6 25  4 59  0.0010000  0  6 15 29 25 22 16 14                   0.000999993
   8259945.454 9   6582489.34247  22775792.709    22775791.9384   22775799.2434
        -0.000          -0.000
   8968673.030 9   6984703.67747  23100128.419    23100128.3834   23100133.2424
        -0.000          -0.000
   7280437.475 9   5677623.04648  22463225.978    22463225.7534   22463230.8864
        -0.000          -0.000
 -15269739.253 9 -11620249.12548  21959366.850    21959365.9574   21959372.2434
        -0.000          -0.000
 -12222243.928 9  -9498972.41047  23125152.709    23125152.0604   23125159.2954
        -0.000          -0.000
 -15502000.921 9 -12055827.33449  20831036.844    20831036.5234   20831042.4314
        -0.000          -0.000
 98  6 25  4 59 30.0010000  0  6 15 29 25 22 16 14                   0.001000010
   8350570.752 9   6653106.42347  22793038.183    22793037.3584   22793044.7334
        -0.000          -0.000
   9026207.187 9   7029535.49447  23111077.046    23111076.9744   23111081.9254
        -0.000          -0.000
   7355490.081 9   5736105.61748  22477508.032    22477507.8154   22477512.9094
        -0.000          -0.000
 -15326799.733 9 -11664711.81948  21948508.571    21948507.6844   21948513.9524
        -0.000          -0.000
 -12311921.298 9  -9568850.83247  23108087.689    23108087.0254   23108094.0924
        -0.000          -0.000
 -15543016.207 9 -12087787.29249  20823231.902    20823231.5674   20823237.4664
        -0.000          -0.000
 98  6 25  5  0  0.0010000  0  6 15 29 25 22 16 14                   0.001000016
   8441423.276 9   6723900.58847  22810326.942    22810326.1294   22810333.3584
        -0.000          -0.000
   9083828.491 9   7074435.20347  23122041.823    23122041.7044   23122047.0714
        -0.000          -0.000
   7430718.956 9   5794725.51548  22491823.610    22491823.4254   22491828.5464
        -0.000          -0.000
 -15383380.342 9 -11708800.58448  21937741.626    21937740.8084   21937746.9814
        -0.000          -0.000
 -12401473.273 9  -9638631.55747  23091046.496    23091045.9114   23091052.8364
        -0.000          -0.000
 -15583633.385 9 -12119437.04149  20815502.664    20815502.3584   20815508.2454
        -0.000          -0.000
 98  6 25  5  0 30.0010000  0  6 15 29 25 22 16 14                   0.001000026
   8532531.294 9   6794893.83547  22827664.176    22827663.3884   22827670.6054
        -0.000          -0.000
   9141561.763 9   7119422.16947  23133027.541    23133027.5194   23133033.3464
        -0.000          -0.000
   7506156.319 9   5853507.87448  22506178.750    22506178.6574   22506183.7734
        -0.000          -0.000
 -15439461.502 9 -11752500.16248  21927069.743    21927068.8864   21927075.0494
        -0.000          -0.000
 -12490857.625 9  -9708281.65247  23074037.328    23074036.6374   23074043.5524
        -0.000          -0.000
 -15623812.967 9 -12150745.80249  20807856.798    20807856.4714   20807862.3294
        -0.000          -0.000
 98  6 25  5  1  0.0010000  0  6 15 29 25 22 16 14                   0.001000039
   8623871.958 9   6866068.36647  22845045.750    22845045.0154   22845052.2094
        -0.000          -0.000
   9199380.861 9   7164476.02447  23144029.997    23144030.0224   23144036.0024
        -0.000          -0.000
   7581787.879 9   5912441.56248  22520570.932    22520570.8634   22520575.8664
        -0.000          -0.000
 -15495069.375 9 -11795830.94848  21916487.877    21916487.0924   21916493.1954
        -0.000          -0.000
 -12580074.150 9  -9777800.96747  23057059.724    23057059.1614   23057066.0974
        -0.000          -0.000
 -15663571.888 9 -12181726.77249  20800290.894    20800290.5584   20800296.4284
        -0.000          -0.000
 98  6 25  5  1 30.0010000  0  6 15 29 25 22 16 14                   0.001000067
   8715433.455 9   6937414.95347  22862469.311    22862468.6224   22862475.8144
        -0.000          -0.000
   9257259.929 9   7209576.57147  23155044.141    23155044.1064   23155050.0424
        -0.000          -0.000
   7657615.821 9   5971528.28048  22535000.616    22535000.4544   22535005.3624
        -0.000          -0.000
 -15550214.780 9 -11838801.36748  21905994.065    21905993.3074   21905999.2704
        -0.000          -0.000
 -12669100.828 9  -9847172.36347  23040118.352    23040117.9384   23040124.8214
        -0.000          -0.000
 -15702933.114 9 -12212397.85549  20792800.679    20792800.3444   20792806.2124
        -0.000          -0.000
 98  6 25  5  2  0.0010000  0  6 15 29 25 22 16 14                   0.001000093
   8807172.651 9   7008900.03147  22879926.654    22879926.0674   22879933.2014
        -0.000          -0.000
   9315173.124 9   7254703.68347  23166064.870    23166064.7464   23166070.3874
        -0.000          -0.000
   7733600.129 9   6030736.83648  22549459.892    22549459.7244   22549464.7274
        -0.000          -0.000
 -15604938.905 9 -11881443.52248  21895580.400    21895579.6154   21895585.5614
        -0.000          -0.000
 -12757965.466 9  -9916417.49947  23023207.996    23023207.5654   23023214.4464
        -0.000          -0.000
 -15741928.977 9 -12242784.22949  20785380.012    20785379.6614   20785385.5064
        -0.000          -0.000
 98  6 25  5  2 30.0010000  0  6 15 29 25 22 16 14                   0.001000112
   8899082.101 9   7080517.76347  22897416.490    22897415.8894   22897422.9764
        -0.000          -0.000
   9373120.110 9   7299857.20247  23177092.101    23177091.9724   23177096.8844
        -0.000          -0.000
   7809738.288 9   6090065.25748  22563948.398    22563948.2544   22563953.3864
        -0.000          -0.000
 -15659235.962 9 -11923752.88448  21885248.105    21885247.2994   21885253.0864
        -0.000          -0.000
 -12846662.159 9  -9985531.75747  23006329.306    23006329.0304   23006335.9534
        -0.000          -0.000
 -15780553.037 9 -12272880.88549  20778030.092    20778029.7494   20778035.5994
        -0.000          -0.000
 98  6 25  5  3  0.0010000  0  6 15 29 25 22 16 14                   0.001000112
   8991172.109 9   7152276.19247  22914940.779    22914940.0474   22914947.1334
        -0.000          -0.000
   9431109.660 9   7345043.89447  23188127.421    23188127.3134   23188131.7854
        -0.000          -0.000
   7886025.135 9   6149509.55647  22578465.464    22578465.2244   22578470.2774
        -0.000          -0.000
 -15713095.100 9 -11965721.02348  21874998.967    21874998.1644   21875003.9614
        -0.000          -0.000
 -12935199.589 9 -10054521.89847  22989481.263    22989480.7944   22989487.8864
        -0.000          -0.000
 -15818782.580 9 -12302670.13449  20770755.185    20770754.9164   20770760.7544
        -0.000          -0.000
 98  6 25  5  3 30.0010000  0  6 15 29 25 22 16 14                   0.001000099
   9083482.110 9   7224206.04447  22932506.761    22932505.9874   22932513.2024
        -0.000          -0.000
   9489189.660 9   7390300.99947  23199179.700    23199179.4824   23199184.2234
        -0.000          -0.000
   7962487.293 9   6209090.45947  22593015.650    22593015.4114   22593020.5114
        -0.000          -0.000
 -15766475.395 9 -12007316.02348  21864841.019    21864840.2064   21864845.9954
        -0.000          -0.000
 -13023565.234 9 -10123378.21247  22972665.871    22972665.4154   22972672.5054
        -0.000          -0.000
 -15856564.481 9 -12332110.57049  20763565.576    20763565.2834   20763571.1254
        -0.000          -0.000
 98  6 25  5  4  0.0010000  0  6 15 29 25 22 16 14                   0.001000071
   9176052.664 9   7296338.92847  22950122.417    22950121.5614   22950128.7624
        -0.000          -0.000
   9547407.561 9   7435665.58247  23210257.990    23210257.9534   23210262.8154
        -0.000          -0.000
   8039161.270 9   6268836.41247  22607606.220    22607605.9904   22607611.1394
        -0.000          -0.000
 -15819326.602 9 -12048498.75948  21854783.786    21854782.9294   21854788.6724
        -0.000          -0.000
 -13111741.413 9 -10192086.88047  22955886.461    22955885.9614   22955893.0034
        -0.000          -0.000
 -15893826.343 9 -12361145.78749  20756474.895    20756474.5824   20756480.4074
        -0.000          -0.000
 98  6 25  5  4 30.0010000  0  6 15 29 25 22 16 14                   0.001000037
   9268899.107 9   7368686.78847  22967790.455    22967789.6114   22967796.8854
        -0.000          -0.000
   9605772.229 9   7481144.58147  23221364.330    23221364.3044   23221369.0554
        -0.000          -0.000
   8116063.145 9   6328759.94647  22622240.141    22622239.9194   22622245.1474
        -0.000          -0.000
 -15871626.586 9 -12089251.95948  21844831.353    21844830.4794   21844836.2394
        -0.000          -0.000
 -13199716.878 9 -10260639.14547  22939145.176    22939144.7314   22939151.8674
        -0.000          -0.000
 -15930556.120 9 -12389766.38249  20749485.444    20749485.1304   20749490.9674
        -0.000          -0.000
 98  6 25  5  5  0.0010000  0  6 15 29 25 22 16 14                   0.001000013
   9362028.940 9   7441255.46947  22985512.417    22985511.5814   22985518.9374
        -0.000          -0.000
   9664306.097 9   7526755.40846  23232502.680    23232502.6244   23232507.5064
        -0.000          -0.000
   8193204.268 9   6388869.92147  22636919.514    22636919.3474   22636924.6554
        -0.000          -0.000
 -15923359.705 9 -12129563.45148  21834986.894    21834985.9944   21834991.7284
        -0.000          -0.000
 -13287483.846 9 -10329028.95047  22922443.835    22922443.2434   22922450.4364
        -0.000          -0.000
 -15966747.572 9 -12417967.51449  20742598.476    20742598.1184   20742603.9144
        -0.000          -0.000
 98  6 25  5  5 30.0010000  0  6 15 29 25 22 16 14                   0.001000004
   9455426.737 9   7514032.95147  23003285.296    23003284.5274   23003291.9864
        -0.000          -0.000
   9722998.902 9   7572490.02746  23243671.393    23243671.4014   23243676.6144
        -0.000          -0.000
   8270591.138 9   6449171.36847  22651645.744    22651645.5524   22651650.9354
        -0.000          -0.000
 -15974511.307 9 -12169421.81148  21825252.958    21825252.0634   21825257.8744
        -0.000          -0.000
 -13375020.606 9 -10397239.35747  22905786.229    22905785.5654   22905792.7294
        -0.000          -0.000
 -16002407.684 9 -12445754.61349  20735812.583    20735812.2264   20735818.0154
        -0.000          -0.000
 98  6 25  5  6  0.0010000  0  6 15 29 25 22 16 14                   0.000999991
   9549041.316 9   7586979.38347  23021099.545    23021098.8854   23021106.2624
        -0.000          -0.000
   9781793.064 9   7618303.64147  23254859.881    23254859.8644   23254865.1144
        -0.000          -0.000
   8348176.474 9   6509627.48147  22666409.629    22666409.5314   22666415.0104
        -0.000          -0.000
 -16025123.534 9 -12208859.88548  21815621.712    21815620.8604   21815626.6364
        -0.000          -0.000
 -13462341.534 9 -10465281.59147  22889169.632    22889168.9484   22889176.1094
        -0.000          -0.000
 -16037583.689 9 -12473164.47549  20729118.781    20729118.4504   20729124.2034
        -0.000          -0.000
 98  6 25  5  6 30.0010000  0  6 15 29 25 22 16 14                   0.000999989
   9642868.530 9   7660091.47447  23038954.295    23038953.6444   23038960.9574
        -0.000          -0.000
   9840693.477 9   7664200.06647  23266068.663    23266068.5164   23266073.5244
        -0.000          -0.000
   8425951.927 9   6570231.72447  22681209.706    22681209.6554   22681215.2114
        -0.000          -0.000
 -16075197.570 9 -12247878.58748  21806092.931    21806092.0374   21806097.8354
        -0.000          -0.000
 -13549429.954 9 -10533142.65747  22872597.446    22872596.5914   22872603.7144
        -0.000          -0.000
 -16072284.175 9 -12500203.80249  20722515.562    20722515.2114   20722520.9744
        -0.000          -0.000
 98  6 25  5  7  0.0010000  0  7 15 29 25 22 18 16 14                0.000999930
   9736912.760 9   7733372.66747  23056850.566    23056849.7954   23056857.0194
        -0.000          -0.000
   9899711.806 9   7710188.38846  23277299.507    23277299.2914   23277304.1394
        -0.000          -0.000
   8503922.491 9   6630988.00147  22696046.881    22696046.9244   22696052.4554
        -0.000          -0.000
 -16124734.041 9 -12286478.40648  21796666.369    21796665.5324   21796671.4004
        -0.000          -0.000
  -3250442.439 8  -2516806.41345  24914867.934    24914867.6474   24914875.5524
        -0.000          -0.000
 -13636267.844 9 -10600808.49247  22856072.899    22856071.8814   22856078.9684
        -0.000          -0.000
 -16106487.770 9 -12526855.93349  20716006.764    20716006.4374   20716012.2244
        -0.000          -0.000
 98  6 25  5  7 30.0010000  0  7 15 29 25 22 18 16 14                0.000999961
   9831130.702 9   7806789.22147  23074779.685    23074778.9234   23074786.1434
        -0.000          -0.000
   9958799.203 9   7756230.52247  23288543.203    23288543.1274   23288548.1314
        -0.000          -0.000
   8582040.879 9   6691859.47247  22710912.388    22710912.3534   22710917.8114
        -0.000          -0.000
 -16173780.729 9 -12324696.57648  21787333.135    21787332.2544   21787338.1584
        -0.000          -0.000
  -3329918.749 8  -2578735.88345  24899744.125    24899743.6564   24899751.8154
        -0.000          -0.000
 -13722886.538 9 -10668303.52547  22839589.648    22839588.8824   22839595.9314
        -0.000          -0.000
 -16140242.409 9 -12553158.23649  20709583.432    20709583.1444   20709588.9244
        -0.000          -0.000
 98  6 25  5  8  0.0010000  0  7 15 29 25 22 18 16 14                0.000999982
   9925517.102 9   7880337.04947  23092740.812    23092740.0794   23092747.2834
        -0.000          -0.000
  10017960.376 9   7802330.14247  23299801.344    23299801.1544   23299806.4634
        -0.000          -0.000
   8660296.547 9   6752837.90647  22725804.091    22725804.0134   22725809.4104
        -0.000          -0.000
 -16222340.212 9 -12362535.11148  21778092.422    21778091.6114   21778097.5894
        -0.000          -0.000
  -3409411.771 8  -2640678.42445  24884616.830    24884616.4794   24884624.5294
        -0.000          -0.000
 -13809298.533 9 -10735637.51247  22823145.855    22823145.1764   22823152.1854
        -0.000          -0.000
 -16173567.729 9 -12579126.01449  20703241.861    20703241.5544   20703247.3154
        -0.000          -0.000
 98  6 25  5  8 30.0010000  0  7 15 29 25 22 18 16 14                0.000999991
  10020059.630 9   7954006.54747  23110731.640    23110730.9344   23110738.1414
        -0.000          -0.000
  10077199.377 9   7848490.39647  23311074.024    23311073.7704   23311079.6014
        -0.000          -0.000
   8738679.705 9   6813915.68747  22740720.101    22740719.9674   22740725.1714
        -0.000          -0.000
 -16270424.712 9 -12400003.52348  21768942.390    21768941.5354   21768947.4264
        -0.000          -0.000
  -3488942.255 9  -2702650.15045  24869482.690    24869482.2864   24869489.9884
        -0.000          -0.000
 -13895527.238 9 -10802828.67147  22806736.961    22806736.3454   22806743.3484
        -0.000          -0.000
 -16206482.066 9 -12604773.55349  20696978.412    20696978.1204   20696983.8694
        -0.000          -0.000
 98  6 25  5  9  0.0010000  0  7 15 29 25 22 18 16 14                0.001000001
  10114782.715 9   8027816.73547  23128756.808    23128756.1454   23128763.3064
        -0.000          -0.000
  10136527.862 9   7894720.36346  23322363.401    23322363.1944   23322369.4124
        -0.000          -0.000
   8817215.420 9   6875112.34047  22755665.182    22755664.9414   22755669.9134
        -0.000          -0.000
 -16317995.428 9 -12437071.59548  21759890.032    21759889.1524   21759895.1324
        -0.000          -0.000
  -3568494.014 8  -2764638.43145  24854344.577    24854344.0964   24854351.8714
        -0.000          -0.000
 -13981550.964 9 -10869860.11147  22790367.102    22790366.6374   22790373.5044
        -0.000          -0.000
 -16238967.451 9 -12630086.83649  20690796.631    20690796.3504   20690802.1124
        -0.000          -0.000
 98  6 25  5  9 30.0010000  0  7 15 29 25 22 18 16 14                0.000999999
  10209653.979 9   8101742.38347  23146810.325    23146809.5874   23146816.6744
        -0.000          -0.000
  10195908.078 9   7940990.67746  23333663.194    23333662.9014   23333668.8884
        -0.000          -0.000
   8895878.043 9   6936407.88947  22770634.225    22770634.0184   22770638.8084
        -0.000          -0.000
 -16365069.043 9 -12473752.31548  21750932.205    21750931.3544   21750937.3044
        -0.000          -0.000
  -3648087.008 8  -2826658.88645  24839198.534    24839197.9914   24839205.6324
        -0.000          -0.000
 -14067403.533 9 -10936758.16847  22774029.857    22774029.3884   22774036.2444
        -0.000          -0.000
 -16271060.757 9 -12655094.60849  20684689.463    20684689.2084   20684694.9764
        -0.000          -0.000
 98  6 25  5 10  0.0010000  0  7 15 29 25 22 18 16 14                0.000999999
  10304702.462 9   8175806.11447  23164897.678    23164896.7664   23164903.8654
        -0.000          -0.000
  10255375.818 9   7987329.17847  23344979.843    23344979.4964   23344985.1924
        -0.000          -0.000
   8974702.170 9   6997829.28147  22785634.032    22785633.7944   22785638.4874
        -0.000          -0.000
 -16411613.877 9 -12510020.99248  21742075.024    21742074.1154   21742080.0994
        -0.000          -0.000
  -3727691.890 8  -2888688.61045  24824050.024    24824049.5384   24824057.1804
        -0.000          -0.000
 -14153064.260 9 -11003506.74547  22757728.974    22757728.5724   22757735.4754
        -0.000          -0.000
 -16302709.563 9 -12679756.00749  20678666.917    20678666.6374   20678672.3974
        -0.000          -0.000
 98  6 25  5 10 30.0010000  0  7 15 29 25 22 18 16 14                0.000999986
  10399909.970 9   8249993.76347  23183015.078    23183014.1044   23183021.2594
        -0.000          -0.000
  10314918.993 9   8033726.42547  23356310.782    23356310.4224   23356315.9294
        -0.000          -0.000
   9053659.777 9   7059354.68547  22800659.333    22800659.0124   22800663.7014
        -0.000          -0.000
 -16457654.817 9 -12545897.02948  21733313.648    21733312.8004   21733318.8064
        -0.000          -0.000
  -3807320.868 8  -2950737.14045  24808896.958    24808896.4984   24808904.2434
        -0.000          -0.000
 -14238550.696 9 -11070119.52447  22741461.485    22741461.0544   22741467.8604
        -0.000          -0.000
 -16333917.895 9 -12704074.17149  20672728.101    20672727.8484   20672733.6574
        -0.000          -0.000
 98  6 25  5 11  0.0010000  0  7 15 29 25 22 18 16 14                0.000999977
  10495298.867 9   8324322.75047  23201166.802    23201165.9874   23201173.1764
        -0.000          -0.000
  10374571.204 9   8080208.62247  23367662.312    23367661.9544   23367667.3764
        -0.000          -0.000
   9132772.693 9   7121001.09647  22815713.941    22815713.6704   22815718.4064
        -0.000          -0.000
 -16503155.271 9 -12581351.91048  21724655.280    21724654.3754   21724660.3754
        -0.000          -0.000
  -3886949.183 8  -3012785.11545  24793744.157    24793743.7684   24793751.4174
        -0.000          -0.000
 -14323830.628 9 -11136571.37447  22725233.316    22725232.7794   22725239.5614
        -0.000          -0.000
 -16364650.525 9 -12728021.66849  20666879.810    20666879.5774   20666885.4184
        -0.000          -0.000
 98  6 25  5 11 30.0010000  0  7 15 29 25 22 18 16 14                0.000999974
  10590861.985 9   8398787.49947  23219351.878    23219351.0684   23219358.2434
        -0.000          -0.000
  10434355.555 9   8126793.82146  23379038.817    23379038.5884   23379043.9164
        -0.000          -0.000
   9212041.967 9   7182769.35147  22830798.264    22830797.9584   22830802.8714
        -0.000          -0.000
 -16548127.189 9 -12616394.94548  21716097.346    21716096.4504   21716102.4894
        -0.000          -0.000
  -3966576.587 8  -3074832.39145  24778591.580    24778591.2984   24778598.8694
        -0.000          -0.000
 -14408895.911 9 -11202855.97347  22709046.129    22709045.3554   22709052.1384
        -0.000          -0.000
 -16394894.965 9 -12751588.75249  20661124.496    20661124.2514   20661130.1354
        -0.000          -0.000
 98  6 25  5 12  0.0010000  0  7 15 29 25 22 18 16 14                0.000999974
  10686592.391 9   8473382.61547  23237568.657    23237567.9474   23237575.1654
        -0.000          -0.000
  10494274.466 9   8173483.90146  23390440.891    23390440.6454   23390445.9774
        -0.000          -0.000
   9291453.849 9   7244648.74947  22845909.776    22845909.4464   22845914.4474
        -0.000          -0.000
 -16592571.808 9 -12651027.10048  21707639.756    21707638.9044   21707644.9974
        -0.000          -0.000
  -4046205.194 8  -3136880.58945  24763438.536    24763438.2994   24763445.7144
        -0.000          -0.000
 -14493740.179 9 -11268968.35947  22692900.701    22692899.9824   22692906.7464
        -0.000          -0.000
 -16424648.289 9 -12774773.14249  20655462.641    20655462.3714   20655468.2584
        -0.000          -0.000
 98  6 25  5 12 30.0010000  0  7 15 29 25 22 18 16 14                0.000999972
  10782477.330 9   8548098.12847  23255814.997    23255814.2054   23255821.4734
        -0.000          -0.000
  10554314.718 9   8220268.48546  23401865.963    23401865.7464   23401871.2444
        -0.000          -0.000
   9370985.886 9   7306621.76847  22861044.237    22861043.8994   22861048.9804
        -0.000          -0.000
 -16636487.648 9 -12685247.21448  21699282.888    21699281.9904   21699288.1534
        -0.000          -0.000
  -4125842.536 8  -3198935.60145  24748284.029    24748283.7404   24748291.3804
        -0.000          -0.000
 -14578360.273 9 -11334906.05447  22676798.045    22676797.2904   22676804.0894
        -0.000          -0.000
 -16453923.602 9 -12797585.06549  20649891.706    20649891.4284   20649897.3234
        -0.000          -0.000
 98  6 25  5 13  0.0010000  0  7 15 29 25 22 18 16 14                0.000999980
  10878529.379 9   8622943.87047  23274093.079    23274092.4014   23274099.6144
        -0.000          -0.000
  10614475.567 9   8267147.04346  23413314.023    23413313.8304   23413319.4834
        -0.000          -0.000
   9450674.489 9   7368716.76647  22876208.410    22876208.0514   22876213.2804
        -0.000          -0.000
 -16679851.306 9 -12719037.05448  21691031.010    21691030.1024   21691036.2854
        -0.000          -0.000
  -4205446.440 8  -3260964.55545  24733135.949    24733135.6064   24733143.1214
        -0.000          -0.000
 -14662732.991 9 -11400651.00347  22660742.584    22660741.6454   22660748.4754
        -0.000          -0.000
 -16482690.678 9 -12820000.96649  20644417.507    20644417.2474   20644423.1464
        -0.000          -0.000
 98  6 25  5 13 30.0010000  0  7 15 29 25 22 18 16 14                0.000999987
  10974749.426 9   8697920.51947  23292403.127    23292402.4264   23292409.6904
        -0.000          -0.000
  10674742.826 9   8314108.51946  23424782.291    23424782.2214   23424788.0064
        -0.000          -0.000
   9530530.685 9   7430942.37547  22891404.495    22891404.1714   22891409.4774
        -0.000          -0.000
 -16722663.322 9 -12752397.04748  21682884.128    21682883.2524   21682889.4454
        -0.000          -0.000
  -4285038.727 8  -3322984.44745  24717989.770    24717989.6834   24717997.3004
        -0.000          -0.000
 -14746847.823 9 -11466194.98547  22644735.853    22644735.1364   22644741.9924
        -0.000          -0.000
 -16510946.465 9 -12842018.45549  20639040.613    20639040.3504   20639046.2554
        -0.000          -0.000
 98  6 25  5 14  0.0010000  0  7 15 29 25 22 18 16 14                0.000999990
  11071127.364 9   8773020.16647  23310743.152    23310742.4394   23310749.7654
        -0.000          -0.000
  10735097.049 9   8361137.79146  23436267.109    23436267.1004   23436273.0204
        -0.000          -0.000
   9610539.990 9   7493287.30447  22906629.787    22906629.5204   22906634.7584
        -0.000          -0.000
 -16764932.155 9 -12785333.77348  21674840.662    21674839.7614   21674845.9344
        -0.000          -0.000
  -4364615.674 8  -3384992.40245  24702846.869    24702846.5854   24702854.1284
        -0.000          -0.000
 -14830714.232 9 -11531545.39247  22628776.442    22628775.8354   22628782.7504
        -0.000          -0.000
 -16538702.405 9 -12863646.45249  20633758.815    20633758.5464   20633764.4794
        -0.000          -0.000
 98  6 25  5 14 30.0010000  0  7 15 29 25 22 18 16 14                0.000999991
  11167659.445 9   8848239.98746  23329112.882    23329112.0024   23329119.1704
        -0.000          -0.000
  10795538.325 9   8408234.88546  23447768.657    23447768.6284   23447774.6024
        -0.000          -0.000
   9690716.580 9   7555762.57147  22921886.998    22921886.6884   22921891.9234
        -0.000          -0.000
 -16806658.229 9 -12817847.58048  21666900.404    21666899.5084   21666905.7804
        -0.000          -0.000
  -4444176.163 8  -3446987.51145  24687707.178    24687706.7064   24687714.1924
        -0.000          -0.000
 -14914331.959 9 -11596702.02247  22612864.562    22612863.8904   22612870.8294
        -0.000          -0.000
 -16565954.542 9 -12884881.87649  20628572.945    20628572.6264   20628578.5594
        -0.000          -0.000
 98  6 25  5 15  0.0010000  0  7 15 29 25 22 18 16 14                0.001000003
  11264347.812 9   8923581.55446  23347512.148    23347511.1444   23347518.3314
        -0.000          -0.000
  10856077.182 9   8455408.01846  23459288.865    23459288.8024   23459294.8924
        -0.000          -0.000
   9771078.677 9   7618382.37447  22937179.477    22937179.1414   22937184.3524
        -0.000          -0.000
 -16847839.773 9 -12849937.07048  21659063.804    21659062.9334   21659069.2664
        -0.000          -0.000
  -4523701.873 8  -3508955.55845  24672573.571    24672573.4134   24672580.9174
        -0.000          -0.000
 -14997702.455 9 -11661666.00947  22596999.658    22596999.0334   22597005.9784
        -0.000          -0.000
 -16592699.479 9 -12905722.07849  20623483.483    20623483.1904   20623489.1364
        -0.000          -0.000
 98  6 25  5 15 30.0010000  0  7 15 29 25 22 18 16 14                0.001000013
  11361168.389 9   8999026.15146  23365936.577    23365935.5104   23365942.6864
        -0.000          -0.000
  10916706.027 9   8502651.26447  23470826.259    23470826.2454   23470832.2724
        -0.000          -0.000
   9851578.749 9   7681109.70647  22952498.016    22952497.8064   22952503.0284
        -0.000          -0.000
 -16888497.885 9 -12881618.68448  21651326.767    21651325.9194   21651332.2784
        -0.000          -0.000
  -4603233.711 9  -3570928.35745  24657439.385    24657438.9704   24657446.4244
        -0.000          -0.000
 -15080837.861 9 -11726446.79947  22581179.555    22581178.9154   22581185.8124
        -0.000          -0.000
 -16618972.013 9 -12926194.16649  20618483.971    20618483.6914   20618489.6174
        -0.000          -0.000
 98  6 25  5 16  0.0010000  0  7 15 29 25 22 18 16 14                0.001000022
  11458131.056 9   9074581.44346  23384387.736    23384386.8464   23384394.0534
        -0.000          -0.000
  10977438.162 9   8549974.99147  23482383.539    23482383.4834   23482389.2734
        -0.000          -0.000
   9932220.031 9   7743947.06447  22967843.503    22967843.3634   22967848.4444
        -0.000          -0.000
 -16928600.212 9 -12912867.22148  21643695.565    21643694.7124   21643701.0454
        -0.000          -0.000
  -4682766.312 8  -3632901.71745  24642305.233    24642304.5174   24642311.7164
        -0.000          -0.000
 -15163726.534 9 -11791035.34147  22565406.425    22565405.7244   22565412.6214
        -0.000          -0.000
 -16644749.282 9 -12946280.35249  20613578.754    20613578.4574   20613584.3334
        -0.000          -0.000
 98  6 25  5 16 30.0010000  0  7 15 29 25 22 18 16 14                0.001000024
  11555227.303 9   9150240.83646  23402864.326    23402863.6744   23402870.8954
        -0.000          -0.000
  11038267.175 9   8597374.20646  23493959.205    23493959.1104   23493964.5394
        -0.000          -0.000
  10012996.736 9   7806889.96747  22983214.721    22983214.5724   22983219.6314
        -0.000          -0.000
 -16968137.549 9 -12943675.50748  21636171.849    21636171.0104   21636177.3584
        -0.000          -0.000
  -4762308.601 8  -3694882.62945  24627168.582    24627168.0774   24627175.1954
        -0.000          -0.000
 -15246373.007 9 -11855435.14447  22549679.436    22549678.6424   22549685.5704
        -0.000          -0.000
 -16670036.023 9 -12965984.30649  20608766.870    20608766.5584   20608772.3784
        -0.000          -0.000
 98  6 25  5 17  0.0010000  0  7 15 29 25 22 18 16 14                0.001000023
  11652445.545 9   9225995.28446  23421364.230    23421363.6074   23421370.8834
        -0.000          -0.000
  11099190.276 9   8644846.74546  23505552.769    23505552.6754   23505557.6594
        -0.000          -0.000
  10093880.620 9   7869916.36647  22998606.307    22998606.1864   22998611.2964
        -0.000          -0.000
 -17007118.434 9 -12974050.18948  21628754.074    21628753.2064   21628759.5084
        -0.000          -0.000
  -4841861.223 9  -3756871.61045  24612029.979    24612029.6174   24612036.8684
        -0.000          -0.000
 -15328783.126 9 -11919650.78647  22533997.377    22533996.4894   22534003.3804
        -0.000          -0.000
 -16694855.937 9 -12985324.48549  20604043.753    20604043.4784   20604049.2484
        -0.000          -0.000
 98  6 25  5 17 30.0010000  0  7 15 29 25 22 18 16 14                0.001000033
  11749805.606 9   9301860.24846  23439891.140    23439890.6214   23439897.9754
        -0.000          -0.000
  11160232.122 9   8692411.80646  23517168.806    23517168.7134   23517173.3164
        -0.000          -0.000
  10174893.624 9   7933043.37147  23014022.647    23014022.3844   23014027.5534
        -0.000          -0.000
 -17045509.762 9 -13003965.47548  21621448.374    21621447.5434   21621453.8674
        -0.000          -0.000
  -4921394.823 9  -3818845.80045  24596895.491    24596894.9354   24596902.1204
        -0.000          -0.000
 -15410921.981 9 -11983655.05747  22518366.907    22518365.9304   22518372.7614
        -0.000          -0.000
 -16719176.512 9 -13004275.56449  20599415.703    20599415.4314   20599421.1824
        -0.000          -0.000
 98  6 25  5 18  0.0010000  0  7 15 29 25 22 18 16 14                0.001000024
  11847287.029 9   9377819.77346  23458441.638    23458440.8894   23458448.1094
        -0.000          -0.000
  11221376.646 9   8740056.87846  23528804.236    23528804.1184   23528808.5584
        -0.000          -0.000
  10256037.784 9   7996272.58647  23029463.925    23029463.5544   23029468.7264
        -0.000          -0.000
 -17083333.375 9 -13033438.38248  21614250.759    21614249.9164   21614256.2814
        -0.000          -0.000
  -5000975.505 9  -3880856.61545  24581751.834    24581750.9294   24581758.3034
        -0.000          -0.000
 -15492821.468 9 -12047472.78747  22502781.892    22502780.8694   22502787.7534
        -0.000          -0.000
 -16742998.054 9 -13022837.79549  20594882.599    20594882.3604   20594888.1034
        -0.000          -0.000
 98  6 25  5 18 30.0010000  0  7 15 29 25 22 18 16 14                0.001000024
  11944902.693 9   9453883.90246  23477017.357    23477016.5594   23477023.6644
        -0.000          -0.000
  11282657.433 9   8787808.10946  23540465.518    23540465.3764   23540469.8084
        -0.000          -0.000
  10337336.301 9   8059622.08947  23044934.264    23044934.1244   23044939.2434
        -0.000          -0.000
 -17120591.714 9 -13062470.81848  21607160.793    21607159.9144   21607166.2404
        -0.000          -0.000
  -5080562.448 9  -3942872.37046  24566606.443    24566606.0834   24566613.2874
        -0.000          -0.000
 -15574461.840 9 -12111088.63947  22487246.088    22487245.1744   22487251.9654
        -0.000          -0.000
 -16766313.720 9 -13041005.84149  20590445.876    20590445.6014   20590451.3344
        -0.000          -0.000
 98  6 25  5 19  0.0010000  0  7 15 29 25 22 18 16 14                0.001000022
  12042630.552 9   9530035.47446  23495614.415    23495613.6054   23495620.7264
        -0.000          -0.000
  11344055.655 9   8835650.86246  23552149.104    23552148.8974   23552153.3494
        -0.000          -0.000
  10418775.227 9   8123080.98847  23060431.551    23060431.4054   23060436.5054
        -0.000          -0.000
 -17157305.329 9 -13091078.79448  21600174.428    21600173.5414   21600179.7774
        -0.000          -0.000
  -5160178.566 9  -4004910.81446  24551455.835    24551455.6214   24551462.7934
        -0.000          -0.000
 -15655862.088 9 -12174517.37547  22471755.969    22471755.1784   22471761.8924
        -0.000          -0.000
 -16789138.863 9 -13058791.65349  20586102.355    20586102.1084   20586107.8654
        -0.000          -0.000
 98  6 25  5 19 30.0010000  0  7 15 29 25 22 18 16 14                0.001000018
  12140481.086 9   9606282.62746  23514234.606    23514233.9354   23514241.1814
        -0.000          -0.000
  11405568.246 9   8883582.75146  23563854.269    23563854.1544   23563858.4734
        -0.000          -0.000
  10500368.645 9   8186660.28247  23075958.215    23075958.1374   23075963.3114
        -0.000          -0.000
 -17193450.091 9 -13119243.51148  21593296.334    21593295.4434   21593301.6404
        -0.000          -0.000
  -5239809.264 9  -4066960.62446  24536303.094    24536302.3824   24536309.6714
        -0.000          -0.000
 -15737003.051 9 -12237744.05647  22456315.265    22456314.5074   22456321.2704
        -0.000          -0.000
 -16811445.326 9 -13076173.31349  20581857.591    20581857.3474   20581863.1164
        -0.000          -0.000
 98  6 25  5 20  0.0010000  0  7 15 29 25 22 18 16 14                0.001000014
  12238443.820 9   9682617.21446  23532876.212    23532875.6194   23532882.8244
        -0.000          -0.000
  11467178.818 9   8931591.01946  23575578.160    23575578.0684   23575582.4234
        -0.000          -0.000
  10582095.682 9   8250343.66647  23091510.421    23091510.2704   23091515.5294
        -0.000          -0.000
 -17229032.560 9 -13146970.07948  21586525.197    21586524.3504   21586530.5464
        -0.000          -0.000
  -5319430.605 9  -4129003.17246  24521151.182    24521150.8104   24521158.0894
        -0.000          -0.000
 -15817890.341 9 -12300773.08847  22440922.869    22440922.1534   22440928.8064
        -0.000          -0.000
 -16833248.888 9 -13093163.10549  20577708.518    20577708.2394   20577714.0394
        -0.000          -0.000
 98  6 25  5 20 30.0010000  0  7 15 29 25 22 18 16 14                0.001000003
  12336522.385 9   9759042.02546  23551540.245    23551539.3994   23551546.6554
        -0.000          -0.000
  11528886.087 9   8979674.61046  23587320.540    23587320.5284   23587324.8334
        -0.000          -0.000
  10663946.685 9   8314123.66747  23107086.068    23107085.9774   23107091.3844
        -0.000          -0.000
 -17264026.206 9 -13174237.82748  21579866.066    21579865.2004   21579871.3564
        -0.000          -0.000
  -5399075.390 9  -4191063.97646  24505995.130    24505994.9934   24506002.0564
        -0.000          -0.000
 -15898503.831 9 -12363588.74948  22425582.645    22425581.8234   22425588.4754
        -0.000          -0.000
 -16854550.584 9 -13109761.84049  20573654.867    20573654.6254   20573660.4824
        -0.000          -0.000
 98  6 25  5 21  0.0010000  0  7 15 29 25 22 18 16 14                0.000999992
  12434710.176 9   9835551.94546  23570224.676    23570223.8434   23570231.1754
        -0.000          -0.000
  11590675.161 9   9027821.92946  23599078.655    23599078.6284   23599083.0054
        -0.000          -0.000
  10745903.515 9   8377986.12947  23122681.844    23122681.7514   23122687.2374
        -0.000          -0.000
 -17298427.005 9 -13201043.61848  21573319.839    21573318.9324   21573325.0144
        -0.000          -0.000
  -5478680.708 9  -4253094.02246  24490847.036    24490846.5504   24490853.7794
        -0.000          -0.000
 -15978832.473 9 -12426182.45948  22410296.671    22410295.7654   22410302.4284
        -0.000          -0.000
 -16875336.372 9 -13125958.55349  20569699.358    20569699.1544   20569705.0554
        -0.000          -0.000
 98  6 25  5 21 30.0010000  0  7 15 29 25 22 18 16 14                0.000999980
  12533008.543 9   9912148.06946  23588930.400    23588929.5944   23588936.7134
        -0.000          -0.000
  11652554.442 9   9076039.54146  23610854.075    23610853.9654   23610858.5204
        -0.000          -0.000
  10827960.808 9   8441926.87647  23138296.718    23138296.6514   23138302.2754
        -0.000          -0.000
 -17332230.089 9 -13227383.66448  21566887.224    21566886.3754   21566892.4294
        -0.000          -0.000
  -5558236.507 9  -4315085.48546  24475707.700    24475707.5104   24475714.6744
        -0.000          -0.000
 -16058865.373 9 -12488545.72748  22395066.880    22395066.0184   22395072.6264
        -0.000          -0.000
 -16895589.100 9 -13141739.89749  20565845.402    20565845.1724   20565851.0924
        -0.000          -0.000
 98  6 25  5 22  0.0010000  0  7 15 29 25 22 18 16 14                0.000999972
  12631413.712 9   9988827.41246  23607656.100    23607655.3804   23607662.6144
        -0.000          -0.000
  11714546.796 9   9124345.26946  23622651.005    23622650.7994   23622655.6024
        -0.000          -0.000
  10910123.779 9   8505949.97447  23153931.834    23153931.7764   23153937.3984
        -0.000          -0.000
 -17365443.025 9 -13253263.85248  21560566.985    21560566.1214   21560572.1214
        -0.000          -0.000
  -5637752.935 9  -4377046.27446  24460576.318    24460575.9564   24460583.2444
        -0.000          -0.000
 -16138604.772 9 -12550680.29348  22379892.914    22379892.0834   22379898.7134
        -0.000          -0.000
 -16915304.258 9 -13157102.35949  20562093.736    20562093.4894   20562099.4094
        -0.000          -0.000
 98  6 25  5 22 30.0010000  0  7 15 29 25 22 18 16 14                0.000999969
  12729923.616 9  10065588.38046  23626401.944    23626401.2324   23626408.4604
        -0.000          -0.000
  11776658.791 9   9172744.20946  23634470.565    23634470.3864   23634475.5554
        -0.000          -0.000
  10992394.631 9   8570057.13847  23169587.685    23169587.4984   23169593.0564
        -0.000          -0.000
 -17398072.101 9 -13278689.08948  21554357.810    21554356.9394   21554362.9324
        -0.000          -0.000
  -5717232.196 9  -4438978.07046  24445451.581    24445451.3374   24445458.7454
        -0.000          -0.000
 -16218039.768 9 -12612577.66648  22364776.969    22364776.1574   22364782.6814
        -0.000          -0.000
 -16934477.959 9 -13172042.89149  20558445.175    20558444.8754   20558450.7774
        -0.000          -0.000
 98  6 25  5 23  0.0010000  0  7 15 29 25 22 18 16 14                0.000999967
  12828518.984 9  10142415.92846  23645164.085    23645163.2844   23645170.4704
        -0.000          -0.000
  11838884.794 9   9221231.98946  23646311.919    23646311.6594   23646317.2144
        -0.000          -0.000
  11074770.932 9   8634246.46347  23185263.464    23185263.2754   23185268.6564
        -0.000          -0.000
 -17430136.712 9 -13303674.47948  21548256.092    21548255.2234   21548261.1994
        -0.000          -0.000
  -5796698.803 9  -4500900.03046  24430329.558    24430329.2154   24430336.6524
        -0.000          -0.000
 -16297190.790 9 -12674253.74648  22349715.038    22349714.2154   22349720.7014
        -0.000          -0.000
 -16953135.597 9 -13186581.31049  20554894.754    20554894.4534   20554900.3134
        -0.000          -0.000
 98  6 25  5 23 30.0010000  0  7 15 29 25 22 18 16 14                0.000999980
  12927198.269 9  10219308.85946  23663942.034    23663941.2344   23663948.4834
        -0.000          -0.000
  11901233.003 9   9269814.99546  23658176.281    23658176.0564   23658182.0454
        -0.000          -0.000
  11157259.129 9   8698522.98147  23200960.569    23200960.4294   23200965.5734
        -0.000          -0.000
 -17461636.071 9 -13328219.41848  21542261.850    21542261.0334   21542267.0124
        -0.000          -0.000
  -5876138.695 9  -4562801.17446  24415212.724    24415212.2704   24415219.6344
        -0.000          -0.000
 -16376071.822 9 -12735719.45448  22334704.367    22334703.6374   22334710.0944
        -0.000          -0.000
 -16971292.510 9 -13200729.55449  20551439.646    20551439.3454   20551445.1484
        -0.000          -0.000
 98  6 25  5 24  0.0010000  0  7 15 29 25 22 18 16 14                0.000999987
  13025951.244 9  10296259.23246  23682733.937    23682733.2254   23682740.5334
        -0.000          -0.000
  11963681.316 9   9318476.01146  23670059.486    23670059.3904   23670065.7824
        -0.000          -0.000
  11239847.748 9   8762877.73647  23216676.889    23216676.7294   23216681.5314
        -0.000          -0.000
 -17492579.974 9 -13352331.53548  21536373.468    21536372.5904   21536378.5214
        -0.000          -0.000
  -5955613.593 9  -4624729.61146  24400088.768    24400088.6904   24400095.9274
        -0.000          -0.000
 -16454682.224 9 -12796974.28648  22319745.350    22319744.5324   22319750.9834
        -0.000          -0.000
 -16988974.864 9 -13214508.00849  20548074.851    20548074.5144   20548080.3174
        -0.000          -0.000
 98  6 25  5 24 30.0010000  0  7 15 29 25 22 18 16 14                0.000999998
  13124772.798 9  10373263.02246  23701539.279    23701538.4664   23701545.6954
        -0.000          -0.000
  12026210.077 9   9367199.70546  23681958.052    23681958.1024   23681964.6884
        -0.000          -0.000
  11322536.150 9   8827310.26047  23232412.403    23232412.0654   23232416.6224
        -0.000          -0.000
 -17522969.670 9 -13376011.80748  21530590.477    21530589.5934   21530595.4884
        -0.000          -0.000
  -6035091.512 9  -4686660.36646  24384964.744    24384964.5514   24384971.7574
        -0.000          -0.000
 -16533021.243 9 -12858017.64348  22304837.816    22304837.0634   22304843.5944
        -0.000          -0.000
 -17006191.350 9 -13227923.45549  20544798.641    20544798.3324   20544804.1214
        -0.000          -0.000
 98  6 25  5 25  0.0010000  0  7 15 29 25 22 18 16 14                0.001000006
  13223656.632 9  10450315.33646  23720356.243    23720355.4594   23720362.6224
        -0.000          -0.000
  12088814.037 9   9415982.00046  23693871.040    23693871.1244   23693877.8364
        -0.000          -0.000
  11405318.215 9   8891815.75647  23248165.470    23248165.1204   23248169.5564
        -0.000          -0.000
 -17552806.562 9 -13399261.31348  21524912.663    21524911.8044   21524917.7434
        -0.000          -0.000
  -6114579.059 9  -4748598.65246  24369839.045    24369838.5724   24369845.6474
        -0.000          -0.000
 -16611097.363 9 -12918856.14348  22289980.284    22289979.5884   22289986.1644
        -0.000          -0.000
 -17022938.885 9 -13240973.48549  20541611.623    20541611.3384   20541617.1484
        -0.000          -0.000
 98  6 25  5 25 30.0010000  0  7 15 29 25 22 18 16 14                0.001000000
  13322609.874 9  10527421.76746  23739186.290    23739185.7244   23739192.8814
        -0.000          -0.000
  12151489.180 9   9464819.79446  23705797.790    23705797.8774   23705804.4534
        -0.000          -0.000
  11488182.844 9   8956385.59247  23263933.913    23263933.6744   23263938.1864
        -0.000          -0.000
 -17582088.115 9 -13422078.09448  21519340.465    21519339.6514   21519345.5624
        -0.000          -0.000
  -6194077.501 9  -4810545.41246  24354710.913    24354710.5054   24354717.4314
        -0.000          -0.000
 -16688885.630 9 -12979470.35048  22275177.501    22275176.8864   22275183.5124
        -0.000          -0.000
 -17039188.991 9 -13253635.90049  20538519.316    20538519.0294   20538524.8484
        -0.000          -0.000
 98  6 25  5 26  0.0010000  0  7 15 29 25 22 18 16 14                0.000999984
  13421646.306 9  10604592.97546  23758032.307    23758031.7564   23758038.8634
        -0.000          -0.000
  12214247.350 9   9513722.23846  23717740.679    23717740.5894   23717746.7484
        -0.000          -0.000
  11571144.247 9   9021030.82847  23279720.845    23279720.6254   23279725.2444
        -0.000          -0.000
 -17610798.264 9 -13444449.62148  21513877.207    21513876.3044   21513882.2064
        -0.000          -0.000
  -6273579.012 9  -4872494.56246  24339582.407    24339581.9484   24339588.8094
        -0.000          -0.000
 -16766367.714 9 -13039845.96248  22260433.054    22260432.4234   22260439.1554
        -0.000          -0.000
 -17054912.551 9 -13265888.02849  20535527.218    20535526.9514   20535532.7904
        -0.000          -0.000
 98  6 25  5 26 30.0010000  0  7 15 29 25 22 18 16 14                0.000999964
  13520772.287 9  10681834.02246  23776895.259    23776894.9384   23776901.9384
        -0.000          -0.000
  12277121.987 9   9562715.43946  23729705.638    23729705.4574   23729711.1224
        -0.000          -0.000
  11654212.991 9   9085759.72547  23295528.067    23295527.8524   23295532.6034
        -0.000          -0.000
 -17638919.868 9 -13466362.54548  21508525.826    21508524.9084   21508530.8214
        -0.000          -0.000
  -6353082.232 9  -4934445.03046  24324453.588    24324452.8424   24324459.8084
        -0.000          -0.000
 -16843546.812 9 -13099985.48648  22245746.349    22245745.7014   22245752.4974
        -0.000          -0.000
 -17070082.432 9 -13277708.70649  20532640.477    20532640.1994   20532646.0424
        -0.000          -0.000
 98  6 25  5 27  0.0010000  0  7 15 29 25 22 18 16 14                0.000999949
  13619998.644 9  10759153.24446  23795777.280    23795777.0964   23795784.0934
        -0.000          -0.000
  12340137.144 9   9611818.13646  23741697.179    23741696.9854   23741702.2534
        -0.000          -0.000
  11737396.151 9   9150577.77247  23311356.900    23311356.7844   23311361.8194
        -0.000          -0.000
 -17666428.902 9 -13487798.13648  21503290.981    21503290.0724   21503296.0034
        -0.000          -0.000
  -6432568.913 9  -4996382.61146  24309327.655    24309326.9534   24309333.8824
        -0.000          -0.000
 -16920417.685 9 -13159884.83048  22231118.224    22231117.6184   22231124.4624
        -0.000          -0.000
 -17084676.429 9 -13289080.65049  20529863.376    20529863.1014   20529868.9034
        -0.000          -0.000
 98  6 25  5 27 30.0010000  0  7 15 29 25 22 18 16 14                0.000999937
  13719312.529 9  10836540.66346  23814676.251    23814675.9234   23814682.9384
        -0.000          -0.000
  12403287.738 9   9661026.38146  23753714.573    23753714.2564   23753719.2334
        -0.000          -0.000
  11820689.380 9   9215481.58547  23327206.917    23327206.7814   23327211.9774
        -0.000          -0.000
 -17693325.644 9 -13508756.61448  21498172.671    21498171.7564   21498177.7224
        -0.000          -0.000
  -6512044.863 9  -5058311.85046  24294203.711    24294203.1834   24294210.1034
        -0.000          -0.000
 -16996997.774 9 -13219557.59948  22216545.413    22216544.8764   22216551.7574
        -0.000          -0.000
 -17098702.276 9 -13300009.87949  20527194.378    20527194.0994   20527199.8794
        -0.000          -0.000
 98  6 25  5 28  0.0010000  0  7 15 29 25 22 18 16 14                0.000999941
  13818706.207 9  10913990.29046  23833590.259    23833589.8704   23833597.0824
        -0.000          -0.000
  12466586.573 9   9710350.14846  23765760.118    23765759.7274   23765764.4874
        -0.000          -0.000
  11904114.595 9   9280488.25147  23343082.333    23343082.0514   23343087.3424
        -0.000          -0.000
 -17719599.424 9 -13529229.67548  21493172.797    21493171.9574   21493177.9954
        -0.000          -0.000
  -6591502.816 9  -5120227.05446  24279083.445    24279082.8014   24279089.6174
        -0.000          -0.000
 -17073294.354 9 -13279009.44548  22202026.610    22202026.0674   22202032.9744
        -0.000          -0.000
 -17112170.760 9 -13310504.80449  20524631.442    20524631.1534   20524636.9094
        -0.000          -0.000
 98  6 25  5 28 30.0010000  0  7 15 29 25 22 18 16 14                0.000999950
  13918153.607 9  10991481.74346  23852514.340    23852513.9484   23852521.3964
        -0.000          -0.000
  12530015.062 9   9759774.93346  23777830.012    23777829.7814   23777834.5484
        -0.000          -0.000
  11987657.911 9   9345586.94047  23358980.081    23358979.8944   23358985.1014
        -0.000          -0.000
 -17745265.335 9 -13549229.06848  21488288.762    21488287.9084   21488293.9654
        -0.000          -0.000
  -6670958.890 9  -5182140.79046  24263963.067    24263962.6284   24263969.5034
        -0.000          -0.000
 -17149303.749 9 -13338237.52048  22187562.276    22187561.8814   22187568.8404
        -0.000          -0.000
 -17125109.083 9 -13320586.61649  20522169.381    20522169.0984   20522174.8254
        -0.000          -0.000
 98  6 25  5 29  0.0010000  0  7 15 29 25 22 18 16 14                0.000999968
  14017652.635 9  11069013.45846  23871448.672    23871448.0614   23871455.5444
        -0.000          -0.000
  12593561.372 9   9809291.53346  23789922.313    23789922.1004   23789927.0774
        -0.000          -0.000
  12071315.647 9   9410774.79047  23374899.808    23374899.5144   23374904.6384
        -0.000          -0.000
 -17770335.999 9 -13568764.63648  21483517.923    21483517.0714   21483523.1584
        -0.000          -0.000
  -6750407.807 9  -5244048.97346  24248844.199    24248844.0344   24248850.8114
        -0.000          -0.000
 -17225002.906 9 -13397223.84648  22173157.204    22173156.7934   22173163.7224
        -0.000          -0.000
 -17137529.375 9 -13330264.75549  20519805.852    20519805.5844   20519811.3284
        -0.000          -0.000
 98  6 25  5 29 30.0010000  0  7 15 29 25 22 18 16 14                0.000999988
  14117185.253 9  11146571.33446  23890389.005    23890388.4284   23890396.0434
        -0.000          -0.000
  12657207.849 9   9858886.17446  23802033.627    23802033.5754   23802038.6214
        -0.000          -0.000
  12155072.261 9   9476039.67747  23390838.283    23390838.0504   23390842.9894
        -0.000          -0.000
 -17794833.021 9 -13587853.20048  21478856.330    21478855.4584   21478861.5174
        -0.000          -0.000
  -6829866.098 9  -5305964.41446  24233723.979    24233723.4734   24233730.4484
        -0.000          -0.000
 -17300391.929 9 -13455968.50948  22158811.204    22158810.7444   22158817.6494
        -0.000          -0.000
 -17149454.637 9 -13339557.15149  20517536.531    20517536.2654   20517542.0364
        -0.000          -0.000
 98  6 25  5 30  0.0010000  0  7 15 29 25 22 18 16 14                0.001000000
  14216737.057 9  11224144.16246  23909333.102    23909332.5534   23909340.1274
        -0.000          -0.000
  12720938.607 9   9908546.49946  23814161.067    23814161.0104   23814166.2804
        -0.000          -0.000
  12238905.296 9   9541364.12747  23406791.335    23406791.0064   23406795.7734
        -0.000          -0.000
 -17818768.638 9 -13606504.32248  21474301.475    21474300.6614   21474306.7154
        -0.000          -0.000
  -6909341.718 9  -5367893.40646  24218600.262    24218599.5734   24218606.5394
        -0.000          -0.000
 -17375468.979 9 -13514470.07948  22144524.536    22144524.0154   22144530.8724
        -0.000          -0.000
 -17160899.295 9 -13348475.06349  20515358.690    20515358.4034   20515364.1734
        -0.000          -0.000
 98  6 25  5 30 30.0010000  0  7 15 29 25 22 18 16 14                0.001000008
  14316319.730 9  11301741.03746  23928283.106    23928282.4554   23928289.9524
        -0.000          -0.000
  12784756.971 9   9958275.09446  23826305.136    23826305.2424   23826310.5854
        -0.000          -0.000
  12322792.977 9   9606731.17047  23422754.732    23422754.3854   23422759.0144
        -0.000          -0.000
 -17842139.601 9 -13624715.44148  21469854.103    21469853.3204   21469859.3384
        -0.000          -0.000
  -6988816.029 9  -5429821.41046  24203476.514    24203476.1124   24203482.9504
        -0.000          -0.000
 -17450228.003 9 -13572723.84948  22130298.292    22130297.8434   22130304.5804
        -0.000          -0.000
 -17171853.283 9 -13357010.62749  20513274.194    20513273.9064   20513279.6664
        -0.000          -0.000
 98  6 25  5 31  0.0010000  0  7 15 29 25 22 18 16 14                0.001000010
  14415928.422 9  11379358.21746  23947238.125    23947237.4234   23947244.7484
        -0.000          -0.000
  12848665.426 9  10008073.87546  23838466.699    23838466.7424   23838471.9014
        -0.000          -0.000
  12406720.923 9   9672129.59647  23438725.663    23438725.3284   23438729.8574
        -0.000          -0.000
 -17864934.442 9 -13642477.63948  21465516.333    21465515.5634   21465521.5724
        -0.000          -0.000
  -7068284.247 9  -5491744.60045  24188354.233    24188353.7414   24188360.5204
        -0.000          -0.000
 -17524694.979 9 -13630750.03648  22116127.702    22116127.2544   22116133.9444
        -0.000          -0.000
 -17182309.181 9 -13365158.07549  20511284.501    20511284.2134   20511289.9594
        -0.000          -0.000
 98  6 25  5 31 30.0010000  0  7 15 29 25 22 18 16 14                0.001000011
  14515575.520 9  11457005.28646  23966200.821    23966199.8354   23966206.8084
        -0.000          -0.000
  12912683.360 9  10057957.96846  23850649.093    23850649.0094   23850654.0154
        -0.000          -0.000
  12490700.262 9   9737568.04547  23454706.414    23454705.9664   23454710.6844
        -0.000          -0.000
 -17887114.056 9 -13659760.43948  21461295.729    21461294.9454   21461300.9404
        -0.000          -0.000
  -7147732.031 9  -5553651.91345  24173235.864    24173235.2084   24173242.0454
        -0.000          -0.000
 -17598857.408 9 -13688538.91748  22102015.058    22102014.6134   22102021.2074
        -0.000          -0.000
 -17192235.456 9 -13372892.83249  20509395.625    20509395.3114   20509401.0444
        -0.000          -0.000
 98  6 25  5 32  0.0010000  0  7 15 29 25 22 18 16 14                0.001000009
  14615268.909 9  11534688.42946  23985171.737    23985170.8124   23985177.8214
        -0.000          -0.000
  12976830.036 9  10107942.37546  23862855.648    23862855.6594   23862860.5434
        -0.000          -0.000
  12574741.259 9   9803054.50947  23470698.901    23470698.2744   23470703.2634
        -0.000          -0.000
 -17908664.905 9 -13676553.29348  21457194.784    21457193.9544   21457199.8714
        -0.000          -0.000
  -7227159.931 9  -5615543.69445  24158120.881    24158120.5414   24158127.3374
        -0.000          -0.000
 -17672697.945 9 -13746076.97148  22087963.770    22087963.2414   22087969.7774
        -0.000          -0.000
 -17201606.198 9 -13380194.71149  20507612.426    20507612.1264   20507617.8404
        -0.000          -0.000
 98  6 25  5 32 30.0010000  0  7 15 29 25 22 18 16 14                0.001000003
  14715001.277 9  11612401.95546  24004150.385    24004149.3034   24004156.0224
        -0.000          -0.000
  13041108.068 9  10158029.14146  23875087.310    23875087.2414   23875092.1394
        -0.000          -0.000
  12658851.832 9   9868595.19847  23486704.491    23486703.8344   23486709.0844
        -0.000          -0.000
 -17929587.759 9 -13692856.80348  21453213.233    21453212.4204   21453218.2614
        -0.000          -0.000
  -7306578.303 9  -5677428.06545  24143008.251    24143007.6944   24143014.5624
        -0.000          -0.000
 -17746212.181 9 -13803360.76648  22073974.471    22073973.9264   22073980.4324
        -0.000          -0.000
 -17210414.415 9 -13387058.24449  20505936.307    20505936.0164   20505941.7024
        -0.000          -0.000
 98  6 25  5 33  0.0010000  0  7 15 29 25 22 18 16 14                0.000999995
  14814774.083 9  11690146.99246  24023136.790    24023135.3894   24023141.9974
        -0.000          -0.000
  13105525.623 9  10208224.61546  23887345.531    23887345.4754   23887350.2744
        -0.000          -0.000
  12743053.823 9   9934207.14347  23502727.321    23502726.8614   23502732.3344
        -0.000          -0.000
 -17949871.194 9 -13708662.05748  21449353.466    21449352.6624   21449358.4184
        -0.000          -0.000
  -7385984.600 9  -5739303.03746  24127897.635    24127897.0654   24127903.8644
        -0.000          -0.000
 -17819372.450 9 -13860368.74348  22060052.553    22060052.0144   22060058.4764
        -0.000          -0.000
 -17218639.424 9 -13393467.34049  20504371.144    20504370.8594   20504376.5354
        -0.000          -0.000
 98  6 25  5 33 30.0010000  0  7 15 29 25 22 18 16 14                0.000999981
  14914583.066 9  11767920.20446  24042129.217    24042128.3214   24042135.2094
        -0.000          -0.000
  13170071.128 9  10258519.80446  23899628.014    23899627.9224   23899632.8984
        -0.000          -0.000
  12827349.998 9   9999892.49047  23518768.203    23518767.8564   23518773.3924
        -0.000          -0.000
 -17969537.843 9 -13723986.70748  21445611.061    21445610.1934   21445615.9674
        -0.000          -0.000
  -7465385.923 9  -5801174.12046  24112788.049    24112787.4754   24112794.1974
        -0.000          -0.000
 -17892168.946 9 -13917093.26048  22046199.891    22046199.2644   22046205.7364
        -0.000          -0.000
 -17226287.602 9 -13399426.95049  20502915.701    20502915.4374   20502921.1094
        -0.000          -0.000
 98  6 25  5 34  0.0010000  0  7 15 29 25 22 18 16 14                0.000999970
  15014429.614 9  11845722.70946  24061129.151    24061128.4484   24061135.4484
        -0.000          -0.000
  13234734.019 9  10308906.48846  23911932.619    23911932.6344   23911937.9684
        -0.000          -0.000
  12911761.400 9  10065667.58247  23534830.977    23534830.8654   23534836.3924
        -0.000          -0.000
 -17988589.997 9 -13738832.52448  21441985.559    21441984.6934   21441990.4524
        -0.000          -0.000
  -7544775.533 9  -5863036.06946  24097680.575    24097680.0534   24097686.8034
        -0.000          -0.000
 -17964597.014 9 -13973530.69548  22032417.179    22032416.6054   22032423.1044
        -0.000          -0.000
 -17233360.139 9 -13404938.01149  20501569.821    20501569.5494   20501575.2864
        -0.000          -0.000
 98  6 25  5 34 30.0010000  0  7 15 29 25 22 18 16 14                0.000999971
  15114315.484 9  11923555.85046  24080136.680    24080136.0694   24080143.1264
        -0.000          -0.000
  13299506.712 9  10359378.70946  23924258.252    23924258.2314   23924263.9234
        -0.000          -0.000
  12996283.243 9  10131528.73846  23550915.000    23550914.8814   23550920.2584
        -0.000          -0.000
 -18007021.047 9 -13753194.37048  21438478.256    21438477.3614   21438483.1074
        -0.000          -0.000
  -7624117.900 9  -5924861.23846  24082582.072    24082581.5554   24082588.4004
        -0.000          -0.000
 -18036652.755 9 -14029678.00248  22018705.412    22018704.8484   22018711.3574
        -0.000          -0.000
 -17239864.133 9 -13410006.06949  20500332.175    20500331.8764   20500337.6224
        -0.000          -0.000
 98  6 25  5 35  0.0010000  0  7 15 29 25 22 18 16 14                0.000999974
  15214215.275 9  12001399.85146  24099146.841    24099146.3584   24099153.5744
        -0.000          -0.000
  13364363.783 9  10409916.69546  23936599.956    23936599.9774   23936606.0634
        -0.000          -0.000
  13080878.823 9  10197447.35247  23567013.211    23567012.9564   23567018.2834
        -0.000          -0.000
 -18024853.457 9 -13767089.73748  21435084.858    21435083.9504   21435089.6794
        -0.000          -0.000
  -7703423.445 9  -5986657.70546  24067490.646    24067490.1244   24067497.0414
        -0.000          -0.000
 -18108366.994 9 -14085559.20548  22005058.636    22005058.0754   22005064.5314
        -0.000          -0.000
 -17245833.288 9 -13414657.36549  20499196.257    20499195.9424   20499201.6954
        -0.000          -0.000
 98  6 25  5 35 30.0010000  0  8 19 15 29 25 22 18 16 14             0.000999994
  -4100610.743 9  -2684204.46245  25086694.111    25086694.0114   25086701.1234
        -0.000          -0.000
  15314084.527 9  12079220.00546  24118151.217    24118150.8624   24118158.2484
        -0.000          -0.000
  13429263.821 9  10460488.15346  23948950.102    23948950.0674   23948956.5014
        -0.000          -0.000
  13165508.111 9  10263392.25047  23583117.660    23583117.4084   23583122.6794
        -0.000          -0.000
 -18042125.966 9 -13780548.82348  21431797.994    21431797.0564   21431802.8204
        -0.000          -0.000
  -7782732.643 9  -6048457.00946  24052398.502    24052398.0824   24052405.0484
        -0.000          -0.000
 -18179785.448 9 -14141209.92848  21991468.284    21991467.6144   21991474.0664
        -0.000          -0.000
 -17251321.004 9 -13418933.51849  20498151.973    20498151.6854   20498157.4424
        -0.000          -0.000
 98  6 25  5 36  0.0010000  0  8 19 15 29 25 22 18 16 14             0.000999986
  -4189399.304 8  -2753390.25945  25069799.218    25069798.1424   25069805.2454
        -0.000          -0.000
  15413969.336 9  12157052.31046  24137158.944    24137158.3024   24137165.5924
        -0.000          -0.000
  13494269.859 9  10511142.21846  23961320.527    23961320.3334   23961326.9964
        -0.000          -0.000
  13250220.602 9  10329401.99047  23599237.798    23599237.6784   23599242.9994
        -0.000          -0.000
 -18058775.144 9 -13793522.19848  21428629.697    21428628.7794   21428634.5474
        -0.000          -0.000
  -7862006.885 9  -6110229.08846  24037312.745    24037312.5864   24037319.4764
        -0.000          -0.000
 -18250854.024 9 -14196588.01148  21977944.364    21977943.6864   21977950.1824
        -0.000          -0.000
 -17256272.635 9 -13422791.94249  20497209.770    20497209.4374   20497215.2154
        -0.000          -0.000
 98  6 25  5 36 30.0010000  0  8 19 15 29 25 22 18 16 14             0.000999976
  -4278050.245 8  -2822468.93045  25052928.265    25052927.6694   25052935.5114
        -0.000          -0.000
  15513862.635 9  12234891.22346  24156168.463    24156167.5344   24156174.6954
        -0.000          -0.000
  13559395.269 9  10561889.29146  23973713.417    23973713.2744   23973720.1804
        -0.000          -0.000
  13334989.435 9  10395455.61247  23615368.910    23615368.6714   23615374.0424
        -0.000          -0.000
 -18074805.878 9 -13806013.66648  21425579.054    21425578.2014   21425583.9424
        -0.000          -0.000
  -7941267.154 9  -6171990.28046  24022229.969    24022229.8564   24022236.7264
        -0.000          -0.000
 -18321581.226 9 -14251700.10248  21964485.452    21964484.7744   21964491.2344
        -0.000          -0.000
 -17260688.421 9 -13426232.82649  20496369.459    20496369.1494   20496374.9454
        -0.000          -0.000
 98  6 25  5 37  0.0010000  0  8 19 15 29 25 22 18 16 14             0.000999969
  -4366562.164 9  -2891439.10945  25036085.565    25036084.9394   25036091.9064
        -0.000          -0.000
  15613768.289 9  12312739.75746  24175179.659    24175179.0114   24175186.1734
        -0.000          -0.000
  13624651.948 9  10612738.66146  23986131.482    23986131.2664   23986138.4094
        -0.000          -0.000
  13419826.801 9  10461562.64846  23631512.947    23631512.7444   23631518.0384
        -0.000          -0.000
 -18090204.933 9 -13818012.92048  21422648.713    21422647.8494   21422653.6184
        -0.000          -0.000
  -8020522.486 9  -6233747.62746  24007148.041    24007148.0174   24007154.7604
        -0.000          -0.000
 -18391968.773 9 -14306547.51548  21951091.163    21951090.4764   21951096.9774
        -0.000          -0.000
 -17264555.323 9 -13429246.00949  20495633.664    20495633.3284   20495639.1374
        -0.000          -0.000
 98  6 25  5 37 30.0010000  0  8 19 15 29 25 22 18 16 14             0.000999960
  -4454927.520 8  -2960295.19645  25019269.762    25019269.3114   25019276.7834
        -0.000          -0.000
  15713689.429 9  12390600.31246  24194194.224    24194193.3584   24194200.5044
        -0.000          -0.000
  13690050.427 9  10663698.51346  23998576.430    23998576.3614   23998583.5914
        -0.000          -0.000
  13504735.826 9  10527725.50346  23647670.735    23647670.4184   23647675.6984
        -0.000          -0.000
 -18104965.982 9 -13829515.02548  21419839.768    21419838.9144   21419844.7654
        -0.000          -0.000
  -8099793.079 9  -6295516.84846  23992063.570    23992063.3204   23992069.8694
        -0.000          -0.000
 -18462008.566 9 -14361123.94748  21937762.985    21937762.3234   21937768.8814
        -0.000          -0.000
 -17267853.652 9 -13431816.14049  20495006.036    20495005.6934   20495011.5114
        -0.000          -0.000
 98  6 25  5 38  0.0010000  0  8 19 15 29 25 22 18 16 14             0.000999950
  -4543146.568 9  -3029037.21645  25002482.228    25002481.9014   25002489.0004
        -0.000          -0.000
  15813625.172 9  12468472.29346  24213211.670    24213210.5544   24213217.6664
        -0.000          -0.000
  13755593.765 9  10714771.24546  24011049.084    24011048.9674   24011056.1534
        -0.000          -0.000
  13589704.811 9  10593935.09447  23663839.882    23663839.5254   23663844.7754
        -0.000          -0.000
 -18119094.486 9 -13840524.23648  21417151.227    21417150.3354   21417156.1994
        -0.000          -0.000
  -8179074.105 9  -6357294.20346  23976976.744    23976976.5754   23976983.1544
        -0.000          -0.000
 -18531705.566 9 -14415433.27748  21924500.156    21924499.4254   21924506.0034
        -0.000          -0.000
 -17270578.197 9 -13433939.15649  20494487.558    20494487.2024   20494493.0364
        -0.000          -0.000
 98  6 25  5 38 30.0010000  0  8 19 15 29 25 22 18 16 14             0.000999945
  -4631203.329 9  -3097652.77745  24985725.469    24985725.0634   24985732.0824
        -0.000          -0.000
  15913574.837 9  12546355.12846  24232231.528    24232230.3564   24232237.3834
        -0.000          -0.000
  13821279.604 9  10765955.00446  24023548.474    24023548.5144   24023555.7494
        -0.000          -0.000
  13674725.919 9  10660185.31847  23680018.654    23680018.5144   23680023.8254
        -0.000          -0.000
 -18132592.795 9 -13851042.38648  21414582.598    21414581.7034   21414587.5524
        -0.000          -0.000
  -8258325.198 9  -6419048.22246  23961895.665    23961895.5754   23961902.1714
        -0.000          -0.000
 -18601049.847 9 -14469467.76248  21911304.342    21911303.6204   21911310.2124
        -0.000          -0.000
 -17272733.135 9 -13435618.32749  20494077.476    20494077.1654   20494082.9714
        -0.000          -0.000
 98  6 25  5 39  0.0010000  0  8 19 15 29 25 22 18 16 14             0.000999951
  -4719086.745 9  -3166133.37345  24969001.583    24969001.3894   24969008.6344
        -0.000          -0.000
  16013532.219 9  12624243.98146  24251252.645    24251251.6774   24251258.8344
        -0.000          -0.000
  13887095.209 9  10817239.88546  24036072.681    24036072.8534   24036079.9814
        -0.000          -0.000
  13759805.556 9  10726481.13847  23696208.827    23696208.7264   23696213.9944
        -0.000          -0.000
 -18145472.021 9 -13861078.13048  21412131.851    21412130.9404   21412136.7614
        -0.000          -0.000
  -8337556.950 9  -6480787.18946  23946818.479    23946818.2934   23946824.9114
        -0.000          -0.000
 -18670037.460 9 -14523224.31748  21898176.357    21898175.6984   21898182.2874
        -0.000          -0.000
 -17274332.935 9 -13436864.91349  20493773.078    20493772.7364   20493778.5204
        -0.000          -0.000
 98  6 25  5 39 30.0010000  0  8 19 15 29 25 22 18 16 14             0.000999962
  -4806813.474 9  -3234491.75845  24952308.063    24952307.6274   24952314.8404
        -0.000          -0.000
  16113478.702 9  12702124.34046  24270271.894    24270270.7414   24270278.0144
        -0.000          -0.000
  13953030.090 9  10868617.70646  24048619.788    24048619.8174   24048627.0514
        -0.000          -0.000
  13844933.008 9  10792814.21846  23712408.244    23712408.0214   23712413.2254
        -0.000          -0.000
 -18157755.580 9 -13870649.71848  21409794.390    21409793.4884   21409799.2704
        -0.000          -0.000
  -8416773.647 9  -6542514.43546  23931744.151    23931743.8884   23931750.5164
        -0.000          -0.000
 -18738671.876 9 -14576705.65248  21885115.613    21885114.9714   21885121.5754
        -0.000          -0.000
 -17275394.704 9 -13437692.25449  20493570.947    20493570.6364   20493576.4384
        -0.000          -0.000
 98  6 25  5 40  0.0010000  0  8 19 15 29 25 22 18 16 14             0.000999975
  -4894379.599 8  -3302725.09145  24935644.286    24935644.0134   24935651.3774
        -0.000          -0.000
  16213400.221 9  12779985.26246  24289286.603    24289285.3374   24289292.5084
        -0.000          -0.000
  14019056.625 9  10920066.93246  24061184.069    24061184.1794   24061191.3024
        -0.000          -0.000
  13930108.411 9  10859184.66346  23728616.714    23728616.4014   23728621.4594
        -0.000          -0.000
 -18169456.347 9 -13879767.18548  21407567.896    21407566.9804   21407572.7074
        -0.000          -0.000
  -8495975.589 9  -6604230.17246  23916672.619    23916672.2824   23916678.8014
        -0.000          -0.000
 -18806954.007 9 -14629912.48548  21872121.902    21872121.2754   21872127.8834
        -0.000          -0.000
 -17275933.946 9 -13438112.44849  20493468.338    20493468.0274   20493473.8264
        -0.000          -0.000
 98  6 25  5 40 30.0010000  0  8 19 15 29 25 22 18 16 14             0.000999991
  -4981777.465 8  -3370827.24645  24919013.361    24919012.9264   24919020.2294
        -0.000          -0.000
  16313297.680 9  12857827.41745  24308296.244    24308295.0874   24308302.1664
        -0.000          -0.000
  14085167.712 9  10971582.06646  24073764.565    24073764.6104   24073771.6584
        -0.000          -0.000
  14015339.768 9  10925598.72046  23744835.762    23744835.3034   23744840.2884
        -0.000          -0.000
 -18180558.819 9 -13888418.45048  21405455.189    21405454.2624   21405459.9974
        -0.000          -0.000
  -8575158.114 9  -6665930.80046  23901604.742    23901604.3144   23901610.7654
        -0.000          -0.000
 -18874876.008 9 -14682838.70548  21859196.650    21859196.1134   21859202.7114
        -0.000          -0.000
 -17275937.628 9 -13438115.32449  20493467.593    20493467.3284   20493473.1144
        -0.000          -0.000
 98  6 25  5 41  0.0010000  0  8 19 15 29 25 22 18 16 14             0.001000001
  -5069016.820 8  -3438805.91945  24902411.846    24902411.4304   24902418.9184
        -0.000          -0.000
  16413175.552 9  12935654.30945  24327302.147    24327301.1404   24327308.4164
        -0.000          -0.000
  14151372.621 9  11023170.29346  24086363.043    24086363.0274   24086369.8134
        -0.000          -0.000
  14100635.037 9  10992062.57846  23761066.607    23761066.2864   23761071.2704
        -0.000          -0.000
 -18191050.814 9 -13896594.01648  21403458.603    21403457.6854   21403463.4724
        -0.000          -0.000
  -8654334.291 9  -6727626.47446  23886537.813    23886537.4544   23886544.0404
        -0.000          -0.000
 -18942434.954 9 -14735482.00948  21846340.586    21846340.0444   21846346.6214
        -0.000          -0.000
 -17275389.014 9 -13437687.82549  20493571.926    20493571.6764   20493577.5134
        -0.000          -0.000
 98  6 25  5 41 30.0010000  0  8 19 15 29 25 22 18 16 14             0.001000006
  -5156106.515 8  -3506667.96745  24885839.011    24885838.7234   24885846.3254
        -0.000          -0.000
  16513027.023 9  13013460.65145  24346303.306    24346302.1964   24346309.6134
        -0.000          -0.000
  14217677.005 9  11074836.04346  24098980.477    24098980.3634   24098987.0014
        -0.000          -0.000
  14185986.319 9  11058570.07546  23777308.168    23777307.9134   23777313.0064
        -0.000          -0.000
 -18200918.584 9 -13904283.17148  21401580.874    21401579.9254   21401585.7814
        -0.000          -0.000
  -8733478.223 9  -6789297.03146  23871477.060    23871476.7614   23871483.3364
        -0.000          -0.000
 -19009619.376 9 -14787833.48648  21833555.780    21833555.2544   21833561.7854
        -0.000          -0.000
 -17274267.799 9 -13436814.14049  20493785.253    20493784.9984   20493790.8544
        -0.000          -0.000
 98  6 25  5 42  0.0010000  0  8 19 15 29 25 22 18 16 14             0.000999998
  -5243047.710 8  -3574414.31445  24869294.547    24869294.3464   24869302.1304
        -0.000          -0.000
  16612849.025 9  13091244.01145  24365298.486    24365297.6154   24365304.9654
        -0.000          -0.000
  14284076.312 9  11126575.77346  24111615.936    24111615.7864   24111622.2724
        -0.000          -0.000
  14271385.750 9  11125115.07146  23793558.902    23793558.6724   23793563.8754
        -0.000          -0.000
 -18210155.235 9 -13911480.55448  21399823.108    21399822.2614   21399828.1754
        -0.000          -0.000
  -8812606.229 9  -6850955.15546  23856419.550    23856419.1944   23856425.6104
        -0.000          -0.000
 -19076425.350 9 -14839890.06848  21820842.939    21820842.4354   21820848.9614
        -0.000          -0.000
 -17272568.025 9 -13435489.63949  20494108.690    20494108.4244   20494114.3044
        -0.000          -0.000
 98  6 25  5 42 30.0010000  0  8 19 15 29 25 22 18 16 14             0.000999993
  -5329840.190 8  -3642044.76845  24852778.188    24852778.2394   24852785.9604
        -0.000          -0.000
  16712656.768 9  13169016.27346  24384290.947    24384290.2674   24384297.9134
        -0.000          -0.000
  14350609.917 9  11178420.13946  24124276.950    24124276.6614   24124283.1384
        -0.000          -0.000
  14356842.705 9  11191704.94246  23809820.916    23809820.6444   23809825.6834
        -0.000          -0.000
 -18218731.708 9 -13918163.50348  21398191.155    21398190.2814   21398196.1574
        -0.000          -0.000
  -8891685.008 9  -6912574.93746  23841371.448    23841371.0124   23841377.4514
        -0.000          -0.000
 -19142834.508 9 -14891637.45248  21808205.627    21808205.2044   21808211.6834
        -0.000          -0.000
 -17270280.076 9 -13433706.82049  20494544.033    20494543.7924   20494549.6774
        -0.000          -0.000
 98  6 25  5 43  0.0010000  0  8 19 15 29 25 22 18 16 14             0.000999994
  -5416490.962 8  -3709564.80645  24836289.130    24836289.1154   24836296.9774
        -0.000          -0.000
  16812443.997 9  13246772.52446  24403279.952    24403279.1314   24403286.8634
        -0.000          -0.000
  14417293.840 9  11230381.62646  24136966.383    24136966.2564   24136972.6694
        -0.000          -0.000
  14442356.314 9  11258338.90246  23826093.880    23826093.3894   23826098.2844
        -0.000          -0.000
 -18226651.620 9 -13924334.85048  21396684.032    21396683.1644   21396689.0484
        -0.000          -0.000
  -8970715.274 9  -6974156.91046  23826332.210    23826331.9144   23826338.4954
        -0.000          -0.000
 -19208834.354 9 -14943065.88948  21795646.310    21795645.8184   21795652.2244
        -0.000          -0.000
 -17267412.975 9 -13431472.72349  20495089.680    20495089.3954   20495095.2614
        -0.000          -0.000
 98  6 25  5 43 30.0010000  0  8 19 15 29 25 22 18 16 14             0.000999987
  -5503022.307 8  -3776991.77545  24819822.994    24819822.6854   24819830.6314
        -0.000          -0.000
  16912183.628 9  13324491.67846  24422260.156    24422259.1224   24422266.7784
        -0.000          -0.000
  14484099.929 9  11282438.31846  24149679.256    24149678.9664   24149685.4924
        -0.000          -0.000
  14527908.160 9  11325002.67046  23842374.060    23842373.5194   23842378.1044
        -0.000          -0.000
 -18233941.842 9 -13930015.53048  21395296.833    21395295.8954   21395301.7524
        -0.000          -0.000
  -9049731.058 9  -7035727.60946  23811296.098    23811295.7334   23811302.2464
        -0.000          -0.000
 -19274444.494 9 -14994190.65848  21783161.186    21783160.6424   21783167.0204
        -0.000          -0.000
 -17263994.376 9 -13428808.90949  20495740.225    20495739.9444   20495745.7844
        -0.000          -0.000
 98  6 25  5 44  0.0010000  0  8 19 15 29 25 22 18 16 14             0.000999980
  -5589426.967 8  -3844320.06045  24803380.784    24803380.4174   24803388.0224
        -0.000          -0.000
  17011881.551 9  13402178.33946  24441232.174    24441231.0684   24441238.7384
        -0.000          -0.000
  14551030.921 9  11334592.34446  24162415.703    24162415.4884   24162422.1374
        -0.000          -0.000
  14613511.250 9  11391706.37346  23858663.747    23858663.3614   23858667.7814
        -0.000          -0.000
 -18240603.904 9 -13935206.73648  21394029.040    21394028.0934   21394034.0164
        -0.000          -0.000
  -9128732.674 9  -7097287.24646  23796262.594    23796262.2504   23796268.6794
        -0.000          -0.000
 -19339670.997 9 -15045016.48648  21770749.055    21770748.4654   21770754.8104
        -0.000          -0.000
 -17260039.559 9 -13425727.24249  20496492.783    20496492.5134   20496498.3474
        -0.000          -0.000
 98  6 25  5 44 30.0010000  0  8 19 15 29 25 22 18 16 14             0.000999979
  -5675704.946 8  -3911549.59245  24786962.772    24786962.2444   24786969.8164
        -0.000          -0.000
  17111537.894 9  13479832.59346  24460195.871    24460194.9794   24460202.7404
        -0.000          -0.000
  14618090.307 9  11386846.39846  24175176.581    24175176.4644   24175183.0634
        -0.000          -0.000
  14699171.360 9  11458454.51046  23874964.177    23874964.0764   23874968.4104
        -0.000          -0.000
 -18246641.812 9 -13939911.59348  21392879.968    21392879.1084   21392885.0854
        -0.000          -0.000
  -9207713.012 9  -7158830.32446  23781232.985    23781232.7954   23781239.1694
        -0.000          -0.000
 -19404505.663 9 -15095536.99648  21758411.388    21758410.8264   21758417.2214
        -0.000          -0.000
 -17255560.259 9 -13422236.88649  20497345.233    20497344.9634   20497350.7584
        -0.000          -0.000
 98  6 25  5 45  0.0010000  0  8 19 15 29 25 22 18 16 14             0.000999974
  -5761857.657 8  -3978681.51345  24770567.994    24770567.6234   24770575.7314
        -0.000          -0.000
  17211137.155 9  13557442.39346  24479149.361    24479148.2484   24479155.9524
        -0.000          -0.000
  14685261.660 9  11439187.71146  24187958.738    24187958.7344   24187965.4004
        -0.000          -0.000
  14784872.641 9  11525234.73046  23891272.629    23891272.5464   23891276.9754
        -0.000          -0.000
 -18252091.043 9 -13944157.73548  21391843.101    21391842.1664   21391848.1824
        -0.000          -0.000
  -9286702.916 9  -7220380.86146  23766201.674    23766201.4314   23766207.7464
        -0.000          -0.000
 -19468964.815 9 -15145764.89548  21746145.235    21746144.6574   21746151.0124
        -0.000          -0.000
 -17250557.343 9 -13418338.50249  20498297.293    20498297.0044   20498302.7914
        -0.000          -0.000
 98  6 25  5 45 30.0010000  0  8 19 15 29 25 22 18 16 14             0.000999976
  -5847851.063 8  -4045689.32845  24754204.344    24754203.9204   24754211.3804
        -0.000          -0.000
  17310695.271 9  13635020.09546  24498095.018    24498093.5534   24498101.2014
        -0.000          -0.000
  14752550.942 9  11491620.89346  24200763.428    24200763.5314   24200770.1824
        -0.000          -0.000
  14870630.496 9  11592059.02046  23907591.796    23907591.7384   23907596.3164
        -0.000          -0.000
 -18256935.403 9 -13947932.54748  21390921.133    21390920.2444   21390926.2944
        -0.000          -0.000
  -9365684.285 9  -7281924.75746  23751172.086    23751171.7064   23751177.9804
        -0.000          -0.000
 -19533037.188 9 -15195691.40748  21733952.815    21733952.1284   21733958.5224
        -0.000          -0.000
 -17245008.122 9 -13414014.43249  20499353.273    20499353.0034   20499358.7614
        -0.000          -0.000
 98  6 25  5 46  0.0010000  0  8 19 15 29 25 22 18 16 14             0.000999979
  -5933678.378 8  -4112567.66445  24737872.138    24737871.4794   24737878.8454
        -0.000          -0.000
  17410199.274 9  13712555.66146  24517029.555    24517028.5554   24517036.3234
        -0.000          -0.000
  14819948.568 9  11544138.51046  24213588.642    24213588.8224   24213595.5804
        -0.000          -0.000
  14956431.691 9  11658917.08046  23923919.468    23923919.1164   23923923.9384
        -0.000          -0.000
 -18261177.203 9 -13951237.83648  21390113.897    21390112.9934   21390119.0154
        -0.000          -0.000
  -9444671.093 9  -7343472.87946  23736141.371    23736141.0514   23736147.1554
        -0.000          -0.000
 -19596729.611 9 -15245321.85748  21721832.603    21721831.8694   21721838.2884
        -0.000          -0.000
 -17238924.005 9 -13409273.56249  20500511.061    20500510.7424   20500516.4964
        -0.000          -0.000
 98  6 25  5 46 30.0010000  0  8 19 15 29 25 22 18 16 14             0.000999987
  -6019320.154 8  -4179301.51045  24721574.401    24721574.1304   24721581.9074
        -0.000          -0.000
  17509654.067 9  13790052.94346  24535954.635    24535954.1524   24535961.8544
        -0.000          -0.000
  14887462.003 9  11596746.36846  24226436.221    24226436.1474   24226442.9524
        -0.000          -0.000
  15042270.560 9  11725804.49946  23940254.129    23940253.6184   23940258.6654
        -0.000          -0.000
 -18264813.749 9 -13954071.50248  21389421.738    21389420.8824   21389426.8614
        -0.000          -0.000
  -9523628.743 9  -7404998.27546  23721116.117    23721115.8334   23721122.0474
        -0.000          -0.000
 -19660031.004 9 -15294647.60348  21709786.787    21709786.0284   21709792.4304
        -0.000          -0.000
 -17232276.008 9 -13404093.31249  20501776.149    20501775.8464   20501781.5834
        -0.000          -0.000
 98  6 25  5 47  0.0010000  0  8 19 15 29 25 22 18 16 14             0.000999992
  -6104781.656 8  -4245894.78345  24705312.240    24705311.5794   24705318.9364
        -0.000          -0.000
  17609044.720 9  13867500.16446  24554868.173    24554867.6594   24554875.3254
        -0.000          -0.000
  14955078.318 9  11649434.37546  24239303.381    24239303.2494   24239309.9114
        -0.000          -0.000
  15128126.567 9  11792705.30346  23956591.747    23956591.3174   23956596.6704
        -0.000          -0.000
 -18267843.260 9 -13956432.14948  21388845.153    21388844.3414   21388850.2544
        -0.000          -0.000
  -9602569.518 9  -7466510.51946  23706094.189    23706093.9034   23706100.0854
        -0.000          -0.000
 -19722961.123 9 -15343684.04348  21697811.471    21697810.7884   21697817.2894
        -0.000          -0.000
 -17225058.627 9 -13398469.41149  20503149.586    20503149.2954   20503155.0074
        -0.000          -0.000
 98  6 25  5 47 30.0010000  0  8 19 15 29 25 22 18 16 14             0.000999996
  -6190067.493 8  -4312351.22945  24689082.805    24689082.0854   24689089.4844
        -0.000          -0.000
  17708374.177 8  13944899.68946  24573770.344    24573769.5934   24573777.0524
        -0.000          -0.000
  15022797.087 9  11702202.24646  24252190.001    24252189.8784   24252196.3494
        -0.000          -0.000
  15214015.035 9  11859631.35446  23972935.540    23972935.2324   23972940.8254
        -0.000          -0.000
 -18270236.256 9 -13958296.81548  21388389.726    21388388.9074   21388394.7814
        -0.000          -0.000
  -9681461.521 9  -7527984.76946  23691081.263    23691081.2354   23691087.2434
        -0.000          -0.000
 -19785512.322 9 -15392425.22348  21685908.381    21685907.7094   21685914.2104
        -0.000          -0.000
 -17217274.907 9 -13392404.19249  20504630.803    20504630.5104   20504636.2254
        -0.000          -0.000
 98  6 25  5 48  0.0010000  0  8 19 15 29 25 22 18 16 14             0.001000001
  -6275193.394 9  -4378683.08345  24672883.691    24672883.2374   24672890.6594
        -0.000          -0.000
  17807636.589 8  14022246.99246  24592658.863    24592658.5874   24592666.1504
        -0.000          -0.000
  15090622.398 9  11755053.12446  24265096.831    24265096.6634   24265103.1784
        -0.000          -0.000
  15299930.062 9  11926578.12546  23989284.257    23989284.2544   23989289.9214
        -0.000          -0.000
 -18272005.142 9 -13959675.16048  21388053.155    21388052.3004   21388058.0594
        -0.000          -0.000
  -9760308.165 9  -7589423.66546  23676077.466    23676077.2734   23676083.2574
        -0.000          -0.000
 -19847680.616 9 -15440868.03748  21674078.266    21674077.4884   21674083.9314
        -0.000          -0.000
 -17208933.809 9 -13385904.65549  20506218.029    20506217.7514   20506223.4774
        -0.000          -0.000
 98  6 25  5 48 30.0010000  0  8 19 15 29 25 22 18 16 14             0.001000006
  -6360171.821 8  -4444899.95745  24656712.867    24656712.2754   24656719.5744
        -0.000          -0.000
  17906838.516 9  14099547.17245  24611536.145    24611536.0184   24611543.6134
        -0.000          -0.000
  15158567.459 9  11807997.31446  24278026.488    24278026.3124   24278032.7184
        -0.000          -0.000
  15385880.092 9  11993552.18146  24005640.053    24005640.0014   24005645.6224
        -0.000          -0.000
 -18273141.534 9 -13960560.65248  21387836.799    21387835.9794   21387841.7024
        -0.000          -0.000
  -9839114.794 9  -7650831.36646  23661081.133    23661080.7754   23661086.9314
        -0.000          -0.000
 -19909450.865 9 -15489000.68648  21662323.759    21662323.0464   21662329.4134
        -0.000          -0.000
 -17200021.387 9 -13378959.91249  20507914.012    20507913.7174   20507919.4504
        -0.000          -0.000
 98  6 25  5 49  0.0010000  0  8 19 15 29 25 22 18 16 14             0.001000010
  -6445007.531 8  -4511005.64045  24640568.653    24640568.3194   24640575.7434
        -0.000          -0.000
  18005977.051 9  14176797.92145  24630402.434    24630401.5884   24630409.0664
        -0.000          -0.000
  15226642.799 9  11861043.02346  24290981.128    24290980.7534   24290986.9794
        -0.000          -0.000
  15471877.089 9  12060562.81746  24022004.716    24022004.7124   24022010.3354
        -0.000          -0.000
 -18273631.914 9 -13960942.76248  21387743.393    21387742.6244   21387748.3084
        -0.000          -0.000
  -9917901.442 9  -7712223.51846  23646088.095    23646088.0144   23646094.3284
        -0.000          -0.000
 -19970810.821 9 -15536813.63048  21650647.352    21650646.6294   21650652.9524
        -0.000          -0.000
 -17190540.608 9 -13371572.30049  20509718.125    20509717.8384   20509723.5914
        -0.000          -0.000
 98  6 25  5 49 30.0010000  0  8 19 15 29 25 22 18 16 14             0.001000007
  -6529701.931 9  -4577001.19246  24624452.201    24624451.8564   24624458.8634
        -0.000          -0.000
  18105036.502 8  14253987.02045  24649253.445    24649252.0274   24649259.5464
        -0.000          -0.000
  15294842.672 9  11914185.77145  24303959.266    24303958.9494   24303964.8984
        -0.000          -0.000
  15557912.254 9  12127603.19346  24038376.876    24038376.7784   24038382.2454
        -0.000          -0.000
 -18273501.457 9 -13960841.09148  21387768.225    21387767.4274   21387772.9834
        -0.000          -0.000
  -9996698.316 9  -7773623.64046  23631093.796    23631093.5654   23631099.7284
        -0.000          -0.000
 -20031763.910 9 -15584309.53248  21639048.331    21639047.6194   21639053.9564
        -0.000          -0.000
 -17180500.309 9 -13363748.69249  20511628.730    20511628.4454   20511634.2564
        -0.000          -0.000
 98  6 25  5 50  0.0010000  0  8 19 15 29 25 22 18 16 14             0.001000009
  -6614221.458 8  -4642860.50746  24608368.338    24608367.9124   24608375.3584
        -0.000          -0.000
  18204040.426 8  14331132.92045  24668093.071    24668091.8864   24668099.4004
        -0.000          -0.000
  15363191.426 9  11967444.51445  24316965.791    24316965.1954   24316971.1864
        -0.000          -0.000
  15643996.022 9  12194681.45346  24054758.525    24054758.0274   24054763.3244
        -0.000          -0.000
 -18272728.639 9 -13960238.88248  21387915.228    21387914.4354   21387919.9324
        -0.000          -0.000
 -10075480.333 9  -7835012.16546  23616102.190    23616101.7634   23616107.9264
        -0.000          -0.000
 -20092278.944 9 -15631464.08948  21627532.662    21627531.9814   21627538.2744
        -0.000          -0.000
 -17169866.157 9 -13355462.35549  20513652.358    20513652.0644   20513657.8764
        -0.000          -0.000
 98  6 25  5 50 30.0010000  0  8 19 15 29 25 22 18 16 14             0.001000008
  -6698563.762 9  -4708581.68946  24592318.748    24592318.2824   24592325.6184
        -0.000          -0.000
  18302980.991 9  14408229.41745  24686920.248    24686919.4714   24686927.1724
        -0.000          -0.000
  15431677.907 9  12020810.60345  24329998.294    24329997.8534   24330003.6384
        -0.000          -0.000
  15730110.515 9  12261783.65546  24071145.702    24071145.2334   24071150.1304
        -0.000          -0.000
 -18271308.422 9 -13959132.21448  21388185.514    21388184.7084   21388190.1574
        -0.000          -0.000
 -10154242.293 9  -7896385.11546  23601114.059    23601113.8194   23601119.9704
        -0.000          -0.000
 -20152367.181 9 -15678286.07048  21616098.277    21616097.4884   21616103.8074
        -0.000          -0.000
 -17158633.631 9 -13346709.74849  20515789.862    20515789.5744   20515795.3784
        -0.000          -0.000
 98  6 25  5 51  0.0010000  0  8 19 15 29 25 22 18 16 14             0.001000007
  -6782715.640 9  -4774154.51945  24576305.280    24576304.5594   24576312.1604
        -0.000          -0.000
  18401851.620 9  14485271.44845  24705734.856    24705733.9974   24705741.4694
        -0.000          -0.000
  15500295.242 9  12074278.63945  24343055.993    24343055.4034   24343061.1214
        -0.000          -0.000
  15816235.920 9  12328894.35346  24087534.985    24087534.5674   24087539.1744
        -0.000          -0.000
 -18269255.389 9 -13957532.44648  21388576.203    21388575.3374   21388580.7964
        -0.000          -0.000
 -10232976.332 9  -7957736.24546  23586131.750    23586131.3314   23586137.4534
        -0.000          -0.000
 -20212037.693 9 -15724782.55648  21604743.166    21604742.4584   21604748.8374
        -0.000          -0.000
 -17146806.159 9 -13337493.53849  20518040.610    20518040.3164   20518046.1244
        -0.000          -0.000
 98  6 25  5 51 30.0010000  0  8 19 15 29 25 22 18 16 14             0.001000010
  -6866671.348 9  -4839574.51046  24560328.786    24560328.1784   24560335.8444
        -0.000          -0.000
  18500661.880 9  14562266.43545  24724538.308    24724537.0194   24724544.5944
        -0.000          -0.000
  15569034.267 9  12127841.50045  24356136.514    24356136.0384   24356141.6784
        -0.000          -0.000
  15902364.007 9  12396007.14546  24103924.621    24103924.2514   24103928.7824
        -0.000          -0.000
 -18266569.325 9 -13955439.40148  21389087.370    21389086.5434   21389092.0034
        -0.000          -0.000
 -10311643.953 9  -8019035.64746  23571161.964    23571161.2964   23571167.3424
        -0.000          -0.000
 -20271281.198 9 -15770946.30448  21593469.419    21593468.7334   21593475.1274
        -0.000          -0.000
 -17134393.341 9 -13327821.22749  20520402.645    20520402.3914   20520408.2074
        -0.000          -0.000
 98  6 25  5 52  0.0010000  0  8 19 15 29 25 22 18 16 14             0.001000012
  -6950459.314 9  -4904863.75546  24544384.527    24544383.9774   24544391.4474
        -0.000          -0.000
  18599400.378 8  14639205.46645  24743327.351    24743326.1824   24743333.8894
        -0.000          -0.000
  15637880.733 9  12181488.07745  24369237.302    24369236.9684   24369242.7794
        -0.000          -0.000
  15988484.309 9  12463113.90946  24120312.553    24120312.3564   24120316.8484
        -0.000          -0.000
 -18263254.276 9 -13952856.24148  21389718.297    21389717.4274   21389722.8844
        -0.000          -0.000
 -10390246.591 9  -8080284.41746  23556203.853    23556203.4804   23556209.7254
        -0.000          -0.000
 -20330098.786 9 -15816778.17148  21582276.775    21582276.1014   21582282.5124
        -0.000          -0.000
 -17121420.587 9 -13317712.59149  20522871.329    20522871.0624   20522876.8704
        -0.000          -0.000
 98  6 25  5 52 30.0010000  0  8 19 15 29 25 22 18 16 14             0.001000015
  -7034076.550 9  -4970020.00446  24528472.580    24528472.0124   24528479.4614
        -0.000          -0.000
  18698058.376 9  14716081.80445  24762101.179    24762100.3354   24762107.5614
        -0.000          -0.000
  15706838.925 9  12235221.70846  24382359.298    24382359.3844   24382365.2494
        -0.000          -0.000
  16074607.978 9  12530223.25446  24136701.410    24136701.2194   24136705.7114
        -0.000          -0.000
 -18259318.323 9 -13949789.25848  21390467.192    21390466.3884   21390471.9014
        -0.000          -0.000
 -10468810.238 9  -8141502.78346  23541253.822    23541253.3894   23541259.4984
        -0.000          -0.000
 -20388483.714 9 -15862272.90748  21571166.394    21571165.7934   21571172.2374
        -0.000          -0.000
 -17107894.512 9 -13307172.80149  20525445.266    20525445.0004   20525450.8094
        -0.000          -0.000
 98  6 25  5 53  0.0010000  0  8 19 15 29 25 22 18 16 14             0.001000023
  -7117523.765 9  -5035043.73746  24512593.265    24512592.5664   24512599.9084
        -0.000          -0.000
  18796633.229 9  14792893.33045  24780859.926    24780858.5484   24780865.8414
        -0.000          -0.000
  15775911.674 9  12289044.59546  24395503.693    24395503.4944   24395509.5194
        -0.000          -0.000
  16160754.220 9  12597350.18246  24153094.208    24153094.1414   24153098.8954
        -0.000          -0.000
 -18254753.470 9 -13946232.22248  21391335.822    21391335.0674   21391340.6114
        -0.000          -0.000
 -10547343.405 9  -8202697.41046  23526309.755    23526309.0664   23526315.0584
        -0.000          -0.000
 -20446421.830 9 -15907419.47048  21560141.170    21560140.5654   21560146.9614
        -0.000          -0.000
 -17093822.016 9 -13296207.22449  20528123.151    20528122.8864   20528128.7094
        -0.000          -0.000
 98  6 25  5 53 30.0010000  0  8 19 15 29 25 22 18 16 14             0.001000026
  -7200809.090 9  -5099941.36246  24496744.524    24496743.8274   24496751.1794
        -0.000          -0.000
  18895112.841 9  14869630.63245  24799600.284    24799598.7254   24799606.2414
        -0.000          -0.000
  15845088.543 9  12342948.63745  24408667.586    24408667.2624   24408673.3434
        -0.000          -0.000
  16246932.967 9  12664502.47446  24169493.225    24169493.2584   24169498.2794
        -0.000          -0.000
 -18249540.682 9 -13942170.30548  21392327.759    21392326.9904   21392332.6864
        -0.000          -0.000
 -10625875.044 9  -8263890.87346  23511365.186    23511364.8314   23511370.8814
        -0.000          -0.000
 -20503919.067 9 -15952222.50148  21549199.902    21549199.2504   21549205.5664
        -0.000          -0.000
 -17079214.524 9 -13284824.77049  20530902.886    20530902.6024   20530908.3764
        -0.000          -0.000
 98  6 25  5 54  0.0010000  0  8 19 15 29 25 22 18 16 14             0.001000022
  -7283922.866 9  -5164705.33646  24480928.537    24480927.9564   24480935.0274
        -0.000          -0.000
  18993486.797 9  14946285.62745  24818319.893    24818318.7654   24818326.1524
        -0.000          -0.000
  15914388.116 9  12396948.28145  24421854.920    24421854.4324   24421860.6044
        -0.000          -0.000
  16333149.174 9  12731683.92046  24185899.841    24185899.6214   24185904.7544
        -0.000          -0.000
 -18243665.822 9 -13937592.48448  21393445.706    21393444.9564   21393450.7264
        -0.000          -0.000
 -10704433.036 9  -8325104.85446  23496416.176    23496415.8204   23496421.8064
        -0.000          -0.000
 -20560981.466 9 -15996686.69148  21538341.289    21538340.6374   21538346.9114
        -0.000          -0.000
 -17064050.269 9 -13273008.45549  20533788.590    20533788.2844   20533794.0474
        -0.000          -0.000
 98  6 25  5 54 30.0010000  0  8 19 15 29 25 22 18 16 14             0.001000011
  -7366851.457 9  -5229324.97745  24465147.733    24465147.1624   24465154.0614
        -0.000          -0.000
  19091754.755 9  15022858.04445  24837019.035    24837018.5004   24837026.1354
        -0.000          -0.000
  15983812.065 9  12451044.87045  24435065.815    24435065.2764   24435071.3164
        -0.000          -0.000
  16419401.134 9  12798893.21446  24202313.052    24202312.6874   24202318.1154
        -0.000          -0.000
 -18237118.771 9 -13932490.88048  21394691.641    21394690.8444   21394696.6294
        -0.000          -0.000
 -10783008.461 9  -8386332.39046  23481463.945    23481463.3114   23481469.5074
        -0.000          -0.000
 -20617612.837 9 -16040815.02948  21527564.759    21527564.1174   21527570.2844
        -0.000          -0.000
 -17048319.611 9 -13260750.78349  20536781.950    20536781.6824   20536787.4944
        -0.000          -0.000
 98  6 25  5 55  0.0010000  0  8 19 15 29 25 22 18 16 14             0.000999995
  -7449597.323 9  -5293802.26345  24449401.526    24449400.9124   24449407.9564
        -0.000          -0.000
  19189918.702 8  15099349.36045  24855698.722    24855698.4484   24855706.1074
        -0.000          -0.000
  16053353.831 9  12505233.23645  24448299.053    24448298.5964   24448304.7834
        -0.000          -0.000
  16505672.145 9  12866117.40946  24218729.558    24218729.4334   24218735.0734
        -0.000          -0.000
 -18229899.828 9 -13926865.72848  21396065.299    21396064.4934   21396070.3644
        -0.000          -0.000
 -10861571.693 9  -8447550.46746  23466513.358    23466513.0814   23466519.3544
        -0.000          -0.000
 -20673828.771 9 -16084619.63848  21516867.176    21516866.5634   21516872.7304
        -0.000          -0.000
 -17032024.781 9 -13248053.51249  20539882.741    20539882.4754   20539888.3194
        -0.000          -0.000
 98  6 25  5 55 30.0010000  0  8 19 15 29 25 22 18 16 14             0.000999980
  -7532178.413 9  -5358151.12245  24433686.979    24433686.4004   24433693.2674
        -0.000          -0.000
  19287972.595 8  15175754.94245  24874357.772    24874357.4214   24874365.1314
        -0.000          -0.000
  16123018.908 9  12559517.70345  24461555.336    24461555.2974   24461561.6314
        -0.000          -0.000
  16591958.470 9  12933353.52946  24235149.076    24235149.0664   24235154.9204
        -0.000          -0.000
 -18222035.370 9 -13920737.57548  21397561.808    21397561.0564   21397566.9534
        -0.000          -0.000
 -10940103.796 9  -8508744.26346  23451569.253    23451568.8874   23451575.1194
        -0.000          -0.000
 -20729632.736 9 -16128103.24048  21506248.044    21506247.4454   21506253.5994
        -0.000          -0.000
 -17015174.198 9 -13234923.18049  20543089.286    20543089.0354   20543094.9144
        -0.000          -0.000
 98  6 25  5 56  0.0010000  0  8 19 15 29 25 22 18 16 14             0.000999967
  -7614607.358 9  -5422381.43745  24418000.883    24418000.5114   24418007.4174
        -0.000          -0.000
  19385910.128 8  15252069.83945  24892995.067    24892994.3594   24893002.2374
        -0.000          -0.000
  16192804.698 9  12613896.23745  24474834.888    24474834.8954   24474841.3414
        -0.000          -0.000
  16678257.269 9  13000599.34446  24251571.087    24251570.9774   24251577.1554
        -0.000          -0.000
 -18213567.985 9 -13914139.60748  21399173.126    21399172.3514   21399178.2844
        -0.000          -0.000
 -11018584.511 9  -8569898.00846  23436635.072    23436634.3474   23436640.7044
        -0.000          -0.000
 -20785019.570 9 -16171261.80448  21495708.315    21495707.6714   21495713.8014
        -0.000          -0.000
 -16997768.014 9 -13221359.93349  20546401.596    20546401.3324   20546407.1914
        -0.000          -0.000
 98  6 25  5 56 30.0010000  0  8 19 15 29 25 22 18 16 14             0.000999960
  -7696895.923 9  -5486502.37945  24402341.771    24402341.3414   24402348.3574
        -0.000          -0.000
  19483736.585 8  15328298.13045  24911610.642    24911609.8914   24911618.2234
        -0.000          -0.000
  16262693.550 9  12668355.05345  24488134.003    24488134.1574   24488140.7744
        -0.000          -0.000
  16764578.693 9  13067862.78746  24267997.398    24267997.3754   24268003.6314
        -0.000          -0.000
 -18204519.968 9 -13907089.20248  21400894.972    21400894.1694   21400900.0964
        -0.000          -0.000
 -11096989.250 9  -8630992.60946  23421714.781    23421714.3844   23421720.7684
        -0.000          -0.000
 -20839980.594 9 -16214088.56948  21485249.472    21485248.8924   21485255.0814
        -0.000          -0.000
 -16979812.438 9 -13207368.57449  20549818.440    20549818.1774   20549824.0234
        -0.000          -0.000
 98  6 25  5 57  0.0010000  0  8 19 15 29 25 22 18 16 14             0.000999957
  -7779054.999 9  -5550522.40145  24386707.609    24386706.9134   24386713.9594
        -0.000          -0.000
  19581444.091 8  15404433.81545  24930203.392    24930202.9694   24930211.0534
        -0.000          -0.000
  16332682.411 9  12722891.81745  24501452.197    24501452.3884   24501459.1074
        -0.000          -0.000
  16850915.367 9  13135138.09546  24284426.818    24284426.7214   24284432.9634
        -0.000          -0.000
 -18194909.705 9 -13899600.68248  21402723.805    21402722.9834   21402728.8284
        -0.000          -0.000
 -11175331.868 9  -8692038.74646  23406806.945    23406806.3754   23406812.6094
        -0.000          -0.000
 -20894513.717 9 -16256581.90248  21474872.124    21474871.5364   21474877.7654
        -0.000          -0.000
 -16961311.211 9 -13192952.02549  20553339.105    20553338.8704   20553344.6904
        -0.000          -0.000
 98  6 25  5 57 30.0010000  0  8 19 15 29 25 22 18 16 14             0.000999961
  -7861072.840 9  -5614432.40245  24371100.267    24371099.3694   24371106.5264
        -0.000          -0.000
  19679039.782 8  15480482.31045  24948776.037    24948774.9424   24948782.8354
        -0.000          -0.000
  16402788.387 9  12777519.82945  24514792.672    24514793.0324   24514799.8314
        -0.000          -0.000
  16937285.957 9  13202439.85046  24300862.783    24300862.5234   24300868.5084
        -0.000          -0.000
 -18184713.881 9 -13891655.88648  21404664.072    21404663.2104   21404669.0064
        -0.000          -0.000
 -11253611.865 9  -8753036.08446  23391911.094    23391910.1684   23391916.4324
        -0.000          -0.000
 -20948591.786 9 -16298720.64848  21464581.358    21464580.7604   21464587.0554
        -0.000          -0.000
 -16942238.009 9 -13178089.79549  20556968.640    20556968.3974   20556974.1964
        -0.000          -0.000
 98  6 25  5 58  0.0010000  0  7 19 29 25 22 18 16 14                0.000999954
  -7942921.771 9  -5678210.76445  24355524.740    24355524.0524   24355531.1904
        -0.000          -0.000
  16473012.729 9  12832240.08845  24528156.224    24528156.3304   24528163.0534
        -0.000          -0.000
  17023679.784 9  13269759.71246  24317303.252    24317302.8314   24317308.5134
        -0.000          -0.000
 -18173897.080 9 -13883227.20448  21406722.458    21406721.6154   21406727.3814
        -0.000          -0.000
 -11331844.532 9  -8813996.58746  23377023.342    23377022.9644   23377029.1344
        -0.000          -0.000
 -21002203.440 9 -16340495.94848  21454379.378    21454378.7534   21454385.1174
        -0.000          -0.000
 -16922563.742 9 -13162759.20049  20560712.630    20560712.3254   20560718.0914
        -0.000          -0.000
 98  6 25  5 58 30.0010000  0  7 19 29 25 22 18 16 14                0.000999944
  -8024565.750 9  -5741829.40045  24339988.042    24339987.4984   24339994.7414
        -0.000          -0.000
  16543389.679 9  12887079.25045  24541548.772    24541548.7394   24541555.4554
        -0.000          -0.000
  17110098.250 9  13337098.77146  24333747.980    24333747.6874   24333753.2764
        -0.000          -0.000
 -18162411.663 9 -13874277.52448  21408908.027    21408907.1924   21408912.9024
        -0.000          -0.000
 -11410014.351 9  -8874908.09346  23362148.414    23362147.8814   23362153.7844
        -0.000          -0.000
 -21055321.637 9 -16381886.74448  21444271.297    21444270.7104   21444277.0994
        -0.000          -0.000
 -16902256.244 9 -13146935.16749  20564576.988    20564576.7004   20564582.4774
        -0.000          -0.000
 98  6 25  5 59  0.0010000  0  7 19 29 25 22 18 16 14                0.000999942
  -8106001.366 9  -5805285.67345  24324491.292    24324490.8964   24324497.9274
        -0.000          -0.000
  16613926.019 9  12942042.63745  24554971.574    24554971.4274   24554978.0074
        -0.000          -0.000
  17196512.809 9  13404434.78546  24350192.192    24350191.8834   24350197.3224
        -0.000          -0.000
 -18150257.130 9 -13864806.46348  21411220.912    21411220.0914   21411225.8814
        -0.000          -0.000
 -11488147.078 9  -8935790.70146  23347280.432    23347279.6254   23347285.5934
        -0.000          -0.000
 -21107959.549 9 -16422903.29548  21434254.712    21434254.0454   21434260.3834
        -0.000          -0.000
 -16881325.591 9 -13130625.58349  20568559.915    20568559.6424   20568565.4224
        -0.000          -0.000
 98  6 25  5 59 30.0010000  0  7 19 29 25 22 18 16 14                0.000999939
  -8187238.160 9  -5868587.03046  24309032.502    24309032.0974   24309039.0474
        -0.000          -0.000
  16684607.707 9  12997119.26145  24568422.068    24568421.9554   24568428.2214
        -0.000          -0.000
  17282910.036 9  13471757.29946  24366633.093    24366632.8514   24366638.1004
        -0.000          -0.000
 -18137445.651 9 -13854823.48948  21413658.784    21413657.9634   21413663.7864
        -0.000          -0.000
 -11566249.589 9  -8996649.77346  23332417.402    23332417.1334   23332423.0924
        -0.000          -0.000
 -21160134.032 9 -16463558.72148  21424326.256    21424325.5484   21424331.9124
        -0.000          -0.000
 -16859790.460 9 -13113844.98049  20572657.961    20572657.6754   20572663.4304
        -0.000          -0.000
 98  6 25  6  0  0.0010000  0  7 19 29 25 22 18 16 14                0.000999947
  -8268263.238 9  -5931723.40046  24293614.011    24293613.5724   24293620.5094
        -0.000          -0.000
  16755439.061 9  13052312.50545  24581900.955    24581900.9144   24581907.0384
        -0.000          -0.000
  17369288.081 9  13539064.87346  24383070.319    24383070.1814   24383075.2724
        -0.000          -0.000
 -18123991.812 9 -13844339.97748  21416218.880    21416218.0814   21416223.8874
        -0.000          -0.000
 -11644315.116 9  -9057479.97546  23317562.295    23317561.7484   23317567.7734
        -0.000          -0.000
 -21211837.991 9 -16503847.51648  21414487.288    21414486.6194   21414492.9034
        -0.000          -0.000
 -16837665.652 9 -13096604.88349  20576868.113    20576867.8514   20576873.6584
        -0.000          -0.000
 98  6 25  6  0 30.0010000  0  7 19 29 25 22 18 16 14                0.000999958
  -8349101.841 9  -5994714.49146  24278230.736    24278230.4514   24278237.4074
        -0.000          -0.000
  16826400.460 9  13107607.07545  24595404.560    24595404.6354   24595410.6004
        -0.000          -0.000
  17455628.580 9  13606343.18246  24399500.605    24399500.3474   24399505.2944
        -0.000          -0.000
 -18109932.501 9 -13833384.66448  21418894.306    21418893.5094   21418899.2374
        -0.000          -0.000
 -11722351.652 9  -9118287.62847  23302712.428    23302711.7594   23302717.8914
        -0.000          -0.000
 -21263092.340 9 -16543785.95648  21404733.947    21404733.2224   21404739.4894
        -0.000          -0.000
 -16815000.570 9 -13078943.79449  20581181.090    20581180.8454   20581186.6904
        -0.000          -0.000
 98  6 25  6  1  0.0010000  0  7 19 29 25 22 18 16 14                0.000999972
  -8429770.249 9  -6057572.93546  24262879.902    24262879.6874   24262886.7754
        -0.000          -0.000
  16897478.023 9  13162992.16045  24608930.527    24608930.5714   24608936.2384
        -0.000          -0.000
  17541944.212 9  13673602.09846  24415926.389    24415925.8964   24415930.7654
        -0.000          -0.000
 -18095273.883 9 -13821962.36748  21421683.632    21421682.8584   21421688.7074
        -0.000          -0.000
 -11800351.982 9  -9179067.05747  23287869.000    23287868.7044   23287874.8074
        -0.000          -0.000
 -21313907.224 9 -16583381.96649  21395064.043    21395063.4764   21395069.7284
        -0.000          -0.000
 -16791819.709 9 -13060880.78549  20585592.235    20585591.9914   20585597.8764
        -0.000          -0.000
 98  6 25  6  1 30.0010000  0  7 19 29 25 22 18 16 14                0.000999984
  -8510274.016 9  -6120303.11346  24247560.828    24247560.4334   24247567.4454
        -0.000          -0.000
  16968660.328 9  13218458.87845  24622476.163    24622476.1644   24622481.9184
        -0.000          -0.000
  17628240.318 9  13740845.79146  24432348.162    24432347.6284   24432352.4654
        -0.000          -0.000
 -18080012.980 9 -13810070.75248  21424587.568    21424586.8774   21424592.7234
        -0.000          -0.000
 -11878320.989 9  -9239822.06647  23273032.331    23273031.6754   23273037.8734
        -0.000          -0.000
 -21364282.869 9 -16622635.70249  21385477.842    21385477.2824   21385483.4914
        -0.000          -0.000
 -16768126.221 9 -13042418.34049  20590100.961    20590100.7204   20590106.6144
        -0.000          -0.000
 98  6 25  6  2  0.0010000  0  7 19 29 25 22 18 16 14                0.000999995
  -8590608.067 9  -6182901.06946  24232273.754    24232273.3664   24232280.4104
        -0.000          -0.000
  17039954.813 9  13274012.99545  24636043.245    24636043.2814   24636049.0254
        -0.000          -0.000
  17714523.014 9  13808079.05746  24448767.076    24448766.5824   24448771.4764
        -0.000          -0.000
 -18064145.898 9 -13797706.78848  21427607.145    21427606.3274   21427612.1344
        -0.000          -0.000
 -11956247.457 9  -9300543.95947  23258203.452    23258202.7814   23258208.8674
        -0.000          -0.000
 -21414210.769 9 -16661540.54849  21375976.843    21375976.3394   21375982.5474
        -0.000          -0.000
 -16743906.515 9 -13023545.85149  20594709.829    20594709.5994   20594715.4974
        -0.000          -0.000
 98  6 25  6  2 30.0010000  0  7 19 29 25 22 18 16 14                0.001000005
  -8670782.550 9  -6245374.68646  24217017.039    24217016.6684   24217023.6634
        -0.000          -0.000
  17111358.043 9  13329651.85745  24649631.055    24649631.1154   24649636.7664
        -0.000          -0.000
  17800805.098 9  13875311.86446  24465185.862    24465185.3754   24465190.3804
        -0.000          -0.000
 -18047665.549 9 -13784864.94648  21430743.215    21430742.4164   21430748.1954
        -0.000          -0.000
 -12034130.421 9  -9361231.97247  23243382.658    23243382.1614   23243388.1794
        -0.000          -0.000
 -21463701.544 9 -16700104.78349  21366559.186    21366558.6394   21366564.7474
        -0.000          -0.000
 -16719149.279 9 -13004254.50049  20599420.902    20599420.7084   20599426.6164
        -0.000          -0.000
 98  6 25  6  3  0.0010000  0  7 19 29 25 22 18 16 14                0.001000013
  -8750791.651 9  -6307719.37946  24201791.626    24201791.3384   24201798.4794
        -0.000          -0.000
  17182876.991 9  13385380.89745  24663240.831    24663240.8534   24663246.5364
        -0.000          -0.000
  17887106.510 8  13942559.71945  24481607.871    24481607.7764   24481612.9764
        -0.000          -0.000
 -18030558.954 9 -13771535.12748  21433998.564    21433997.7124   21434003.4294
        -0.000          -0.000
 -12111963.372 9  -9421880.98447  23228571.830    23228571.1154   23228576.9134
        -0.000          -0.000
 -21512753.416 9 -16738327.01349  21357224.988    21357224.3614   21357230.4834
        -0.000          -0.000
 -16693820.368 9 -12984517.70049  20604240.819    20604240.6014   20604246.5324
        -0.000          -0.000
 98  6 25  6  3 30.0010000  0  7 19 29 25 22 18 16 14                0.001000017
  -8830632.477 9  -6369932.97846  24186598.630    24186598.1764   24186605.2154
        -0.000          -0.000
  17254514.146 9  13441202.04245  24676873.038    24676873.1664   24676878.7154
        -0.000          -0.000
  17973420.733 8  14009817.54645  24498032.280    24498032.5454   24498038.0664
        -0.000          -0.000
 -18012835.764 9 -13757724.84848  21437371.195    21437370.3674   21437376.0784
        -0.000          -0.000
 -12189764.508 9  -9482505.20747  23213766.474    23213766.0044   23213771.9334
        -0.000          -0.000
 -21561356.304 9 -16776199.39149  21347976.240    21347975.5644   21347981.6294
        -0.000          -0.000
 -16667908.982 9 -12964327.02549  20609171.591    20609171.3584   20609177.3174
        -0.000          -0.000
 98  6 25  6  4  0.0010000  0  7 19 29 25 22 18 16 14                0.001000018
  -8910311.036 9  -6432020.12946  24171436.303    24171435.8634   24171442.9324
        -0.000          -0.000
  17326272.202 9  13497117.39245  24690528.273    24690528.3634   24690533.9444
        -0.000          -0.000
  18059746.913 8  14077084.69045  24514459.517    24514459.6334   24514465.4034
        -0.000          -0.000
 -17994501.556 9 -13743438.44348  21440860.179    21440859.3024   21440865.0024
        -0.000          -0.000
 -12267531.008 9  -9543102.42247  23198967.830    23198967.4104   23198973.4814
        -0.000          -0.000
 -21609499.089 9 -16813713.24149  21338814.961    21338814.2664   21338820.3744
        -0.000          -0.000
 -16641423.914 9 -12943689.32149  20614211.570    20614211.3184   20614217.3084
        -0.000          -0.000
 98  6 25  6  4 30.0010000  0  7 19 29 25 22 18 16 14                0.001000017
  -8989810.583 9  -6493967.77546  24156308.100    24156307.5564   24156314.6734
        -0.000          -0.000
  17398155.730 9  13553130.50145  24704207.377    24704207.2834   24704212.9464
        -0.000          -0.000
  18146092.570 9  14144367.00145  24530890.436    24530890.5684   24530896.4524
        -0.000          -0.000
 -17975534.175 9 -13728658.66448  21444469.458    21444468.6534   21444474.4154
        -0.000          -0.000
 -12345262.960 9  -9603672.74147  23184176.014    23184175.4994   23184181.5644
        -0.000          -0.000
 -21657159.549 9 -16850851.25149  21329745.436    21329744.7554   21329750.9034
        -0.000          -0.000
 -16614352.115 9 -12922594.42849  20619363.190    20619362.9124   20619368.9384
        -0.000          -0.000
 98  6 25  6  5  0.0010000  0  7 19 29 25 22 18 16 14                0.001000010
  -9069127.114 9  -6555772.79846  24141214.270    24141214.0754   24141221.2204
        -0.000          -0.000
  17470156.972 8  13609235.36645  24717908.538    24717908.6184   24717914.4344
        -0.000          -0.000
  18232448.391 9  14211657.25545  24547323.763    24547323.7014   24547329.3554
        -0.000          -0.000
 -17955935.780 9 -13713387.17848  21448198.924    21448198.1614   21448203.8474
        -0.000          -0.000
 -12422953.217 9  -9664210.57447  23169391.605    23169391.4254   23169397.5114
        -0.000          -0.000
 -21704317.333 9 -16887597.56949  21320771.581    21320770.8984   21320777.0904
        -0.000          -0.000
 -16586701.622 9 -12901048.61549  20624624.981    20624624.6894   20624630.7114
        -0.000          -0.000
 98  6 25  6  5 30.0010000  0  7 19 29 25 22 18 16 14                0.001000004
  -9148254.635 9  -6617430.57746  24126156.967    24126156.6694   24126163.6264
        -0.000          -0.000
  17542277.429 8  13665433.09245  24731632.477    24731632.5574   24731638.4414
        -0.000          -0.000
  18318808.942 9  14278951.18145  24563758.084    24563757.6444   24563763.1864
        -0.000          -0.000
 -17935706.277 9 -13697623.92248  21452048.592    21452047.7264   21452053.3434
        -0.000          -0.000
 -12500595.814 9  -9724711.26247  23154616.816    23154616.5634   23154622.6174
        -0.000          -0.000
 -21750954.767 9 -16923938.42249  21311896.628    21311896.0114   21311902.2734
        -0.000          -0.000
 -16558481.884 9 -12879059.22449  20629995.027    20629994.7424   20630000.7834
        -0.000          -0.000
 98  6 25  6  6  0.0010000  0  7 19 29 25 22 18 16 14                0.000999999
  -9227182.230 9  -6678932.50946  24111137.793    24111137.1974   24111144.1084
        -0.000          -0.000
  17614513.677 8  13721721.05545  24745378.499    24745378.6814   24745384.4604
        -0.000          -0.000
  18405177.416 9  14346251.26545  24580193.847    24580193.3154   24580198.6264
        -0.000          -0.000
 -17914837.817 9 -13681362.78148  21456019.715    21456018.8774   21456024.4904
        -0.000          -0.000
 -12578172.391 9  -9785160.51447  23139854.732    23139854.3724   23139860.2694
        -0.000          -0.000
 -21797068.226 9 -16959870.97849  21303121.406    21303120.8464   21303127.2084
        -0.000          -0.000
 -16529684.377 9 -12856619.62549  20635475.051    20635474.7284   20635480.7864
        -0.000          -0.000
 98  6 25  6  6 30.0010000  0  7 19 29 25 22 18 16 14                0.000999997
  -9305915.475 9  -6740283.03746  24096155.139    24096154.6304   24096161.7554
        -0.000          -0.000
  17686855.021 8  13778090.94545  24759144.429    24759144.7224   24759150.5954
        -0.000          -0.000
  18491538.978 9  14413545.96645  24596628.010    24596627.7094   24596632.7364
        -0.000          -0.000
 -17893342.845 9 -13664613.44348  21460110.115    21460109.2664   21460114.8294
        -0.000          -0.000
 -12655646.188 9  -9845529.65847  23125111.636    23125111.4294   23125117.4124
        -0.000          -0.000
 -21842680.653 9 -16995413.12649  21294441.653    21294441.0954   21294447.4504
        -0.000          -0.000
 -16500312.174 9 -12833732.20449  20641064.342    20641064.0594   20641070.1164
        -0.000          -0.000
 98  6 25  6  7  0.0010000  0  8 19 29 25 22 18 16  4 14             0.000999998
  -9384461.062 9  -6801487.35346  24081208.029    24081207.8674   24081214.9074
        -0.000          -0.000
  17759314.100 8  13834552.52745  24772933.146    24772933.3244   24772938.8924
        -0.000          -0.000
  18577893.823 9  14480835.45645  24613060.697    24613060.6624   24613065.7034
        -0.000          -0.000
 -17871220.981 9 -13647375.62148  21464319.786    21464318.9714   21464324.4744
        -0.000          -0.000
 -12733016.019 9  -9905817.82147  23110388.647    23110388.5314   23110394.3384
        -0.000          -0.000
 -21887803.613 9 -17030573.87249  21285855.028    21285854.4604   21285860.8354
        -0.000          -0.000
  -5886747.249 9  -4578241.49546  25112502.647    25112502.9064   25112509.8154
        -0.000          -0.000
 -16470376.245 9 -12810405.52049  20646760.960    20646760.7054   20646766.7244
        -0.000          -0.000
 98  6 25  6  7 30.0010000  0  8 19 29 25 22 18 16  4 14             0.000999989
  -9462828.005 9  -6862552.44646  24066295.216    24066295.0504   24066302.0854
        -0.000          -0.000
  17831901.478 8  13891114.11145  24786746.329    24786746.2034   24786751.7934
        -0.000          -0.000
  18664228.064 9  14548108.89945  24629489.760    24629489.5894   24629494.6424
        -0.000          -0.000
 -17848471.195 9 -13629648.50448  21468649.061    21468648.1744   21468653.5744
        -0.000          -0.000
 -12810309.826 9  -9966046.72747  23095680.139    23095679.9934   23095685.8124
        -0.000          -0.000
 -21932456.489 9 -17065368.31249  21277357.857    21277357.3024   21277363.6984
        -0.000          -0.000
  -5900093.298 9  -4588640.96745  25109962.756    25109963.1744   25109970.1814
        -0.000          -0.000
 -16439876.283 9 -12786639.34049  20652565.067    20652564.7374   20652570.6774
        -0.000          -0.000
 98  6 25  6  8  0.0010000  0  7 19 25 22 18 16  4 14                0.000999950
  -9540994.664 9  -6923461.46946  24051420.517    24051420.4084   24051427.3984
        -0.000          -0.000
  18750564.357 9  14615383.94345  24645919.086    24645918.7864   24645924.0224
        -0.000          -0.000
 -17825077.206 9 -13611419.41248  21473100.866    21473099.9424   21473105.2394
        -0.000          -0.000
 -12887529.975 9 -10026218.21647  23080985.476    23080985.3074   23080991.3154
        -0.000          -0.000
 -21976633.084 9 -17099791.63049  21268951.354    21268950.7924   21268957.1114
        -0.000          -0.000
  -5912939.535 9  -4598650.99945  25107518.598    25107518.6974   25107525.4274
        -0.000          -0.000
 -16408794.982 9 -12762420.15749  20658479.666    20658479.3624   20658485.2704
        -0.000          -0.000
 98  6 25  6  8 30.0010000  0  7 19 25 22 18 16  4 14                0.000999968
  -9618990.386 9  -6984237.29346  24036578.475    24036578.3034   24036585.2494
        -0.000          -0.000
  18836878.383 9  14682641.62545  24662344.014    24662343.7554   24662349.1984
        -0.000          -0.000
 -17801061.993 9 -13592706.25548  21477670.870    21477669.9584   21477675.1934
        -0.000          -0.000
 -12964718.234 9 -10086364.88947  23066297.026    23066296.9254   23066302.7904
        -0.000          -0.000
 -22020355.949 9 -17133861.39749  21260631.215    21260630.6424   21260636.9174
        -0.000          -0.000
  -5925298.360 9  -4608281.20746  25105166.649    25105166.8154   25105173.6514
        -0.000          -0.000
 -16377165.850 9 -12737774.09349  20664498.535    20664498.2164   20664504.0734
        -0.000          -0.000
 98  6 25  6  9  0.0010000  0  7 19 25 22 18 16  4 14                0.000999966
  -9696853.149 9  -7044909.53646  24021761.520    24021761.4904   24021768.4034
        -0.000          -0.000
  18923133.431 9  14749853.38445  24678757.573    24678757.3424   24678763.1214
        -0.000          -0.000
 -17776458.767 9 -13573534.90248  21482352.798    21482351.8574   21482356.9924
        -0.000          -0.000
 -13041950.485 9 -10146545.83447  23051600.347    23051600.0594   23051605.9894
        -0.000          -0.000
 -22063644.139 9 -17167592.44849  21252393.783    21252393.1844   21252399.4464
        -0.000          -0.000
  -5937195.686 9  -4617551.80946  25102902.461    25102902.7824   25102909.5814
        -0.000          -0.000
 -16345025.127 9 -12712729.39749  20670614.793    20670614.4314   20670620.2604
        -0.000          -0.000
 98  6 25  6  9 30.0010000  0  7 19 25 22 18 16  4 14                0.000999968
  -9774541.799 9  -7105446.07746  24006977.725    24006977.7254   24006984.7454
        -0.000          -0.000
  19009364.747 9  14817046.61246  24695166.718    24695166.5134   24695172.4684
        -0.000          -0.000
 -17751248.242 9 -13553890.32048  21487150.184    21487149.2364   21487154.3284
        -0.000          -0.000
 -13119188.773 9 -10206731.52147  23036902.494    23036902.0254   23036907.9004
        -0.000          -0.000
 -22106446.082 9 -17200944.60649  21244248.876    21244248.2534   21244254.5044
        -0.000          -0.000
  -5948580.754 9  -4626423.27346  25100736.396    25100736.3614   25100743.1974
        -0.000          -0.000
 -16312333.256 9 -12687255.22449  20676835.783    20676835.4354   20676841.2874
        -0.000          -0.000
 98  6 25  6 10  0.0010000  0  7 19 25 22 18 16  4 14                0.000999966
  -9852055.364 9  -7165846.19446  23992227.516    23992227.3474   23992234.2674
        -0.000          -0.000
  19095567.251 9  14884217.39346  24711570.487    24711570.2864   24711576.2804
        -0.000          -0.000
 -17725448.503 9 -13533786.62248  21492059.561    21492058.6974   21492063.8804
        -0.000          -0.000
 -13196411.405 9 -10266904.97547  23022207.497    23022207.0184   23022212.9484
        -0.000          -0.000
 -22148751.187 9 -17233909.62449  21236198.515    21236197.8664   21236204.0944
        -0.000          -0.000
  -5959457.000 9  -4634898.20546  25098666.437    25098666.5044   25098673.4674
        -0.000          -0.000
 -16279104.398 9 -12661362.62749  20683158.928    20683158.6474   20683164.5164
        -0.000          -0.000
 98  6 25  6 10 30.0010000  0  7 19 25 22 18 16  4 14                0.000999962
  -9929378.113 9  -7226097.63946  23977513.529    23977513.2634   23977520.2554
        -0.000          -0.000
  19181745.275 9  14951369.10346  24727969.833    24727969.4934   24727975.2304
        -0.000          -0.000
 -17699044.286 9 -13513211.89848  21497084.131    21497083.2694   21497088.4734
        -0.000          -0.000
 -13273583.367 9 -10327038.93447  23007522.093    23007521.6144   23007527.5114
        -0.000          -0.000
 -22190533.006 9 -17266466.87649  21228247.743    21228247.0504   21228253.3204
        -0.000          -0.000
  -5969818.133 8  -4642971.75246  25096694.928    25096694.9004   25096701.8754
        -0.000          -0.000
 -16245319.054 9 -12635036.39749  20689588.065    20689587.8164   20689593.6834
        -0.000          -0.000
 98  6 25  6 11  0.0010000  0  7 19 25 22 18 16  4 14                0.000999970
 -10006478.506 9  -7286175.82246  23962842.027    23962841.5604   23962848.5304
        -0.000          -0.000
  19267922.163 9  15018519.92146  24744368.709    24744368.4114   24744373.9544
        -0.000          -0.000
 -17672013.537 9 -13492148.97648  21502227.919    21502226.9984   21502232.2574
        -0.000          -0.000
 -13350663.222 9 -10387101.14747  22992854.413    22992853.8594   22992859.7244
        -0.000          -0.000
 -22231768.534 9 -17298598.45849  21220400.793    21220400.1834   21220406.4384
        -0.000          -0.000
  -5979650.262 8  -4650633.13046  25094823.755    25094823.8364   25094830.7164
        -0.000          -0.000
 -16210949.220 9 -12608254.72249  20696128.373    20696128.1494   20696134.0594
        -0.000          -0.000
 98  6 25  6 11 30.0010000  0  7 19 25 22 18 16  4 14                0.000999982
 -10083372.479 9  -7346093.14046  23948209.484    23948208.9604   23948216.0254
        -0.000          -0.000
  19354085.648 9  15085660.29246  24760764.882    24760764.7994   24760770.0584
        -0.000          -0.000
 -17644384.951 9 -13470620.20648  21507485.265    21507484.4294   21507489.8104
        -0.000          -0.000
 -13427649.476 9 -10447090.42647  22978204.318    22978203.8214   22978209.6444
        -0.000          -0.000
 -22272488.755 9 -17330328.49749  21212652.042    21212651.4174   21212657.6614
        -0.000          -0.000
  -5988983.953 8  -4657906.10346  25093047.561    25093047.6554   25093054.5554
        -0.000          -0.000
 -16176017.010 9 -12581034.83249  20702775.752    20702775.5274   20702781.4544
        -0.000          -0.000
 98  6 25  6 12  0.0010000  0  7 19 25 22 18 16  4 14                0.000999989
 -10160080.768 9  -7405865.78346  23933612.199    23933611.9154   23933618.8634
        -0.000          -0.000
  19440213.435 9  15152772.84346  24777154.569    24777154.4634   24777159.4914
        -0.000          -0.000
 -17616166.948 9 -13448632.14748  21512854.818    21512854.0414   21512859.5594
        -0.000          -0.000
 -13504572.646 9 -10507030.50947  22963566.181    22963565.7244   22963571.6914
        -0.000          -0.000
 -22312724.505 9 -17361681.03049  21204995.393    21204994.7984   21205001.0654
        -0.000          -0.000
  -5997857.984 9  -4664820.89545  25091358.811    25091358.8344   25091365.7284
        -0.000          -0.000
 -16140534.729 9 -12553386.32049  20709527.775    20709527.5824   20709533.4934
        -0.000          -0.000
 98  6 25  6 12 30.0010000  0  7 19 25 22 18 16  4 14                0.000999996
 -10236604.939 9  -7465494.96646  23919050.098    23919049.7674   23919056.7234
        -0.000          -0.000
  19526317.995 9  15219867.30546  24793539.767    24793539.7194   24793544.5544
        -0.000          -0.000
 -17587338.732 9 -13426168.59648  21518340.638    21518339.8534   21518345.4674
        -0.000          -0.000
 -13581432.832 9 -10566921.54947  22948940.383    22948939.8004   22948945.5804
        -0.000          -0.000
 -22352473.946 9 -17392654.62149  21197431.370    21197430.7644   21197436.9934
        -0.000          -0.000
  -6006263.782 8  -4671370.84845  25089759.098    25089759.1524   25089766.1764
        -0.000          -0.000
 -16104489.123 9 -12525298.84549  20716387.098    20716386.8544   20716392.7534
        -0.000          -0.000
 98  6 25  6 13  0.0010000  0  7 19 25 22 18 16  4 14                0.000999999
 -10312961.225 9  -7524993.33146  23904519.841    23904519.4864   23904526.6234
        -0.000          -0.000
  19612404.536 9  15286947.71346  24809921.383    24809921.4594   24809926.2764
        -0.000          -0.000
 -17557898.738 9 -13403228.34148  21523942.880    21523942.0754   21523947.7624
        -0.000          -0.000
 -13658234.717 9 -10626767.13547  22934325.502    22934324.8974   22934330.6894
        -0.000          -0.000
 -22391732.644 9 -17423245.81749  21189960.787    21189960.1364   21189966.3174
        -0.000          -0.000
  -6014195.475 8  -4677551.35345  25088249.839    25088249.8164   25088256.7684
        -0.000          -0.000
 -16067888.541 9 -12496778.92649  20723351.979    20723351.7024   20723357.6264
        -0.000          -0.000
 98  6 25  6 13 30.0010000  0  7 19 25 22 18 16  4 14                0.000999993
 -10389154.798 9  -7584364.89546  23890020.671    23890020.2634   23890027.4564
        -0.000          -0.000
  19698474.394 8  15354015.12446  24826299.846    24826299.8504   24826304.9304
        -0.000          -0.000
 -17527840.598 9 -13379806.41248  21529662.737    21529661.9454   21529667.6994
        -0.000          -0.000
 -13734980.110 9 -10686568.71047  22919721.285    22919720.6674   22919726.5004
        -0.000          -0.000
 -22430488.384 9 -17453445.09149  21182585.814    21182585.1514   21182591.3574
        -0.000          -0.000
  -6021653.121 8  -4683362.48445  25086830.549    25086830.6994   25086837.5174
        -0.000          -0.000
 -16030730.417 9 -12467824.57049  20730422.891    20730422.6674   20730428.6214
        -0.000          -0.000
 98  6 25  6 14  0.0010000  0  7 19 25 22 18 16  4 14                0.000999977
 -10465180.875 9  -7643605.92746  23875553.366    23875553.0394   23875560.2214
        -0.000          -0.000
  19784523.150 8  15421066.09945  24842674.536    24842674.1664   24842679.7764
        -0.000          -0.000
 -17497142.240 9 -13355885.62148  21535504.402    21535503.5914   21535509.3984
        -0.000          -0.000
 -13811653.726 9 -10746314.36447  22905130.831    22905130.1694   22905135.9854
        -0.000          -0.000
 -22468722.965 9 -17483238.27349  21175310.018    21175309.3684   21175315.4984
        -0.000          -0.000
  -6028621.351 8  -4688792.25745  25085504.422    25085504.6174   25085511.5164
        -0.000          -0.000
 -15993004.961 9 -12438428.13949  20737601.851    20737601.6074   20737607.5574
        -0.000          -0.000
 98  6 25  6 14 30.0010000  0  7 19 25 22 18 16  4 14                0.000999956
 -10541030.618 9  -7702709.56546  23861119.567    23861119.2614   23861126.4074
        -0.000          -0.000
  19870561.192 8  15488108.71545  24859046.854    24859046.3904   24859052.3794
        -0.000          -0.000
 -17465802.068 9 -13331464.70248  21541468.323    21541467.4924   21541473.2144
        -0.000          -0.000
 -13888237.704 9 -10805990.17247  22890557.308    22890556.7174   22890562.5054
        -0.000          -0.000
 -22506424.999 9 -17512616.47749  21168135.404    21168134.8354   21168141.0184
        -0.000          -0.000
  -6035069.166 8  -4693816.49845  25084277.626    25084277.6864   25084284.6084
        -0.000          -0.000
 -15954707.502 9 -12408585.98949  20744889.583    20744889.3824   20744895.3404
        -0.000          -0.000
